ECMWFNIL_500_spd_003.txt.gz
Wind_Speed
44 45 45 46 46 46 45 44 44 44 44 44 44 43 41 41 41 40 38 37 37 36 36 37 38 38 38 38 39 40 40 40 40 39 39 40 40 41 41 39 39 39
44 45 45 46 46 46 46 45 43 42 42 43 43 43 42 40 40 39 39 39 40 40 39 40 40 40 40 40 40 41 40 40 40 40 40 40 40 41 41 41 41 40
44 44 45 45 45 45 45 44 43 41 40 41 41 43 43 41 40 39 39 39 40 41 41 42 43 42 41 40 40 42 42 41 40 41 41 40 40 40 41 41 41 41
44 44 45 45 44 44 43 42 42 40 39 38 38 40 41 41 40 39 39 39 40 40 41 42 42 42 42 41 40 41 43 42 40 41 42 41 40 40 40 40 40 41
46 45 45 45 43 42 41 40 39 38 37 37 37 38 39 40 39 39 38 39 41 41 41 42 42 42 42 42 41 40 41 41 41 42 43 42 41 40 40 40 40 40
47 47 46 44 42 41 40 39 38 37 36 37 38 39 39 40 40 39 39 40 42 42 41 42 42 42 42 42 41 40 40 40 41 43 43 42 41 40 40 40 40 40
48 48 47 45 42 40 39 38 38 38 38 38 39 39 40 40 41 40 39 39 41 41 41 41 41 41 41 41 41 41 41 41 41 43 43 42 41 41 40 40 41 41
49 48 48 45 42 40 39 39 39 39 40 40 40 39 39 39 40 39 37 37 38 39 39 39 39 39 39 40 40 40 41 41 40 41 42 41 41 42 42 41 42 42
48 47 46 44 41 40 39 39 40 40 40 40 39 39 38 38 37 35 34 34 34 36 37 37 37 37 37 38 39 39 40 40 39 39 39 39 40 42 43 42 42 42
46 45 44 42 41 40 40 39 40 39 38 37 37 37 36 35 34 32 31 31 31 33 35 35 35 35 35 36 37 38 39 38 37 37 37 37 38 41 42 42 42 41
45 43 42 41 40 39 39 39 38 37 36 35 34 34 34 33 32 31 29 28 29 30 33 34 33 33 33 33 34 36 36 35 35 34 35 36 37 38 40 41 42 41
43 42 40 39 38 38 37 37 36 35 34 33 33 33 32 30 30 29 28 27 28 30 30 31 31 31 32 31 31 32 32 33 33 33 33 34 35 35 37 39 41 41
42 40 38 37 36 36 35 34 34 33 32 32 32 31 29 28 27 26 25 24 26 28 27 27 28 30 30 29 28 28 29 31 31 31 32 33 34 34 35 37 39 40
40 39 36 35 35 34 33 32 32 32 31 32 31 28 27 27 26 24 23 23 24 25 24 23 25 27 28 28 27 26 26 28 30 30 31 32 34 34 35 37 38 39
39 37 35 34 34 33 32 31 31 31 31 32 29 26 26 26 24 22 22 22 23 22 18 17 19 22 24 25 25 25 25 25 27 29 30 31 33 34 36 37 38 39
39 37 34 34 33 32 31 31 30 30 31 31 28 25 25 23 21 20 20 20 21 19 15 14 16 17 18 21 23 24 24 24 25 27 29 30 31 33 34 36 37 39
39 37 34 32 32 30 29 30 31 30 30 30 28 25 24 22 21 20 20 19 17 15 14 14 15 16 16 17 20 21 23 24 25 27 28 29 30 32 33 35 36 38
37 36 33 31 30 29 28 29 31 31 31 30 29 27 25 24 23 23 22 19 15 14 15 16 15 16 16 17 18 19 22 24 24 26 27 29 30 30 31 31 32 34
34 32 30 30 30 28 27 28 30 30 31 30 29 27 26 25 25 24 22 18 15 15 16 17 17 17 18 18 18 19 21 22 23 24 25 27 28 27 27 26 26 28
31 30 30 30 30 28 27 28 29 30 30 30 29 27 27 26 24 21 19 16 14 15 16 17 18 18 18 19 19 20 19 19 20 21 21 24 26 26 26 26 25 25
31 32 31 31 30 29 28 27 28 29 29 29 28 27 26 25 22 19 17 14 13 13 15 17 19 19 19 19 19 19 17 16 18 20 21 22 25 25 23 23 23 23
31 32 33 32 31 30 28 27 27 28 28 27 27 26 25 23 20 17 16 14 11 11 14 17 20 20 19 19 18 17 16 17 18 20 20 21 24 25 22 20 21 21
30 31 32 32 31 29 27 26 26 27 27 26 25 25 24 22 19 17 16 15 12 10 11 15 19 21 20 18 18 15 15 17 17 17 19 20 21 22 21 19 21 21
29 30 31 31 30 28 26 24 24 25 25 24 24 23 22 21 19 17 16 16 15 13 13 12 15 19 21 17 15 12 11 12 10 11 16 19 19 21 20 18 19 20
29 29 30 31 29 28 26 23 23 23 23 23 23 21 20 20 19 17 17 17 17 16 16 11 10 14 17 16 12 8 9 11 9 7 12 16 16 18 20 18 17 19
29 29 30 30 29 28 26 23 22 22 21 22 22 21 19 18 18 18 18 19 18 18 17 14 9 9 9 13 11 11 13 13 11 10 15 19 15 12 17 19 18 19

ECMWFNIL_500_spd_006.txt.gz
Wind_Speed
35 36 37 38 40 41 42 43 44 44 44 44 43 43 42 40 39 38 38 38 37 35 35 36 37 39 40 40 39 39 39 42 43 42 42 43 43 43 43 43 44 44
37 37 38 38 40 41 43 44 45 45 44 44 43 42 41 40 39 37 36 37 36 35 35 35 35 37 39 41 42 40 39 39 40 41 42 42 43 44 44 45 45 45
39 39 39 40 40 42 43 44 45 45 44 43 42 41 41 40 39 38 37 36 37 36 35 35 35 36 38 41 43 43 42 40 40 42 43 44 44 44 44 45 46 46
41 41 41 42 42 43 44 45 45 43 43 42 42 41 40 39 39 39 38 38 37 38 36 36 36 36 38 41 43 44 44 44 43 44 45 45 45 45 44 44 46 46
42 43 43 44 45 46 46 46 44 43 42 41 41 40 40 40 40 40 40 39 38 38 37 36 36 37 38 40 43 44 44 45 45 45 45 45 45 45 44 44 44 45
43 44 45 46 47 48 47 46 44 42 41 41 40 40 40 40 40 40 40 39 38 38 38 38 37 37 38 38 41 43 44 44 44 44 44 44 44 44 43 43 43 44
45 46 47 48 48 48 47 45 43 41 40 40 39 39 39 38 38 37 37 37 37 37 38 39 39 38 38 38 38 40 42 43 43 43 43 43 43 43 43 42 42 44
46 47 48 48 48 47 46 44 41 39 38 38 38 38 38 37 36 35 35 36 37 37 37 38 38 37 37 38 37 37 39 41 42 42 42 42 42 42 42 42 41 43
47 48 49 48 47 46 43 41 39 37 37 37 37 37 36 36 35 34 34 35 36 36 35 35 36 36 37 38 36 34 35 38 39 40 40 40 40 40 42 42 41 42
48 48 48 48 46 44 41 39 36 35 35 35 35 35 34 34 34 34 34 35 35 34 33 33 32 33 34 35 34 32 32 35 37 38 39 39 39 39 41 42 41 41
48 49 48 47 45 42 40 37 35 33 33 33 33 33 33 32 33 34 34 33 32 31 31 31 30 31 32 33 33 32 32 33 35 37 37 36 36 38 39 40 40 41
49 49 48 46 44 41 39 37 33 31 31 31 32 32 32 32 32 34 35 34 32 31 30 29 28 29 30 31 32 32 31 32 33 35 36 35 34 35 37 38 39 40
50 49 47 46 44 40 38 36 32 30 29 30 31 32 32 32 32 34 35 35 32 30 28 27 27 28 28 28 30 30 29 29 30 32 34 35 34 35 36 36 37 39
51 49 47 45 43 39 37 34 31 29 28 29 30 31 32 32 32 33 34 34 32 28 26 27 27 27 28 26 26 27 28 29 30 31 33 33 33 34 35 36 37 38
51 49 46 44 41 38 36 33 30 29 29 29 29 31 32 32 32 31 32 33 32 29 27 29 28 26 26 25 24 25 27 30 32 32 31 31 32 33 34 35 36 38
51 48 45 43 40 38 36 33 31 31 30 30 30 31 33 33 33 32 31 31 32 31 29 29 28 26 25 25 25 24 25 27 30 32 32 30 29 30 32 33 35 37
50 47 44 42 40 38 37 35 33 32 31 31 31 32 32 33 33 32 31 31 31 31 29 28 28 28 26 24 25 25 24 23 25 30 32 29 28 28 29 32 34 35
49 47 44 42 39 38 38 37 35 33 31 32 32 32 31 32 33 32 31 30 30 30 30 28 26 26 26 25 25 25 24 22 21 26 30 29 29 29 29 31 33 34
48 47 45 43 40 37 37 37 36 33 31 31 32 31 31 31 32 32 30 29 29 29 29 27 24 23 24 27 27 25 25 24 21 22 26 28 29 29 28 29 32 34
48 47 46 43 40 37 36 36 36 34 32 31 31 31 29 30 31 31 30 28 27 27 27 25 22 21 22 26 27 25 24 24 22 21 23 26 27 27 27 29 31 33
48 47 46 43 39 36 36 36 36 34 32 31 30 30 28 29 30 30 29 28 27 26 26 23 21 22 22 23 26 26 23 22 23 21 21 22 22 23 24 26 28 30
48 47 45 42 38 36 36 37 36 34 32 31 30 29 28 28 30 30 29 28 27 26 26 23 21 24 24 22 23 25 22 19 20 20 20 21 21 22 23 24 24 26
46 45 43 40 37 36 36 37 36 34 32 31 30 28 27 27 29 29 28 27 26 26 26 25 24 25 25 22 20 22 21 17 16 17 20 23 24 24 23 22 22 24
44 43 41 39 37 35 35 35 34 32 31 30 28 26 25 26 28 28 27 26 26 26 26 27 26 26 26 24 19 18 17 14 12 12 17 23 26 26 23 21 21 24
42 40 39 38 37 35 34 33 32 30 29 28 26 24 23 25 26 26 25 24 25 26 26 27 28 27 26 25 21 17 15 15 16 14 15 18 22 23 21 20 22 24
40 38 38 38 36 34 32 31 30 28 26 25 24 23 22 23 25 25 23 23 24 26 27 28 29 28 26 26 25 20 15 15 17 16 12 10 12 15 15 15 19 23

ECMWFNIL_500_spd_009.txt.gz
Wind_Speed
33 34 35 36 36 36 37 38 39 40 41 42 43 42 40 37 35 34 33 33 33 32 31 32 33 34 33 34 35 36 38 40 41 41 42 43 44 46 47 46 45 45
34 35 36 37 37 37 37 39 40 41 42 42 42 41 38 36 34 33 33 33 33 33 33 32 33 34 35 34 35 35 36 38 39 41 42 44 46 46 47 48 48 47
34 35 36 37 37 38 39 40 42 42 43 43 42 40 37 34 33 33 32 32 33 34 34 34 34 34 35 35 35 36 37 37 37 39 41 44 46 46 47 50 49 48
36 36 37 37 38 39 40 41 43 44 44 43 42 39 35 34 33 33 33 33 34 35 35 36 36 35 35 35 35 36 37 38 38 38 39 42 46 48 48 50 50 49
37 38 38 38 38 39 41 42 44 45 44 43 42 38 35 33 33 33 33 34 34 36 36 36 37 36 36 35 36 36 37 38 39 39 39 41 44 48 50 51 50 50
38 39 39 39 40 40 42 44 45 45 45 44 42 39 36 34 33 33 33 34 35 36 36 35 35 35 35 35 36 37 37 39 40 40 41 41 42 46 50 52 52 52
39 39 40 41 41 41 43 45 46 46 45 44 42 39 37 35 34 32 33 34 35 35 34 33 33 33 34 34 35 36 37 38 40 41 42 43 42 43 47 51 53 53
40 41 41 42 42 43 44 46 47 46 45 43 41 39 37 35 33 32 33 35 35 35 33 32 32 33 33 33 34 34 35 36 38 40 42 43 43 43 45 49 52 53
41 42 43 43 44 44 45 47 48 47 45 43 41 39 37 34 32 31 32 35 35 34 32 32 32 32 32 32 33 33 33 33 35 37 39 41 42 43 44 47 50 52
43 44 44 44 45 45 46 48 49 48 45 42 40 38 36 34 32 31 32 35 36 34 32 32 32 31 30 30 30 31 31 32 32 33 35 37 39 41 42 44 47 50
44 45 45 45 46 46 47 49 50 48 45 42 39 38 36 34 33 32 33 35 36 36 34 32 32 31 28 27 27 27 29 30 31 31 33 34 35 38 40 42 44 47
45 46 47 47 47 47 48 50 50 48 45 41 39 38 36 34 33 34 35 36 37 37 35 33 33 31 29 27 27 26 27 29 30 31 33 33 34 36 38 40 42 44
47 48 48 48 48 48 49 50 50 48 45 41 38 38 37 36 35 35 36 37 38 38 36 34 33 31 30 28 27 27 28 29 29 30 31 30 30 32 35 37 39 42
48 49 49 49 49 49 49 50 50 48 45 41 38 38 38 37 36 36 37 38 39 39 37 36 34 32 30 28 27 28 30 30 29 29 30 30 28 28 32 35 37 39
49 50 50 49 48 48 49 49 49 48 45 41 38 37 38 37 36 35 36 37 38 38 37 36 35 33 31 29 27 29 31 31 29 28 28 30 29 27 30 34 36 37
50 50 50 49 48 48 48 48 48 47 45 41 38 37 38 38 36 35 35 36 37 38 36 35 35 34 33 31 30 29 30 30 29 28 27 28 28 27 29 33 35 35
50 50 50 48 47 47 47 47 47 46 44 41 39 38 38 38 37 34 34 35 37 37 36 35 34 34 33 33 32 31 29 28 28 27 26 27 28 28 28 31 34 34
50 50 49 48 47 47 47 46 46 45 42 40 39 39 38 38 36 34 33 34 36 36 36 35 34 33 33 32 33 33 30 27 27 27 26 26 27 28 27 28 31 33
50 49 48 48 47 47 46 45 45 44 41 39 39 39 38 36 35 33 32 34 35 35 35 35 34 33 32 32 32 33 31 28 26 26 24 24 25 25 26 26 28 31
50 49 49 48 48 46 45 44 43 42 41 40 40 39 37 34 33 32 32 33 34 34 34 34 34 33 32 32 31 31 30 28 25 24 23 21 20 21 23 24 26 31
50 50 49 49 47 46 44 43 42 41 40 40 40 38 35 33 31 30 30 31 32 33 32 33 33 33 32 32 31 31 29 27 25 24 24 21 18 18 20 21 25 30
50 49 49 48 46 45 43 41 40 40 40 40 38 36 33 31 30 29 29 29 30 31 31 32 33 32 32 32 31 30 29 26 24 23 24 21 19 18 19 20 24 28
49 48 47 46 45 43 41 39 39 39 40 39 37 34 31 29 29 28 27 28 29 29 29 30 32 32 31 31 31 30 29 27 23 21 21 19 17 19 19 21 26 28
48 47 46 45 44 42 39 38 39 39 39 37 34 32 29 28 27 27 27 27 28 28 28 29 30 30 30 31 30 29 29 28 23 19 19 18 16 20 20 20 24 27
47 46 45 43 42 40 39 39 38 38 37 34 32 30 28 27 27 27 27 28 28 28 27 27 29 29 29 30 30 29 29 27 23 17 16 17 16 18 19 19 20 25
45 44 43 42 40 39 39 39 38 37 35 32 30 29 27 26 27 27 28 28 28 27 27 26 27 27 27 29 30 30 29 27 22 18 15 15 16 16 17 16 14 16

ECMWFNIL_500_spd_012.txt.gz
Wind_Speed
32 33 33 32 32 32 32 33 34 35 36 37 38 39 41 43 43 43 43 42 39 36 35 35 35 34 34 34 33 34 36 38 39 39 38 37 38 41 42 43 45 46
33 34 34 33 33 32 33 34 35 35 36 37 38 40 41 43 43 42 42 41 39 37 36 36 35 34 34 34 34 34 35 37 39 40 39 39 38 39 40 41 44 46
34 34 34 34 33 33 34 34 35 36 36 37 38 40 42 43 43 42 41 40 39 37 36 36 36 34 34 34 34 34 34 36 39 41 41 40 40 40 40 41 42 44
35 35 35 34 34 34 35 35 36 37 37 38 39 40 42 43 43 42 40 39 38 37 36 36 35 34 34 34 34 34 34 34 36 39 41 41 41 41 41 42 42 43
36 36 35 35 35 35 36 37 37 38 38 39 40 41 42 44 44 42 40 39 38 36 36 35 34 34 34 34 35 35 35 34 34 36 39 40 40 41 42 43 43 43
37 37 36 36 36 36 37 38 39 39 39 40 41 42 43 44 44 42 40 39 38 37 36 35 34 34 33 33 34 35 36 36 35 35 37 38 39 40 42 44 45 45
38 39 38 37 37 37 38 39 40 41 41 42 42 43 44 44 45 43 40 38 38 37 36 35 34 34 33 33 33 35 36 37 37 36 36 37 37 37 39 42 45 47
40 40 39 38 38 38 39 41 42 42 43 43 44 44 44 45 45 44 41 39 38 37 36 35 35 34 34 33 34 35 36 36 37 37 36 35 35 36 37 39 42 46
41 41 40 39 39 40 41 42 43 44 45 45 45 45 45 45 45 45 43 40 38 38 37 36 36 36 35 35 35 35 35 35 35 36 36 34 34 34 35 37 39 42
42 42 41 41 40 41 42 43 45 46 46 46 46 46 46 46 46 46 44 41 39 39 38 37 37 37 36 36 36 35 35 35 35 35 36 35 34 34 35 35 36 38
43 43 43 42 42 43 44 45 47 48 48 47 46 46 46 46 47 47 45 42 39 39 39 38 37 37 36 36 35 35 34 34 34 35 35 36 35 34 35 35 36 36
44 44 44 44 44 44 45 47 48 49 49 48 47 47 47 47 47 47 46 42 40 40 39 38 37 36 35 35 34 34 33 33 34 35 35 36 36 36 35 35 36 37
44 45 45 45 45 46 47 48 50 50 50 49 48 47 47 48 48 47 45 42 41 40 39 38 37 36 34 34 34 33 33 33 33 34 34 35 36 36 36 35 34 35
46 46 46 46 46 47 48 49 50 51 50 50 49 48 48 48 47 46 44 42 41 41 39 37 36 35 34 34 34 33 33 33 33 34 34 35 36 36 36 34 32 32
46 46 46 46 47 47 48 50 51 51 51 50 49 49 48 47 45 43 42 42 42 41 39 37 35 34 34 34 34 33 32 33 33 33 34 35 36 35 34 33 31 31
47 47 47 47 47 48 49 50 52 52 51 50 49 49 48 46 43 41 40 41 42 40 38 37 35 33 33 34 34 33 32 32 32 33 33 34 35 34 32 31 31 31
47 47 47 47 48 49 50 51 52 52 51 50 49 49 47 44 41 39 39 40 41 39 37 36 35 33 32 33 34 32 31 31 32 32 33 34 34 32 30 30 31 30
47 47 46 47 48 49 51 52 52 51 50 49 48 47 45 42 40 39 39 40 39 37 35 35 35 32 31 32 33 31 30 31 31 32 33 33 32 30 28 28 28 27
47 46 46 47 49 50 52 52 52 51 49 48 47 45 43 41 40 40 39 39 38 36 34 34 33 31 30 31 31 30 29 29 30 31 32 33 31 29 27 27 25 24
46 46 47 48 49 51 52 52 51 50 49 48 47 44 42 40 40 39 39 38 36 34 32 32 31 30 30 30 30 30 29 29 30 31 31 32 31 28 27 26 24 22
47 47 48 49 50 51 52 51 50 49 48 47 46 43 41 40 39 39 38 37 34 32 30 30 30 30 30 30 30 30 29 29 30 30 31 31 30 27 26 26 25 23
47 48 48 49 50 51 50 49 48 47 47 47 45 43 40 38 38 38 37 36 33 30 29 29 30 31 31 30 30 30 29 29 30 30 30 31 30 27 24 24 25 24
48 47 48 49 49 49 48 47 47 46 46 46 45 42 39 37 37 37 36 35 32 30 29 30 30 31 31 30 30 30 29 30 31 30 31 31 31 28 24 22 23 23
47 47 47 48 48 47 46 46 46 45 45 45 44 41 38 36 36 36 35 34 32 29 29 30 30 30 29 29 29 29 29 30 31 31 31 32 32 30 26 21 20 21
47 46 46 46 45 45 45 44 44 44 43 43 41 38 36 35 35 35 34 32 30 28 28 28 29 29 28 27 27 27 28 30 30 30 31 32 32 31 27 22 20 19
45 45 45 44 44 43 43 43 43 42 42 41 38 35 33 34 34 33 32 30 29 27 27 27 28 28 27 27 26 26 27 29 29 29 30 31 32 31 28 23 20 18

ECMWFNIL_500_spd_015.txt.gz
Wind_Speed
31 32 32 31 31 32 33 33 33 33 33 33 34 35 36 38 39 41 41 42 42 43 44 45 46 45 44 42 41 41 41 40 38 36 36 36 37 36 36 37 38 38
32 33 33 33 32 33 34 34 34 34 34 34 35 36 37 39 40 42 42 42 43 43 43 44 45 45 44 42 40 40 41 40 38 37 35 35 36 36 35 36 36 37
33 34 34 34 34 34 35 35 36 35 35 36 36 37 38 40 41 43 43 43 44 44 44 44 45 46 45 43 41 40 40 40 39 38 36 35 35 36 36 35 35 36
33 34 35 35 35 35 36 37 37 37 36 37 37 38 39 41 42 43 44 44 45 45 44 45 45 46 46 44 42 40 40 41 40 39 38 35 34 35 37 37 35 35
34 35 35 36 36 37 37 37 38 37 37 38 39 40 40 42 43 45 45 46 46 46 46 46 46 46 46 45 42 41 41 41 41 41 39 37 35 35 36 37 37 36
34 35 36 36 37 38 38 38 38 38 38 39 39 40 42 43 45 46 47 47 48 48 47 48 47 47 47 45 42 40 41 41 41 41 41 39 37 36 36 37 38 38
34 35 36 37 38 38 38 38 39 39 39 40 40 41 42 44 46 47 48 48 49 48 48 49 49 49 48 45 42 41 41 40 40 40 40 40 40 38 37 38 39 40
35 36 37 38 38 39 39 39 39 39 40 41 41 42 43 45 47 48 49 49 49 49 49 49 50 49 48 45 43 41 40 39 38 38 38 39 40 39 38 38 39 41
35 36 38 38 39 39 40 40 40 41 41 41 42 43 45 46 48 49 50 49 49 49 50 50 50 49 47 45 43 41 40 39 37 36 36 37 38 38 38 37 39 41
36 37 39 39 40 40 41 41 42 43 43 43 44 44 46 47 48 49 50 50 49 50 50 50 49 47 46 45 43 42 40 38 36 34 34 35 36 36 37 37 37 40
37 38 39 40 41 41 42 43 43 44 45 46 45 46 47 48 49 49 50 51 50 50 51 49 47 46 45 44 43 41 39 38 36 34 33 33 33 35 36 36 37 38
38 39 40 41 42 42 43 44 45 46 46 47 47 47 48 48 49 49 51 51 51 51 50 47 46 46 45 42 41 39 38 37 35 33 33 32 31 33 35 36 37 38
39 40 41 42 43 43 44 45 45 46 46 46 47 48 48 49 50 50 51 52 51 51 49 46 44 44 43 41 39 37 36 36 34 33 32 31 30 32 34 36 37 38
40 41 42 43 44 45 45 46 46 46 46 46 47 47 48 49 50 51 52 52 51 50 48 46 43 42 42 40 37 36 35 34 33 32 31 30 30 31 33 35 36 37
41 43 44 45 45 46 46 46 46 46 46 46 47 48 48 49 50 51 51 51 50 49 47 44 42 41 40 38 36 34 33 33 32 31 29 29 29 31 33 34 35 37
43 44 45 46 46 46 47 46 46 45 46 46 47 48 49 49 50 50 51 50 49 48 46 43 40 39 38 37 35 34 32 31 30 29 29 28 28 30 32 33 33 36
43 45 45 46 47 47 47 46 46 46 46 46 47 48 49 49 49 50 50 49 48 46 44 41 38 37 36 35 34 32 31 29 28 28 28 28 28 29 31 32 33 36
44 45 46 46 47 48 47 47 47 47 46 47 47 48 48 48 49 49 48 47 46 44 42 39 37 35 34 33 31 30 29 28 28 28 28 27 28 28 30 32 34 35
44 45 46 47 48 48 48 48 48 47 46 47 47 47 48 48 48 48 47 46 44 42 39 37 35 34 33 32 30 29 28 28 28 28 27 27 28 29 30 33 34 36
45 46 47 48 48 48 48 48 47 46 46 47 47 47 47 47 48 47 46 44 42 39 37 36 34 33 32 30 29 28 27 27 27 27 27 28 28 29 31 33 34 36
47 47 48 48 48 47 47 47 46 45 46 46 47 47 47 47 47 46 44 41 39 37 36 35 34 33 30 29 28 27 27 26 26 26 26 27 28 28 30 32 33 35
48 48 48 47 47 47 46 45 44 44 45 46 46 46 46 46 45 43 42 39 37 36 36 35 34 32 29 28 27 26 26 26 25 26 26 27 28 28 29 31 32 34
49 49 48 47 46 46 45 43 43 44 44 45 45 45 45 45 43 41 40 37 35 35 35 34 33 31 28 27 26 25 25 25 25 26 26 26 27 29 29 30 32 34
49 49 48 47 45 45 44 43 43 43 43 44 44 44 44 42 40 39 38 35 34 35 34 32 31 29 26 25 25 24 25 25 25 26 26 26 27 28 29 30 31 33
48 49 48 47 45 44 44 43 42 42 43 43 42 43 42 39 38 37 36 33 33 33 32 30 29 28 26 25 25 24 24 24 25 26 26 26 26 28 29 30 31 33
47 48 49 47 45 44 44 43 42 42 42 41 41 42 41 39 38 37 34 32 31 32 31 29 28 28 28 26 25 24 24 24 24 25 26 26 26 27 28 29 31 32

ECMWFNIL_500_spd_018.txt.gz
Wind_Speed
28 29 29 29 29 29 30 31 32 32 32 33 34 34 35 36 37 37 38 39 39 40 41 41 42 43 43 44 45 46 46 46 46 46 46 46 44 43 42 41 42 42
29 30 30 30 30 30 31 32 32 33 33 34 34 35 36 37 37 38 38 39 40 40 41 42 43 43 44 45 46 47 47 47 47 47 46 46 44 44 43 41 42 43
30 31 31 31 31 31 31 32 33 34 34 35 35 36 37 38 38 39 39 39 40 41 42 42 44 44 45 46 47 48 49 49 49 48 47 46 45 44 44 42 42 43
31 32 33 32 32 32 32 33 34 35 35 35 36 37 38 38 39 39 39 40 40 41 42 43 44 45 46 47 48 49 50 50 50 49 47 46 45 44 43 43 42 43
32 33 34 34 33 32 32 33 34 35 36 36 37 37 38 38 39 40 40 41 41 42 43 44 46 47 47 48 48 49 50 51 50 48 46 45 44 43 42 42 42 42
32 34 35 35 34 33 33 33 35 36 36 37 37 38 38 38 39 40 41 42 42 43 44 45 46 48 48 49 49 49 50 50 49 46 44 43 43 42 41 40 40 41
33 35 35 35 34 33 33 34 35 36 37 37 38 39 39 39 40 41 42 43 44 45 45 46 47 48 49 49 49 50 50 50 49 45 42 42 41 40 39 39 39 40
34 35 35 35 33 33 33 34 35 36 37 37 38 39 40 41 42 42 43 44 45 46 46 46 47 48 49 50 50 50 50 49 48 44 41 40 39 38 37 38 38 39
34 35 35 34 33 33 33 34 36 37 38 38 38 39 40 41 42 43 44 45 45 46 46 46 47 48 49 50 50 50 49 48 47 44 41 38 36 36 36 37 37 38
35 35 36 35 34 34 34 35 36 38 38 39 39 41 42 43 44 45 45 45 45 46 46 46 47 48 49 49 49 49 47 44 42 40 40 38 35 34 34 35 36 37
37 37 36 36 35 35 35 36 37 39 40 40 41 43 44 45 45 45 45 45 45 46 46 47 48 48 48 48 48 47 45 42 39 37 36 36 33 32 33 33 34 35
38 38 37 36 36 35 36 37 39 40 41 42 43 44 45 46 47 46 46 46 45 46 46 47 48 47 47 48 47 45 42 41 40 37 35 35 33 32 32 32 32 33
38 37 37 37 36 37 37 38 39 41 42 43 45 46 47 47 47 47 46 46 45 46 46 47 47 47 47 47 45 42 40 39 38 37 35 35 33 32 31 30 30 32
37 37 37 37 37 38 38 39 40 41 43 44 46 47 48 47 47 46 45 45 45 45 46 47 47 46 46 45 42 40 38 36 35 36 35 33 31 30 29 29 30 31
38 37 37 37 38 39 39 40 41 42 44 46 47 48 48 47 47 46 45 45 45 45 45 46 46 46 45 43 39 37 35 33 33 33 32 31 29 28 28 29 30 30
37 37 38 38 39 39 39 40 42 43 45 47 48 48 48 48 47 46 45 45 45 45 45 45 45 44 43 40 37 35 33 33 33 32 30 29 28 28 28 28 29 30
37 38 39 39 39 39 40 41 43 44 46 47 48 48 48 48 47 45 45 44 44 44 44 44 44 43 41 38 35 34 33 33 31 30 29 28 28 28 28 28 29 29
38 39 40 40 40 40 41 43 44 45 47 48 48 47 47 47 46 45 44 44 44 44 44 43 43 42 40 36 34 34 33 31 29 28 27 27 27 27 27 28 28 28
39 40 41 41 42 42 43 43 44 46 48 48 47 47 47 47 45 44 44 43 43 43 42 42 42 41 38 35 34 34 32 29 27 26 26 26 26 27 27 27 27 27
40 40 42 43 44 44 44 44 45 46 48 48 48 47 47 46 45 44 43 42 42 42 41 40 41 40 37 34 34 33 30 28 26 25 25 26 26 27 27 27 28 28
41 42 43 44 45 45 45 46 46 46 47 48 48 47 45 44 44 43 43 42 42 41 40 39 39 39 37 35 33 31 29 27 26 25 25 26 27 27 26 27 28 29
42 43 44 45 45 46 47 48 47 46 47 47 47 46 44 43 43 43 42 42 41 40 38 38 38 37 36 35 32 30 28 27 26 26 26 27 27 27 27 27 27 28
44 44 45 45 46 47 48 49 48 46 46 46 46 44 42 42 42 42 41 41 40 39 37 37 37 35 34 34 31 29 28 27 27 26 26 27 28 28 27 27 26 27
44 45 45 46 47 48 49 49 48 47 46 46 46 43 41 41 41 41 40 40 39 38 36 36 36 34 33 33 32 29 28 27 27 26 26 26 28 28 28 28 27 27
45 46 46 47 47 47 48 48 49 48 46 45 45 43 41 41 41 40 40 39 38 36 34 35 35 34 33 32 32 30 28 27 27 27 25 26 27 28 29 28 28 28
46 47 47 48 47 47 47 48 48 48 46 45 44 43 41 40 40 39 39 39 37 34 33 34 34 33 33 33 32 30 28 27 28 28 26 25 26 28 29 29 29 29

ECMWFNIL_500_spd_021.txt.gz
Wind_Speed
22 22 23 24 25 26 27 28 29 30 30 30 30 30 30 31 32 33 34 34 35 36 36 36 36 37 38 39 40 41 42 43 44 45 46 46 46 47 48 47 46 44
23 23 24 25 26 27 28 29 30 31 31 31 31 31 31 32 32 33 34 35 35 36 36 37 37 38 39 40 41 42 42 44 45 46 47 47 48 48 49 49 47 45
23 23 24 25 26 27 29 30 31 31 31 31 31 31 31 32 33 34 35 35 36 37 37 37 38 39 40 41 42 43 43 44 46 47 47 48 48 49 50 50 48 45
24 24 25 25 26 28 29 30 31 31 31 31 31 31 31 32 33 34 35 35 36 37 38 38 39 39 40 41 42 43 44 45 46 46 47 48 49 49 50 49 47 44
25 25 25 25 26 28 29 30 31 31 30 30 30 31 32 32 33 34 34 35 37 38 39 39 40 40 40 41 43 44 45 46 46 46 47 48 49 50 49 47 45 42
26 25 24 25 27 28 29 30 31 31 30 30 30 31 32 33 34 34 35 36 38 39 40 40 41 41 41 42 43 44 45 46 46 47 47 48 49 49 48 46 43 40
27 26 25 27 28 29 30 32 32 31 31 30 30 31 32 33 34 35 36 38 39 40 40 40 41 41 41 42 43 44 45 46 46 47 47 48 49 48 46 44 41 39
26 27 28 29 30 31 32 32 32 32 32 30 30 31 31 32 34 35 37 38 39 40 40 40 40 41 42 42 43 44 45 45 46 47 47 47 48 46 43 40 38 37
26 27 29 30 31 33 34 33 32 32 32 31 30 31 31 32 33 35 36 38 39 40 41 42 41 41 42 43 43 44 45 45 46 47 47 46 46 43 40 37 36 35
26 27 30 31 33 34 34 33 33 32 31 31 31 31 32 33 34 36 38 40 41 40 40 41 41 42 42 43 43 43 44 45 45 46 46 45 43 40 36 35 36 36
27 28 30 32 33 35 35 34 33 32 32 33 33 33 34 35 36 38 40 41 41 41 41 42 42 42 43 43 43 43 44 44 45 45 45 43 40 37 35 35 36 36
28 29 31 33 34 35 35 34 33 33 33 34 34 35 36 37 38 40 41 42 43 43 44 44 43 43 43 43 43 43 44 44 44 44 44 42 39 37 36 36 35 35
29 31 33 34 35 35 35 34 34 34 34 34 34 36 37 38 39 41 43 43 44 44 44 44 43 43 42 42 42 43 43 43 43 43 42 40 38 37 36 35 34 34
28 31 33 34 35 35 35 35 35 34 33 34 35 36 38 39 41 42 43 44 44 44 44 43 43 42 42 42 42 42 42 41 41 41 40 38 36 35 34 33 32 32
29 31 33 34 34 35 36 36 35 34 34 35 36 37 39 40 42 43 44 44 44 44 44 43 43 42 42 42 41 41 41 40 40 40 38 36 35 34 33 32 31 31
30 31 33 34 35 36 36 36 35 35 35 36 36 38 40 42 43 44 44 45 45 45 44 43 43 42 41 41 40 40 40 39 40 39 37 35 34 32 31 31 31 31
31 32 33 34 35 36 36 36 36 36 36 37 38 39 41 43 44 45 45 46 46 45 44 43 42 42 40 39 40 39 39 39 39 38 35 34 33 31 29 30 30 31
32 33 34 35 36 36 37 37 38 38 38 39 40 41 42 44 46 46 46 46 46 45 44 42 42 41 39 39 39 39 38 39 39 37 34 33 33 30 29 29 30 30
33 34 35 36 37 38 38 39 40 40 40 41 42 42 43 45 47 47 46 46 46 45 43 42 42 41 39 38 38 38 37 38 38 35 33 32 32 31 30 29 30 30
34 35 36 37 38 39 40 41 42 42 42 43 44 45 44 45 46 47 47 46 46 46 43 42 42 41 38 38 37 36 36 37 36 34 32 32 31 31 31 31 30 30
35 36 37 38 40 40 41 43 43 44 44 45 46 47 46 45 45 47 48 47 47 46 44 41 40 39 37 37 37 35 34 35 35 33 32 31 30 30 31 32 32 31
36 37 38 39 40 41 43 44 45 46 47 48 48 48 47 45 44 46 48 48 46 45 43 40 39 38 37 37 37 34 32 33 34 34 32 30 30 30 31 32 33 32
36 38 39 40 41 42 43 45 47 49 49 50 50 50 48 46 45 46 47 47 45 44 42 40 38 38 36 36 36 33 31 32 34 34 32 31 30 30 31 32 33 33
37 38 39 40 41 42 44 47 49 50 51 51 51 51 50 47 45 44 44 45 43 43 42 40 37 36 35 35 35 32 30 32 34 33 33 32 31 30 31 32 33 33
37 38 39 40 41 42 45 48 50 51 52 52 52 52 50 47 44 42 42 43 42 42 41 39 36 34 34 35 35 32 32 34 35 33 33 33 31 30 30 31 32 34
37 38 39 38 39 43 48 51 51 51 53 54 52 50 48 47 45 43 42 42 41 40 39 38 36 35 34 36 35 33 34 36 36 33 32 32 31 30 29 30 32 34

ECMWFNIL_500_spd_024.txt.gz
Wind_Speed
20 22 24 25 26 26 26 26 27 27 29 30 31 32 31 30 29 28 28 28 29 30 31 32 32 33 34 35 36 37 37 38 38 38 39 39 40 41 42 43 43 44
21 22 23 25 26 27 27 27 27 27 28 30 31 31 31 31 30 29 28 29 30 31 32 32 33 34 35 36 37 37 38 38 38 38 38 39 40 41 42 43 44 45
21 22 23 24 25 27 27 27 26 27 28 29 30 30 30 30 30 29 29 29 31 32 32 33 33 35 36 37 37 38 38 38 38 39 39 39 40 41 42 43 44 45
21 22 23 24 25 26 26 26 26 27 27 28 29 29 29 29 29 29 29 30 32 33 33 33 34 36 37 38 38 38 38 39 39 39 40 40 41 41 42 43 44 45
23 23 24 24 25 25 25 25 26 27 27 28 29 29 29 29 29 30 31 31 32 33 33 34 35 37 38 39 39 39 39 39 39 39 40 40 41 41 42 43 44 45
24 24 24 24 25 26 26 26 27 28 28 29 29 29 29 29 30 31 32 33 33 33 34 34 36 37 38 38 39 38 38 38 39 39 40 40 41 41 42 43 44 45
25 25 25 25 25 25 26 27 27 28 29 29 29 29 29 30 31 32 33 33 34 34 35 35 36 36 37 38 38 38 39 39 40 40 40 41 41 42 42 43 44 45
26 26 26 26 25 25 27 28 28 28 29 30 29 29 30 31 32 32 33 34 34 34 35 36 37 37 38 38 39 40 40 40 40 41 41 41 42 42 42 43 44 45
27 27 27 27 25 25 27 29 30 30 30 30 30 30 30 31 32 33 33 34 34 34 35 36 38 39 40 40 40 40 41 40 40 41 42 42 42 42 42 43 44 44
29 28 27 26 25 25 28 30 31 31 31 31 31 31 31 31 32 33 34 34 34 35 36 37 38 39 40 41 41 41 41 41 41 42 42 43 42 42 42 43 44 44
29 28 27 26 25 26 28 30 31 31 31 31 31 31 32 32 33 34 34 34 35 35 37 38 39 39 40 41 42 42 41 41 41 42 42 42 42 42 42 42 43 43
29 28 28 27 26 27 29 31 31 31 31 32 32 33 33 34 34 34 34 35 35 36 38 39 39 40 41 41 42 42 41 41 41 41 41 41 41 41 41 41 41 42
27 27 27 27 27 28 31 32 32 33 33 33 34 34 34 35 35 35 35 35 36 38 39 40 41 41 41 41 41 41 41 41 41 41 40 40 40 40 39 39 40 41
26 27 26 26 27 30 32 32 32 33 34 35 34 34 35 35 35 35 35 36 38 40 41 41 41 42 41 40 40 40 41 41 40 40 40 39 39 38 38 38 39 40
26 26 26 27 28 30 31 31 32 34 35 35 35 35 35 36 35 35 36 38 40 41 42 41 42 42 41 41 41 40 40 39 40 40 39 39 38 37 37 37 37 38
26 27 27 29 29 30 31 32 33 35 35 35 35 36 36 36 36 36 38 40 42 43 42 42 42 42 42 41 40 40 39 39 40 40 40 39 38 36 36 36 37 38
27 28 28 29 30 31 32 33 35 36 36 36 36 37 36 36 36 38 40 42 44 45 45 44 44 43 43 42 40 39 39 39 40 40 40 39 37 35 34 35 37 37
29 29 28 29 30 31 33 34 36 37 37 38 38 38 37 36 37 40 43 44 46 49 49 48 47 45 44 43 40 38 38 39 40 39 38 38 36 34 33 34 36 37
29 29 29 30 31 33 34 35 37 38 39 40 41 40 39 38 40 44 46 48 50 52 52 52 51 48 46 42 39 37 37 38 39 37 36 37 36 34 33 34 36 38
28 29 30 31 33 34 35 36 37 38 39 41 42 41 41 42 44 45 46 46 47 46 46 48 49 49 45 41 38 36 36 37 37 36 36 36 36 35 35 36 38 39
28 29 30 32 33 34 35 37 38 38 39 41 41 41 41 42 43 44 43 43 42 40 42 46 49 48 43 39 37 35 34 35 37 37 37 37 36 37 37 39 40 40
28 29 31 32 33 34 36 37 38 38 39 40 40 40 40 42 45 45 45 46 44 41 43 49 50 45 39 36 35 33 32 34 37 38 38 37 37 38 39 40 41 39
28 29 31 32 33 35 36 38 39 39 39 39 39 40 42 46 48 48 47 47 45 42 43 46 44 39 34 32 31 30 31 33 36 38 38 37 37 38 39 40 40 39
28 29 31 33 34 36 37 39 40 39 38 39 41 43 46 48 49 49 48 47 44 43 43 43 40 34 28 26 27 29 31 33 35 37 37 36 36 38 39 39 39 38
29 30 33 35 36 37 38 40 41 41 39 40 43 44 46 47 48 49 49 46 43 44 46 45 39 32 27 27 28 30 33 35 35 36 35 35 37 39 39 38 37 37
30 32 34 36 37 38 39 40 41 42 41 42 43 44 46 48 48 50 50 47 45 47 49 47 40 35 34 34 33 32 37 38 36 35 35 36 38 39 38 37 37 37

ECMWFNIL_500_spd_027.txt.gz
Wind_Speed
21 22 22 23 23 23 23 24 24 25 26 26 25 26 26 28 29 29 29 28 27 27 27 26 26 27 28 30 31 32 33 34 36 36 36 35 35 35 34 34 34 34
21 22 22 23 24 24 24 24 24 26 26 25 25 26 27 28 29 29 28 27 27 27 27 27 27 28 30 31 31 32 33 35 36 36 36 35 35 34 34 34 35 35
21 22 23 24 24 25 25 24 25 25 26 26 25 26 27 29 29 28 28 28 28 28 27 27 28 30 31 31 32 33 34 35 36 36 36 35 34 34 33 34 35 36
22 23 23 24 25 25 25 25 25 26 26 26 26 26 27 28 29 29 29 29 29 28 28 29 30 30 31 32 32 33 34 35 36 37 38 37 35 34 33 34 36 37
23 24 24 25 25 26 25 25 26 27 27 27 27 26 27 28 28 29 29 29 29 29 29 30 31 31 31 32 33 34 35 36 37 38 38 37 35 34 34 35 37 38
24 25 25 25 26 26 26 26 27 28 29 29 28 27 28 29 29 29 30 30 30 30 30 31 31 31 32 33 34 35 37 38 38 38 37 36 35 35 35 36 37 38
26 26 26 26 26 26 27 27 28 29 29 29 29 29 30 30 29 30 31 31 31 31 32 31 31 32 33 34 35 36 38 38 38 37 37 36 36 36 36 36 36 37
28 28 27 27 27 27 28 28 29 29 29 29 29 30 31 30 30 30 31 32 32 33 33 32 33 33 34 35 36 37 38 39 38 38 37 37 36 37 36 36 36 37
30 28 28 29 29 28 29 29 29 29 28 28 29 30 31 30 31 31 32 33 33 33 33 33 33 34 35 36 37 38 38 38 38 38 38 37 37 37 37 36 36 37
30 29 30 31 30 29 30 30 30 30 28 28 30 32 32 32 32 32 33 34 33 33 33 33 34 35 36 37 37 38 39 39 39 39 38 38 38 37 37 37 37 38
30 31 31 32 31 30 31 31 30 29 27 27 31 34 33 33 33 33 34 34 34 34 33 33 35 36 36 37 38 38 39 40 40 40 39 39 38 37 37 37 38 38
31 32 33 33 32 31 32 32 30 28 27 29 33 34 34 33 34 34 34 35 35 34 34 35 36 36 36 37 38 39 40 41 41 41 41 39 38 37 37 38 38 37
32 33 34 35 34 33 33 32 29 27 29 32 33 33 33 34 34 35 35 36 36 35 35 35 36 37 39 41 42 42 41 41 41 41 40 39 37 36 37 37 37 36
33 34 35 35 35 34 34 31 30 29 31 34 33 33 34 35 35 35 36 36 37 36 36 37 38 39 40 40 39 38 38 39 40 39 38 37 36 35 36 36 35 34
33 35 36 36 35 35 33 32 31 32 33 34 33 34 35 35 36 36 36 37 37 38 38 38 37 38 38 38 37 37 39 42 40 38 35 34 34 34 34 33 33 34
35 35 36 36 34 34 33 33 33 34 34 33 33 34 35 36 36 36 36 37 37 37 37 38 40 40 40 41 40 39 42 44 40 36 33 31 32 33 32 32 33 35
35 35 36 35 33 33 35 35 34 34 35 34 34 35 35 36 37 38 38 38 36 35 35 39 43 43 42 42 39 36 39 43 42 37 32 30 31 32 31 32 33 36
36 36 35 34 33 34 35 35 34 35 36 36 35 35 37 38 39 39 40 38 35 33 34 38 43 43 42 39 35 34 38 43 44 40 34 30 30 30 30 31 33 36
36 35 34 33 32 34 35 34 33 34 35 36 36 37 38 40 40 41 41 39 36 35 36 39 41 41 40 37 36 39 42 43 42 40 35 30 29 29 29 31 33 35
34 32 33 33 32 34 35 34 32 34 36 37 37 38 40 41 41 42 41 40 39 39 40 40 40 40 40 39 40 43 44 42 40 37 33 29 29 30 30 32 35 36
36 33 34 33 34 35 34 33 33 35 37 37 38 40 41 42 42 42 42 42 42 41 41 42 43 43 43 43 44 44 44 43 39 34 32 32 35 36 35 35 38 40
44 41 37 34 33 33 32 32 34 36 37 38 39 41 42 42 43 43 43 44 43 42 42 45 47 47 46 46 47 47 46 45 39 34 34 37 41 42 40 39 43 44
44 44 39 35 34 33 32 34 36 37 37 39 40 41 42 42 43 43 44 44 43 43 45 47 50 51 50 49 49 50 49 47 43 38 39 41 44 44 43 45 48 45
42 41 37 34 34 34 35 38 38 38 39 40 40 41 42 42 42 42 42 42 43 45 47 49 52 53 54 52 51 51 52 50 47 44 43 45 45 44 45 47 47 43
50 48 42 36 33 34 36 38 39 40 40 40 40 40 41 41 42 42 41 42 43 46 49 51 53 54 54 53 52 52 52 52 50 49 49 47 46 45 46 46 43 40
45 46 42 35 30 30 34 38 40 41 40 39 39 40 40 41 41 42 41 42 45 48 51 53 54 54 54 53 52 52 53 52 52 52 51 48 47 46 45 42 40 39

ECMWFNIL_500_spd_030.txt.gz
Wind_Speed
21 21 21 21 21 22 22 22 23 25 26 27 27 26 25 25 25 25 24 24 24 24 24 24 24 24 24 23 24 25 27 28 28 29 30 31 32 33 32 32 32 31
21 21 20 21 21 22 22 23 24 26 27 28 27 26 26 26 26 25 24 25 25 25 25 25 25 25 24 24 25 26 28 29 30 30 31 32 33 33 33 33 32 31
22 21 21 22 22 22 23 24 25 26 28 28 27 26 26 27 26 26 25 25 26 26 26 25 25 25 26 26 26 27 29 30 31 32 33 33 33 34 33 33 33 33
23 23 23 23 24 24 25 25 26 27 27 28 27 26 26 27 28 27 26 26 26 27 26 26 25 26 26 26 27 28 29 31 32 34 35 34 34 35 34 34 34 34
25 24 24 25 25 25 26 27 27 26 27 28 28 27 27 28 29 29 28 27 27 27 27 26 26 26 27 27 27 29 31 32 34 35 36 36 36 36 36 35 36 36
27 26 26 27 27 27 27 28 28 27 27 27 28 28 28 29 30 29 28 27 27 27 27 27 27 27 27 27 28 30 32 34 36 37 37 37 37 37 37 37 37 37
28 28 29 29 29 28 29 29 28 28 28 27 28 29 29 30 30 29 28 27 28 28 28 28 28 28 28 27 28 30 33 35 37 38 39 40 40 40 39 39 40 39
30 30 30 30 30 30 31 30 30 30 29 28 28 30 30 30 30 29 28 28 29 29 29 30 30 30 29 28 29 31 33 35 38 41 42 42 41 40 40 40 40 40
31 31 31 31 31 32 33 32 31 32 30 28 29 31 31 31 30 29 28 29 30 29 30 31 31 31 30 29 31 33 34 36 38 40 40 38 37 37 38 40 40 39
32 32 32 32 32 33 35 35 34 33 31 29 30 31 31 31 30 29 30 30 29 29 30 31 32 31 30 30 31 33 34 36 38 39 38 37 36 37 38 39 39 38
33 32 32 33 34 34 36 37 36 35 32 30 30 31 31 31 29 29 30 30 29 30 31 32 32 31 29 30 31 31 32 35 38 40 40 38 36 36 37 37 37 36
35 34 33 34 35 35 36 37 37 36 33 30 29 30 31 30 30 31 31 30 31 31 32 33 33 31 30 30 30 30 32 35 38 39 37 34 33 34 36 38 38 36
38 40 37 35 34 35 36 36 36 36 32 29 30 30 30 32 33 31 30 31 32 33 33 34 33 32 31 30 30 30 32 35 36 36 35 34 35 38 40 40 39 37
44 43 39 35 35 35 35 34 35 34 32 30 31 31 32 33 33 31 30 32 33 34 34 34 34 33 32 32 32 32 33 35 36 35 35 36 38 40 40 38 37 36
45 41 37 36 37 36 35 34 33 33 32 32 31 32 33 33 32 31 32 34 35 35 35 34 34 33 33 34 35 35 36 37 37 38 39 40 40 40 38 36 34 34
44 41 38 37 37 38 39 38 36 35 35 33 32 32 33 32 32 31 32 35 36 36 36 35 34 33 33 34 35 37 38 39 40 42 44 44 44 42 41 39 35 33
45 44 40 39 40 41 43 42 39 37 36 33 31 32 32 31 31 31 33 36 37 37 37 37 36 35 34 35 36 38 39 39 42 45 47 47 45 44 44 42 37 34
45 43 41 43 42 41 42 42 40 38 35 32 31 32 32 31 31 32 35 37 37 38 39 38 37 36 35 36 37 37 37 39 44 47 48 48 46 46 46 43 37 33
44 42 42 42 40 39 40 41 40 38 34 32 31 32 31 30 31 35 37 37 37 39 39 38 37 37 36 36 36 35 37 40 45 48 49 49 48 48 47 43 37 34
42 40 40 40 41 43 42 41 42 42 42 39 36 33 30 30 34 37 38 38 38 39 39 39 37 37 35 35 35 35 38 43 46 48 50 50 49 48 47 44 40 38
41 39 40 42 44 46 47 48 48 46 45 40 34 30 31 34 37 39 40 40 39 39 40 39 37 36 35 34 35 38 42 45 47 49 51 51 49 49 48 45 42 40
43 43 45 47 47 47 48 48 45 39 33 29 28 30 33 36 39 40 41 41 39 41 41 39 37 36 35 35 38 42 45 47 48 50 51 50 48 49 48 47 45 44
45 44 46 48 48 46 45 42 39 36 32 31 34 35 35 36 39 42 42 41 40 41 41 38 36 36 36 39 42 46 48 49 50 51 50 47 47 49 50 51 49 46
44 43 43 44 42 43 44 41 38 37 37 36 36 35 34 36 39 41 43 42 42 41 39 36 35 36 39 42 45 47 48 49 51 51 48 46 47 49 52 51 47 43
44 42 41 39 38 42 44 41 37 35 34 33 32 31 32 35 36 38 41 42 42 40 37 35 35 37 41 44 46 48 49 50 51 49 46 46 48 49 49 45 42 44
44 42 40 38 38 40 41 40 37 32 29 27 27 28 29 30 32 36 39 40 39 37 35 35 35 38 43 46 46 48 50 51 50 48 46 47 49 49 47 43 41 44

ECMWFNIL_500_spd_033.txt.gz
Wind_Speed
20 20 20 20 20 20 19 19 19 19 21 22 24 26 26 25 25 25 24 24 23 22 21 20 20 20 20 19 19 20 20 20 21 22 22 23 24 25 26 28 29 29
20 20 20 21 21 20 20 21 22 22 22 24 25 27 27 26 26 26 25 24 23 23 22 21 21 21 20 20 20 21 21 21 22 22 23 23 24 26 27 29 31 31
21 21 22 22 21 21 21 22 23 23 24 25 26 27 27 26 26 26 26 25 23 23 22 21 21 21 20 20 21 22 22 22 23 24 24 24 25 26 28 30 32 32
22 22 22 23 23 23 23 23 25 25 26 27 27 27 27 26 26 27 27 26 24 23 23 22 21 22 21 21 21 22 23 23 24 25 25 25 25 27 28 29 30 30
21 22 23 24 24 24 24 25 27 27 27 28 28 27 26 26 27 28 28 27 25 24 23 22 22 23 23 22 23 24 24 24 25 25 25 24 25 27 29 30 30 30
22 23 23 24 25 26 26 27 28 28 29 29 29 28 26 25 27 28 29 29 27 25 24 22 23 24 24 23 23 25 25 25 25 25 24 24 25 28 30 31 31 30
22 22 22 23 25 26 27 28 29 29 29 30 30 29 26 25 27 27 29 30 28 26 24 23 24 24 24 24 24 25 26 26 26 25 24 24 25 28 30 30 29 28
21 20 21 23 24 25 27 29 30 30 30 30 30 30 28 26 27 27 29 31 29 27 25 25 25 25 25 25 25 26 26 26 26 25 24 24 25 28 28 28 27 28
24 23 23 24 25 26 27 29 31 31 32 31 31 32 30 27 27 27 30 31 30 28 27 26 27 26 26 26 26 27 27 27 26 26 25 25 25 26 27 28 28 29
31 29 26 27 28 27 28 32 33 32 32 33 33 33 31 29 28 28 30 31 30 28 28 29 29 27 27 27 28 28 28 28 28 27 26 27 27 28 29 30 31 32
35 34 32 32 33 31 31 34 36 34 33 33 33 33 33 33 32 31 31 30 29 28 30 30 29 27 28 28 29 30 30 30 29 29 29 29 30 31 31 33 34 35
33 33 34 34 35 38 38 38 37 38 39 38 35 33 34 35 35 34 32 30 29 29 30 29 27 27 29 29 29 30 31 31 31 31 31 31 32 33 33 34 36 38
29 30 32 33 34 37 39 39 41 42 42 39 37 37 37 37 35 34 32 31 30 30 29 28 28 29 30 30 30 31 32 32 32 32 32 33 33 34 34 35 38 40
30 34 36 34 33 33 33 36 41 43 42 40 39 40 41 39 37 35 33 32 31 31 29 29 30 31 31 31 31 32 32 32 33 33 34 34 34 33 34 36 38 40
34 38 42 40 37 34 34 36 37 38 39 40 41 42 41 39 39 38 35 33 32 30 30 31 32 33 33 32 31 32 32 33 34 35 34 34 33 33 34 37 40 41
35 39 43 42 39 36 36 38 38 36 35 36 38 40 40 40 41 39 35 33 31 30 31 33 34 35 35 34 32 32 33 34 35 35 35 33 32 33 36 38 40 42
36 38 41 39 36 34 33 34 33 33 34 35 36 37 37 39 40 37 33 32 30 30 32 34 35 36 37 35 33 33 33 34 35 36 35 33 32 35 38 39 41 44
38 39 41 40 39 36 32 30 31 33 35 36 37 36 36 37 37 35 33 33 34 34 34 34 35 37 38 36 35 34 34 35 35 35 34 33 34 37 39 41 44 45
41 41 42 44 44 38 31 29 30 33 35 36 36 35 34 34 35 35 35 35 35 35 34 34 36 38 38 37 36 35 35 35 35 35 34 34 36 39 41 43 45 47
42 43 44 45 43 38 34 33 34 34 35 35 34 33 33 33 33 32 30 28 29 30 32 35 37 38 39 39 37 36 36 37 36 36 35 36 38 40 42 45 48 49
43 44 47 46 42 40 39 39 39 36 33 32 33 33 33 31 28 25 23 24 25 27 31 34 37 38 39 39 38 36 36 37 37 37 37 37 39 41 45 48 49 47
45 46 48 47 44 41 39 37 36 33 31 31 33 33 32 29 26 24 24 24 25 26 29 33 36 37 38 39 38 37 36 36 37 38 38 39 41 44 47 49 48 46
47 48 50 48 43 41 39 35 32 32 32 32 33 33 31 28 27 26 26 25 24 24 25 28 32 35 37 39 39 37 36 37 38 39 40 42 44 47 49 49 48 48
49 50 51 49 44 42 39 34 32 34 34 33 34 33 29 27 28 29 27 26 25 24 25 27 31 34 37 39 39 37 36 37 39 40 41 44 46 49 51 50 49 49
49 50 51 50 45 41 37 35 35 36 34 32 33 32 28 26 27 27 27 27 26 26 27 30 34 36 38 38 37 36 36 37 39 41 42 46 49 51 51 49 48 48
50 50 50 48 43 39 36 35 35 35 34 33 31 29 27 27 27 27 29 29 27 28 31 33 36 38 39 38 35 35 37 38 40 41 45 50 52 52 50 48 48 48

ECMWFNIL_500_spd_039.txt.gz
Wind_Speed
20 20 20 20 19 18 18 18 18 18 18 18 18 19 19 19 20 21 22 23 24 23 22 21 21 21 21 22 22 21 21 20 20 19 19 20 20 20 20 20 20 21
21 20 20 20 19 19 19 19 19 19 19 18 19 20 20 20 21 22 23 24 25 24 24 24 22 21 21 22 23 22 22 22 21 21 20 20 21 21 21 21 21 21
22 21 20 21 20 20 20 19 19 19 19 19 19 21 21 22 23 24 24 25 25 25 25 25 25 23 22 23 23 23 23 23 23 23 22 22 22 22 22 22 21 21
21 21 21 21 20 20 19 18 18 19 18 18 19 21 22 23 24 25 26 26 26 26 26 27 27 26 25 24 24 24 24 24 24 24 23 23 24 24 24 23 22 21
20 20 20 20 18 17 17 17 18 18 18 19 22 24 24 25 27 28 29 29 29 28 28 28 28 29 29 27 26 26 26 25 25 25 24 24 25 25 26 25 23 22
18 18 17 16 15 16 17 18 19 19 20 22 24 25 26 28 29 30 31 32 32 32 32 31 31 31 31 30 30 28 27 27 27 27 26 26 27 27 27 26 25 24
17 16 15 15 15 16 17 18 19 19 21 24 25 25 27 29 31 31 31 31 31 32 33 34 34 33 31 32 32 31 31 31 31 30 29 29 29 29 28 28 27 26
16 15 15 15 16 17 18 17 17 18 20 22 23 23 25 27 29 30 30 30 30 31 32 33 34 34 34 36 36 34 33 33 33 31 31 31 31 31 30 29 28 27
15 15 16 17 17 18 17 16 16 18 19 21 23 23 24 26 27 28 27 28 28 29 29 30 31 32 35 37 38 36 34 33 32 31 31 32 32 31 30 29 29 29
16 16 17 17 18 18 17 15 16 18 20 22 25 25 25 27 28 27 26 26 27 27 29 30 30 30 31 34 36 35 34 33 32 30 31 31 31 31 31 30 30 30
17 17 17 17 18 18 17 16 17 19 22 25 27 26 26 27 28 28 26 26 28 29 30 31 31 30 29 30 32 33 33 34 33 31 30 30 30 31 32 31 31 31
18 18 18 18 17 17 16 17 18 20 22 25 27 28 28 28 29 29 28 28 30 30 32 33 33 32 31 31 31 30 31 34 34 32 31 30 30 31 32 33 32 32
17 16 16 16 16 16 17 19 19 21 23 25 26 28 29 30 30 31 30 31 32 32 33 34 34 34 32 31 31 29 29 31 33 32 31 30 30 30 32 33 33 32
15 14 14 15 15 17 20 21 20 21 24 26 28 29 30 30 31 31 32 34 34 35 36 35 34 34 33 33 32 30 28 29 31 32 31 30 29 29 31 32 32 33
15 15 15 15 16 18 20 22 22 23 25 27 30 31 32 32 32 32 33 35 37 38 38 36 35 34 33 34 35 33 29 28 30 32 31 29 29 30 32 32 32 34
15 15 15 16 16 17 19 21 23 25 27 30 32 34 35 35 34 34 34 36 38 40 41 38 35 34 35 36 37 35 31 29 31 33 31 30 31 32 33 32 33 35
14 15 16 18 19 19 20 22 24 27 29 32 34 37 38 39 38 38 37 37 38 41 42 39 35 35 37 38 39 38 35 31 31 32 32 31 31 31 31 31 32 33
16 17 18 20 22 24 25 26 27 29 31 34 36 39 40 41 41 40 40 40 39 39 40 38 35 35 37 38 40 41 38 35 33 32 31 28 28 29 29 30 31 32
20 21 22 23 25 27 28 29 30 32 33 36 38 40 42 43 43 42 41 41 40 38 38 36 35 36 37 39 41 41 40 38 34 30 26 25 26 28 29 30 31 32
23 24 25 26 28 29 30 32 33 34 36 38 40 42 43 44 44 42 41 42 41 38 37 35 35 38 39 40 41 41 41 39 35 28 24 24 27 28 30 32 33 33
26 27 28 29 30 32 33 34 36 37 39 40 41 43 44 44 44 43 42 43 42 39 37 36 35 38 39 40 42 43 41 40 37 31 27 26 28 29 31 33 34 34
29 30 31 32 33 35 36 38 39 40 41 42 44 45 45 43 44 44 45 46 44 40 38 37 36 36 37 39 43 44 42 40 39 35 31 30 30 31 33 35 35 35
31 32 33 35 36 38 40 41 42 43 44 45 46 47 45 44 44 46 48 48 45 39 37 37 36 35 36 40 43 45 43 42 41 39 36 34 34 34 36 37 36 35
33 34 36 38 39 42 44 44 45 47 48 48 48 47 46 46 47 49 50 47 42 38 37 37 37 37 37 40 44 45 45 44 45 43 40 39 39 39 39 41 41 40
36 37 39 41 43 45 46 46 48 50 51 51 51 49 47 48 49 48 44 38 36 37 37 37 39 38 38 41 44 45 45 46 48 48 44 40 39 41 43 45 45 45
39 39 41 43 46 48 48 48 50 52 52 53 53 50 49 51 49 42 35 31 32 35 36 37 39 39 39 40 41 42 45 48 49 48 43 39 38 40 43 45 46 48

ECMWFNIL_500_spd_042.txt.gz
Wind_Speed
19 20 20 20 20 20 19 18 16 15 16 16 16 15 16 16 17 18 20 20 20 22 23 24 23 23 23 23 23 23 24 25 24 24 24 23 23 22 22 22 23 23
20 21 21 21 21 20 19 18 17 16 16 15 14 15 15 17 19 19 20 22 22 23 25 26 26 26 26 26 26 26 26 26 26 25 25 24 23 23 23 24 24 24
21 22 21 20 20 20 18 17 16 16 15 14 14 14 16 18 19 19 20 22 23 24 25 25 26 26 27 28 29 30 30 29 28 28 27 26 25 24 24 24 25 25
21 20 20 19 18 17 16 15 15 14 14 14 15 15 17 19 19 20 21 22 24 25 25 24 24 25 26 28 29 30 31 32 32 31 29 29 27 25 25 26 26 27
18 18 17 16 14 14 13 13 13 13 13 14 15 15 17 18 19 20 21 22 24 24 24 24 24 25 25 27 28 29 30 31 33 32 31 31 30 28 27 28 29 30
15 15 14 13 13 12 12 11 11 12 12 12 13 14 15 17 18 19 20 23 24 24 24 24 25 25 25 27 28 29 30 30 30 31 31 32 32 31 30 30 31 32
14 14 14 13 12 11 11 11 12 14 14 13 12 12 14 16 18 18 19 23 24 24 25 25 26 26 27 28 29 29 30 29 28 29 30 31 32 32 31 30 31 32
13 13 13 12 11 11 11 12 13 14 14 13 12 13 15 17 19 20 21 23 25 25 25 25 27 29 29 30 31 31 32 32 31 30 30 29 30 31 30 30 31 30
12 13 12 12 11 12 13 14 14 13 13 13 12 13 15 17 19 21 22 23 25 26 27 26 27 30 31 31 32 33 34 35 34 33 32 29 28 30 32 32 32 30
11 12 12 12 12 14 15 15 14 13 13 14 14 14 16 19 20 22 24 25 26 27 29 30 30 32 34 33 33 34 34 35 35 35 33 30 28 30 32 32 32 32
11 11 12 12 13 14 15 14 13 14 15 16 17 17 18 20 22 24 26 27 28 28 30 32 33 34 36 37 37 36 35 35 36 36 35 32 30 31 32 32 33 33
12 12 12 13 13 13 13 13 13 14 15 17 19 20 20 21 24 26 27 29 30 31 32 34 35 35 36 39 40 39 38 37 36 36 34 33 32 32 33 34 34 35
13 13 12 12 12 11 12 12 13 14 15 17 19 21 22 23 25 27 29 31 33 34 35 36 36 36 37 39 41 41 40 39 38 36 35 34 33 33 34 35 35 35
15 14 13 12 11 11 12 12 13 14 14 15 18 21 24 25 26 28 31 33 35 37 38 38 38 38 38 39 41 42 40 39 39 37 37 37 35 33 35 36 37 37
16 14 13 13 11 11 11 11 12 13 14 15 18 21 24 27 27 29 31 34 36 38 39 40 40 39 39 40 42 43 42 40 39 38 38 38 37 35 36 37 38 40
17 15 14 13 11 10 10 12 14 16 18 20 22 24 26 28 30 31 32 35 37 39 41 42 41 39 39 41 42 43 43 42 40 38 38 39 39 38 38 38 40 42
17 16 15 13 12 12 13 16 19 22 24 26 27 28 30 32 33 34 34 36 39 42 44 44 42 41 40 42 43 43 44 42 40 39 40 41 41 40 39 40 41 42
17 17 15 15 16 17 18 20 22 25 28 29 30 31 33 35 37 37 38 38 40 43 45 45 44 42 42 45 45 45 45 42 40 41 42 42 42 41 40 40 42 43
18 18 17 17 19 20 21 22 24 27 29 31 33 34 35 37 37 38 40 41 41 43 45 46 44 43 47 49 47 47 46 43 41 43 43 42 42 42 41 40 42 45
19 19 19 20 21 22 23 25 26 28 31 33 35 36 38 38 38 39 41 43 44 45 46 47 46 46 51 52 50 49 46 41 41 43 43 42 42 43 42 42 43 45
20 21 22 22 23 24 25 26 28 30 32 34 36 38 41 41 42 44 45 46 47 47 47 48 48 49 53 54 52 50 43 38 39 42 42 42 42 43 43 44 45 46
22 23 24 24 25 26 27 28 30 31 33 36 38 40 42 43 44 47 48 49 50 50 50 51 49 50 53 53 49 44 39 36 38 40 41 42 42 43 43 44 45 47
25 26 27 28 29 29 30 31 32 33 35 37 39 41 44 46 47 48 50 52 53 52 53 52 50 50 53 50 44 39 37 37 39 41 42 43 43 43 43 42 44 48
29 30 31 33 33 33 33 34 34 35 36 38 40 43 46 48 49 50 51 52 52 52 52 52 51 52 51 46 39 36 37 38 40 41 43 43 43 43 42 42 44 49
32 34 36 38 38 39 39 38 36 37 38 39 42 45 48 49 49 50 52 51 51 52 52 51 51 50 47 43 39 38 38 38 39 41 42 42 42 42 43 43 43 45
37 39 41 42 43 44 44 41 39 39 40 41 43 46 48 49 49 50 51 51 51 52 50 48 47 45 43 42 42 41 40 40 41 42 41 41 42 43 43 43 43 44

ECMWFNIL_500_spd_045.txt.gz
Wind_Speed
15 15 15 15 14 15 16 16 14 13 12 12 12 12 11 11 12 12 13 15 16 16 16 17 18 19 18 18 20 22 23 23 23 24 24 24 24 24 25 25 25 25
16 16 16 16 15 16 16 15 12 11 12 11 11 11 11 11 12 13 14 14 13 14 15 16 17 18 18 18 19 22 23 24 24 24 24 23 22 23 24 25 25 26
17 17 17 16 16 15 14 12 10 9 9 9 9 10 11 11 12 13 14 13 12 13 15 16 17 18 19 19 19 21 23 24 25 26 26 24 22 21 22 23 24 25
17 17 16 16 15 13 11 10 8 7 6 7 8 10 10 10 10 11 13 13 13 14 16 18 19 19 20 20 21 22 23 25 27 28 29 27 24 23 23 23 24 25
14 14 14 13 12 10 9 8 7 5 6 6 7 9 10 10 11 12 13 14 14 16 18 19 20 21 21 22 22 23 25 26 28 29 30 29 27 24 23 24 25 25
12 12 12 11 10 9 8 7 6 6 6 6 7 9 10 11 12 13 14 15 16 17 19 20 21 22 23 23 24 25 26 27 29 30 30 30 29 26 25 25 25 25
11 11 12 10 9 8 8 7 6 6 6 7 8 8 9 11 12 13 15 16 18 19 20 21 22 23 23 24 26 27 27 29 30 32 32 32 30 29 27 26 25 25
10 11 11 10 8 8 8 7 6 6 6 8 9 9 9 10 12 14 16 18 19 20 21 22 23 24 24 26 27 29 29 29 31 33 34 33 32 30 28 26 25 26
10 11 10 9 8 8 8 7 7 7 7 8 8 9 10 11 13 15 17 19 20 21 22 23 24 26 27 28 30 31 30 30 32 33 34 34 32 31 28 26 26 27
10 11 10 9 9 8 8 7 8 8 8 8 8 9 11 13 15 16 18 19 21 22 24 26 27 29 30 32 32 33 33 32 32 33 35 35 33 31 30 28 27 28
10 10 10 9 9 9 8 8 9 9 9 9 9 9 11 14 15 16 17 19 21 23 26 28 30 31 33 34 34 34 34 33 32 33 35 36 35 33 31 30 29 29
11 11 10 10 10 10 9 8 8 8 9 10 10 10 10 12 14 16 17 19 21 24 26 28 31 33 35 36 35 36 36 34 33 34 35 38 38 35 32 31 30 29
12 12 12 11 11 11 9 8 8 8 10 11 11 9 9 11 14 17 19 21 23 25 27 29 32 34 36 37 36 37 38 36 35 35 36 39 40 39 36 33 31 30
13 14 13 12 12 11 10 9 9 9 10 10 9 10 11 14 16 19 22 24 26 28 29 30 33 36 38 39 39 39 39 38 38 38 38 40 42 42 41 37 34 33
16 16 14 14 13 11 11 12 11 10 9 8 10 13 16 18 19 21 24 26 29 31 32 33 35 38 40 42 42 42 42 41 41 42 40 41 43 43 42 41 38 35
18 18 16 15 14 13 13 14 13 11 10 10 12 15 18 20 21 22 25 27 29 31 33 34 37 39 41 43 45 47 47 46 45 44 42 41 43 41 39 40 38 35
19 19 19 17 15 15 16 15 14 13 13 14 14 16 19 21 21 23 25 27 27 29 32 35 38 41 42 44 47 49 49 47 44 42 41 42 42 39 37 37 36 34
21 20 20 19 17 16 17 17 16 16 16 17 17 18 20 22 22 24 26 27 28 29 32 35 38 41 44 45 47 48 47 44 41 40 41 42 41 38 34 33 33 34
22 21 20 20 18 18 19 18 17 18 18 19 20 21 23 24 24 26 28 30 30 31 34 37 39 42 45 46 48 49 47 43 41 40 39 40 39 36 33 32 33 35
22 21 21 20 20 20 20 19 18 19 20 22 23 24 26 26 27 28 31 32 32 33 36 39 41 43 45 46 48 50 48 44 40 39 38 38 37 35 34 33 34 37
22 22 22 21 21 21 21 20 20 20 22 24 26 27 29 29 29 30 33 34 35 36 38 41 42 43 45 46 48 50 48 43 40 39 37 36 36 35 36 36 37 39
23 23 23 22 22 22 21 21 21 21 23 26 28 29 31 31 31 33 35 36 37 38 40 42 43 44 45 46 47 49 46 42 40 39 37 36 37 37 38 38 39 41
24 24 24 23 23 22 22 23 23 24 27 29 30 32 34 34 34 36 37 38 38 40 41 43 44 45 45 46 47 48 47 44 43 41 39 38 39 40 41 41 40 41
24 25 24 23 23 24 25 26 27 28 31 32 33 36 37 37 39 40 40 39 40 42 42 43 44 45 46 47 47 47 47 46 45 43 40 40 41 42 43 43 42 41
25 25 25 24 25 27 28 29 31 32 34 35 37 39 41 42 43 43 42 42 43 43 43 43 44 45 47 47 47 47 47 47 46 44 42 42 42 43 45 45 43 42
27 27 27 27 29 30 31 32 34 35 36 38 40 42 44 45 46 44 43 43 45 45 44 43 44 46 47 48 48 47 47 46 46 45 45 44 43 43 44 44 43 43

ECMWFNIL_500_spd_048.txt.gz
Wind_Speed
16 15 15 15 14 13 13 13 13 14 13 12 11 10 8 7 6 7 8 9 9 10 9 10 11 12 13 14 15 15 15 16 17 19 20 20 20 20 20 19 18 17
18 17 17 16 16 15 14 14 14 14 14 12 10 9 7 5 5 6 8 9 9 9 9 10 11 13 14 15 16 16 16 17 19 20 22 23 22 22 21 21 20 20
20 19 18 18 18 17 16 14 14 14 13 11 9 7 5 4 4 5 6 8 9 9 10 11 13 14 14 15 16 16 17 18 20 22 23 24 25 25 24 23 23 23
21 20 20 20 19 18 16 14 14 14 12 10 9 6 4 4 4 5 5 7 9 10 11 12 14 14 15 16 17 18 18 19 21 23 24 25 26 26 26 26 25 24
20 20 20 20 19 17 16 15 13 13 12 10 8 6 4 4 4 5 6 7 9 11 12 13 14 15 16 17 18 19 20 20 21 23 25 25 25 26 26 26 27 26
20 20 20 19 18 17 15 14 13 12 12 11 8 6 5 4 5 5 7 8 10 12 13 14 15 16 18 19 19 20 20 21 22 24 25 25 25 25 25 26 28 28
19 19 19 19 18 16 15 14 13 13 12 10 8 6 5 5 5 6 8 9 11 13 14 15 16 17 19 21 21 21 22 22 24 25 26 26 26 26 26 27 28 29
18 19 19 18 17 15 15 14 14 13 12 10 8 7 6 6 6 7 9 11 12 13 14 16 17 19 21 22 22 22 23 24 24 25 26 27 27 28 28 29 29 30
17 18 18 17 16 16 15 14 14 14 12 10 8 8 7 7 8 9 10 12 12 13 15 16 18 20 21 21 21 22 24 24 24 25 26 27 28 30 30 30 30 31
16 17 17 16 16 16 16 15 15 14 11 10 9 8 9 9 9 10 11 11 12 14 15 17 19 20 20 20 22 23 25 26 26 27 28 28 29 30 30 30 30 31
16 16 16 16 16 16 16 16 15 13 12 11 10 10 10 10 11 11 11 11 12 14 16 18 19 19 20 21 23 25 27 28 29 30 29 29 28 29 29 30 30 31
15 15 15 16 16 16 17 17 15 14 13 12 11 12 12 12 12 11 10 11 13 15 17 19 20 20 21 23 24 26 28 30 32 32 31 30 30 30 29 30 31 32
14 14 16 17 17 18 18 17 16 15 14 14 14 14 13 13 12 11 10 12 14 16 18 20 21 22 23 25 26 26 29 32 34 33 32 32 33 32 30 30 31 32
15 15 16 18 19 19 18 17 16 15 15 16 16 15 14 13 12 11 12 13 16 18 20 21 22 23 25 26 27 27 29 32 34 34 33 33 33 31 30 30 31 32
17 17 17 18 19 18 17 16 16 17 17 17 17 16 15 13 12 12 12 14 17 20 21 23 24 25 26 28 30 30 31 33 33 33 33 33 34 32 30 30 30 31
21 20 19 19 18 18 17 18 18 19 19 18 18 17 15 13 13 13 13 15 19 21 23 25 26 27 29 31 33 34 35 33 32 33 33 32 34 33 31 30 29 30
24 23 22 21 19 18 19 20 21 21 20 20 20 17 15 14 14 14 15 17 20 22 24 26 28 29 31 34 37 39 38 33 30 32 33 32 33 32 31 30 29 29
26 26 24 22 21 20 20 22 23 22 21 21 20 18 16 16 15 15 17 19 21 23 26 27 28 31 34 37 40 41 37 33 33 34 34 33 33 32 31 30 29 29
27 28 27 25 23 22 23 24 25 24 23 22 21 20 19 18 17 18 19 21 23 25 27 27 29 32 35 37 41 41 38 36 37 36 34 34 34 33 32 31 31 31
29 29 28 27 25 25 25 25 26 25 25 24 23 21 20 19 19 19 20 23 25 27 27 28 31 34 36 36 38 41 43 42 38 35 35 37 36 34 35 34 34 33
31 31 30 29 28 27 27 26 26 26 26 26 24 22 21 21 21 21 22 25 27 28 29 30 33 35 36 36 37 39 44 44 41 40 41 40 38 38 39 38 37 36
32 32 32 31 31 29 28 27 27 27 27 27 25 23 23 22 21 22 23 26 28 30 31 33 35 36 36 38 39 40 43 45 46 46 45 43 43 43 43 42 41 39
34 34 34 34 33 31 30 28 27 27 27 27 27 25 24 23 22 23 25 28 29 32 33 35 36 38 39 41 42 44 46 46 46 45 45 45 45 45 45 44 43 41
35 35 36 35 34 33 31 29 28 28 28 28 28 26 25 25 24 25 27 29 31 33 34 36 38 40 42 44 46 47 48 46 43 43 43 44 44 45 46 45 44 43
37 36 37 37 36 35 33 30 29 29 30 30 29 28 27 27 26 26 28 29 31 32 34 37 39 41 45 46 44 43 42 40 39 40 42 43 44 45 45 45 45 44
39 38 38 38 37 37 35 32 30 31 32 31 30 29 29 27 27 27 28 29 30 32 35 37 39 42 43 41 37 36 36 37 38 40 42 44 45 45 46 47 46 44

ECMWFNIL_500_spd_051.txt.gz
Wind_Speed
16 15 16 16 16 16 16 16 16 16 16 16 16 15 12 10 7 5 4 3 3 4 5 6 7 9 11 12 13 13 14 15 16 17 17 18 19 19 19 18 18 19
19 18 18 18 18 17 17 17 18 18 17 18 17 15 13 9 7 6 5 4 4 4 4 6 8 10 11 12 13 14 15 15 15 15 16 17 17 17 17 17 17 18
21 20 19 19 20 20 20 20 20 19 18 18 18 16 12 9 8 7 6 5 5 4 4 6 9 10 12 12 12 13 13 13 12 13 15 16 16 16 16 17 17 18
23 22 22 22 22 23 22 21 20 20 19 19 18 16 12 10 9 8 8 6 6 5 5 7 9 11 11 11 10 10 10 10 11 12 14 15 15 16 16 17 18 18
26 25 25 25 25 25 23 21 21 21 21 20 18 15 13 12 11 10 9 8 7 7 6 8 10 10 10 10 9 9 9 10 12 13 14 15 16 16 17 18 19 19
28 27 27 26 26 25 23 22 23 23 22 20 18 16 15 13 12 11 10 10 9 8 8 9 9 8 8 9 9 9 10 11 12 14 15 16 17 18 19 20 21 22
28 28 28 27 26 25 24 24 24 23 22 20 18 17 16 15 13 12 11 11 11 10 9 9 8 7 8 9 9 10 12 12 13 15 17 19 20 21 22 23 23 23
26 27 27 27 26 25 25 24 23 23 22 20 18 18 17 16 14 13 12 12 12 12 10 9 8 8 10 10 10 12 13 14 15 16 18 20 21 22 23 23 23 23
24 25 25 25 25 24 23 23 22 23 22 20 20 20 18 17 16 14 14 14 14 13 11 9 9 11 12 12 12 13 15 16 17 18 20 21 21 21 22 22 22 22
21 21 22 22 21 21 21 22 23 23 22 21 22 21 19 18 17 15 15 15 15 14 11 9 11 12 13 13 14 15 16 18 19 20 21 21 21 22 23 23 23 22
18 18 19 19 19 20 21 22 23 23 22 23 23 21 20 20 18 17 17 17 16 14 11 11 12 14 14 15 15 16 18 20 21 21 22 22 23 24 25 25 25 24
17 17 18 18 18 19 20 22 23 23 23 24 23 22 22 20 19 19 19 18 16 14 12 12 13 15 16 17 17 18 20 22 23 23 22 22 24 26 26 24 24 25
16 16 16 17 18 19 20 22 23 24 24 25 24 23 22 21 20 20 21 19 17 15 13 13 13 16 18 19 19 20 22 24 24 24 22 21 22 25 24 22 22 24
16 16 16 17 18 20 21 21 23 24 25 25 25 23 23 22 21 22 22 19 16 15 14 13 14 16 19 21 22 22 24 25 25 24 21 20 22 25 23 21 22 23
19 19 18 18 18 19 20 21 23 24 25 26 25 24 24 24 24 24 22 19 17 16 15 14 15 18 20 23 25 26 26 27 26 25 23 23 24 24 22 22 23 24
21 21 21 21 19 19 19 20 23 25 25 25 25 25 25 26 26 25 22 20 19 18 16 15 17 19 21 23 26 28 29 28 28 29 29 26 25 23 23 23 24 25
23 23 24 24 22 21 20 20 22 24 25 26 26 27 27 27 27 25 23 22 20 19 17 17 18 19 21 23 26 30 30 29 31 33 31 27 24 24 26 26 25 26
24 25 25 25 25 24 23 22 22 23 24 26 27 27 28 28 28 26 25 24 22 20 18 18 19 20 22 23 26 31 33 32 34 35 30 27 27 28 29 28 25 26
26 26 27 27 26 26 26 26 25 23 23 25 28 29 29 29 29 28 26 25 23 21 19 20 20 21 22 23 27 32 35 36 36 34 31 30 29 28 28 26 24 26
28 28 28 28 28 28 29 28 28 26 23 24 27 30 30 30 30 29 27 25 24 22 21 22 22 21 22 23 28 33 37 40 38 32 33 34 28 24 26 25 25 27
29 29 30 30 31 31 32 31 29 28 26 25 26 29 31 31 30 30 28 26 25 25 24 23 23 23 23 24 29 32 36 42 39 33 34 35 27 24 26 26 27 28
31 31 32 33 33 33 33 33 32 31 30 27 26 28 31 32 32 32 31 28 28 27 26 25 24 24 24 25 29 32 36 40 40 38 37 33 26 25 28 28 30 32
33 33 35 36 36 35 33 34 34 33 32 30 28 28 31 32 33 34 33 31 31 29 28 26 24 24 25 26 29 34 38 38 39 40 39 33 31 32 32 33 34 35
35 36 37 39 39 36 33 34 35 35 34 33 31 30 30 32 34 36 37 35 33 31 28 27 26 25 26 27 30 35 39 38 36 38 38 36 37 38 36 36 38 38
36 37 39 41 41 39 35 34 35 36 37 36 35 33 32 33 35 38 38 37 34 32 30 28 27 26 26 27 31 34 38 39 37 36 37 36 37 38 37 38 40 40
38 39 40 41 43 41 39 37 37 38 39 39 38 36 35 35 37 38 39 38 36 34 32 30 29 27 26 28 31 33 36 40 40 36 35 35 35 36 38 39 41 41

ECMWFNIL_500_spd_054.txt.gz
Wind_Speed
16 15 15 16 16 16 15 14 13 14 14 14 14 15 15 15 15 13 11 9 8 8 7 5 5 5 5 6 7 9 10 11 11 11 11 12 12 13 13 13 13 13
17 16 16 17 17 17 16 16 16 15 15 16 16 16 17 17 16 13 11 11 10 9 7 6 5 5 5 6 8 9 10 10 10 11 11 12 12 13 14 15 15 15
18 17 17 18 18 18 19 19 18 17 17 17 17 17 18 18 17 14 12 12 11 10 8 7 6 5 6 7 8 9 9 9 10 10 11 12 13 14 15 16 16 17
20 19 19 19 20 21 21 20 20 19 18 18 18 19 20 19 17 15 14 14 12 11 9 8 7 6 6 7 9 9 9 9 9 10 12 13 14 14 15 15 16 17
22 21 21 21 22 22 22 21 21 21 20 20 20 21 21 19 18 16 16 15 13 12 10 9 8 7 7 8 9 8 8 9 10 11 11 13 13 13 14 15 16 16
23 23 23 23 23 23 22 21 22 22 22 22 22 22 22 20 18 17 18 16 14 13 12 11 9 9 9 8 8 8 8 9 10 10 10 12 12 12 14 15 17 17
23 24 24 25 25 24 23 23 23 23 23 24 23 23 22 20 18 18 19 17 15 14 13 12 11 11 10 9 9 9 9 10 10 10 10 11 11 12 14 16 17 17
22 24 25 26 26 25 24 24 25 25 25 25 24 23 23 21 19 20 20 18 17 16 15 14 13 12 12 10 9 9 9 10 10 10 10 11 11 12 14 16 16 17
21 22 24 24 25 25 25 25 26 26 27 26 25 24 23 21 20 21 20 19 18 17 16 15 14 14 13 11 9 9 10 10 10 10 11 13 13 12 13 15 16 17
18 19 20 21 22 24 24 25 26 27 27 26 25 24 22 21 22 22 21 19 19 19 18 17 16 15 15 12 10 9 9 9 10 11 13 14 14 13 13 16 18 18
15 16 17 18 20 21 23 25 26 26 26 24 24 22 21 21 22 22 21 20 20 21 20 19 18 17 16 14 11 10 9 9 10 12 14 16 15 14 15 17 19 19
13 14 15 16 18 19 20 22 23 24 23 22 22 22 21 22 22 23 21 20 22 23 22 20 19 18 18 16 13 11 10 10 11 13 15 17 17 18 20 21 21 20
11 11 13 14 16 17 18 19 20 20 20 20 21 21 21 22 22 23 22 22 24 24 23 21 20 19 19 18 16 13 12 12 13 14 16 18 19 21 23 23 22 20
10 10 10 12 13 14 15 16 18 18 18 19 19 20 21 22 23 23 23 24 25 25 24 22 21 20 20 20 18 16 16 15 14 15 17 19 21 24 25 23 21 20
11 11 11 12 13 13 13 14 15 17 18 18 18 19 21 23 24 24 25 25 25 26 24 22 22 21 21 21 20 19 19 18 16 16 17 20 23 25 26 24 23 23
13 13 14 14 14 15 15 15 14 15 17 18 18 19 21 23 25 26 26 25 26 26 25 23 23 22 22 23 22 22 22 22 20 18 17 19 23 27 29 28 27 27
16 16 16 16 16 17 17 18 17 17 16 16 18 20 22 24 25 26 26 26 26 27 26 24 24 23 24 24 23 24 25 24 24 23 21 21 24 29 31 31 30 30
19 19 19 19 19 19 19 20 21 20 18 17 17 19 21 24 25 26 26 26 27 27 26 25 25 25 26 25 24 25 27 27 27 27 25 24 27 31 34 35 32 30
22 23 23 22 22 22 22 23 23 22 20 20 19 19 20 21 23 24 25 25 27 27 26 26 27 27 27 26 25 27 29 29 29 29 28 27 30 33 36 37 33 28
23 25 25 25 25 25 25 25 24 23 23 23 22 22 22 21 22 23 24 24 26 27 27 28 29 29 28 27 27 28 31 32 31 30 28 29 31 33 36 37 32 30
26 26 26 27 27 28 28 27 27 26 25 25 25 25 25 23 23 23 23 24 25 27 29 30 31 31 30 28 28 30 32 33 33 31 29 30 32 33 36 36 32 30
25 26 26 26 28 30 30 29 29 29 28 28 27 28 28 27 26 25 24 25 26 28 29 30 32 33 32 31 31 32 33 34 35 33 30 30 32 34 37 35 32 31
25 25 25 26 28 30 31 31 31 31 31 31 30 30 30 30 29 28 27 26 27 29 29 30 33 34 34 34 34 34 34 35 36 36 32 30 32 35 38 36 33 34
27 27 28 28 30 31 33 34 34 34 34 34 34 33 32 31 32 32 31 30 30 30 30 32 34 35 37 37 37 37 36 36 38 38 35 32 32 35 38 37 35 35
31 32 32 32 33 34 36 36 36 36 36 37 37 36 34 34 34 34 34 33 33 32 33 34 36 37 38 40 40 39 38 38 39 39 38 35 34 37 39 37 35 35
35 36 36 36 36 38 38 38 38 38 39 40 40 39 39 38 37 37 37 36 36 36 36 36 38 39 40 42 43 42 40 40 40 40 39 38 39 40 39 36 35 36

ECMWFNIL_500_spd_057.txt.gz
Wind_Speed
17 16 16 17 17 16 15 14 14 14 14 13 12 11 10 9 11 13 13 12 11 11 11 11 10 10 9 8 6 6 7 7 7 7 8 9 9 10 10 10 10 10
18 17 17 17 17 17 17 16 15 14 15 15 14 12 10 10 11 13 14 13 12 12 13 12 11 11 10 8 6 6 6 7 6 7 7 8 9 10 10 11 11 11
18 17 17 17 18 19 19 18 17 16 16 16 15 13 12 12 13 14 15 14 13 13 14 14 12 12 11 9 7 6 6 6 6 6 7 7 8 9 10 10 11 11
19 18 17 18 19 20 20 20 19 18 17 17 17 16 14 14 14 15 15 15 14 14 15 15 14 13 13 10 8 6 5 5 6 6 6 6 8 8 9 10 10 11
20 19 18 19 19 20 21 20 20 20 19 19 19 18 16 15 16 16 17 16 15 15 16 16 15 14 14 12 9 7 5 5 6 6 6 6 7 7 7 9 10 10
20 20 20 20 20 21 20 20 22 22 22 21 20 19 18 17 18 18 18 17 16 16 17 17 16 15 15 13 10 8 6 6 7 6 6 7 7 6 7 9 10 10
21 20 21 21 21 21 21 21 22 22 23 23 21 20 19 19 19 20 19 18 16 17 18 17 16 16 16 14 12 9 7 7 7 8 8 8 8 8 9 10 9 10
21 21 22 22 22 22 22 22 23 23 24 24 22 21 21 20 21 21 21 19 17 18 19 18 17 17 17 16 13 11 9 7 7 8 9 9 10 9 9 10 10 11
21 21 22 23 24 24 23 24 24 25 25 25 24 23 23 23 23 24 22 20 18 20 20 19 18 17 18 17 15 12 10 8 7 8 9 9 9 9 8 10 12 14
19 20 21 22 23 25 25 25 25 25 26 25 25 25 24 24 25 25 23 20 19 21 21 20 19 18 19 18 17 14 12 10 9 9 9 10 10 10 10 11 13 15
18 19 20 21 22 23 24 25 25 25 25 26 25 25 25 25 26 25 22 19 19 21 22 21 20 19 20 20 18 16 14 12 11 11 11 11 12 13 13 14 15 16
16 17 17 18 19 20 20 21 22 22 23 24 25 25 25 25 24 22 20 19 20 23 24 23 21 20 20 21 20 18 16 15 14 13 13 13 13 15 16 16 16 17
14 14 14 15 16 17 17 18 18 19 20 21 22 22 21 21 21 19 19 19 20 23 24 24 22 21 21 22 21 19 18 17 16 14 14 14 14 16 18 18 18 19
13 12 12 12 12 11 11 12 13 14 15 16 17 17 17 17 18 18 18 19 20 22 24 25 23 22 22 22 22 21 21 20 18 16 15 15 15 17 18 19 21 21
13 11 10 9 8 6 6 6 6 7 8 10 12 14 15 16 16 17 18 19 20 21 23 24 24 22 22 23 24 24 23 22 20 18 16 15 15 16 18 19 21 22
14 12 10 9 6 5 5 4 4 4 4 5 7 10 13 15 16 17 18 19 19 20 22 23 24 23 23 24 25 26 26 25 23 20 18 16 15 16 18 19 21 21
14 12 11 9 7 7 7 7 8 8 7 6 6 7 9 12 15 16 18 19 19 20 22 23 24 24 25 26 27 28 29 28 26 23 20 17 16 16 18 19 21 23
15 14 13 11 10 10 10 11 12 12 11 9 9 9 10 10 11 13 15 18 19 21 23 23 24 26 27 27 28 29 30 30 29 27 23 20 17 17 17 19 21 23
16 16 15 14 13 14 15 16 16 15 14 14 13 14 13 11 10 12 13 15 17 19 21 23 24 26 28 29 29 30 31 32 31 30 26 23 19 17 17 18 21 23
19 18 17 17 18 19 20 20 19 18 18 18 18 18 17 14 14 15 15 15 16 17 19 21 23 25 28 29 30 31 32 33 33 32 30 26 23 19 17 18 20 23
21 20 20 20 21 23 23 23 23 23 22 23 23 22 21 20 20 19 18 18 18 18 19 19 21 24 27 29 31 32 33 35 35 34 32 30 27 23 19 18 20 24
24 24 23 23 24 25 26 27 27 26 26 26 26 26 25 25 24 23 22 22 22 22 22 22 23 24 25 28 30 33 35 36 36 35 34 33 31 27 23 21 22 24
27 27 26 26 27 27 27 28 28 28 28 29 29 29 29 28 28 27 27 28 28 27 26 26 27 27 27 28 30 33 36 37 37 36 36 36 36 32 27 25 25 26
27 28 29 30 30 29 29 28 29 30 30 31 31 31 31 31 31 31 31 31 32 31 30 31 31 32 31 31 32 34 36 37 38 38 37 38 39 37 32 29 28 29
30 31 32 33 32 31 30 30 31 32 32 33 34 34 33 34 34 34 34 34 34 34 34 35 35 35 35 35 36 37 38 39 39 38 39 40 41 40 37 33 31 32
35 37 35 34 33 33 33 33 33 34 35 36 36 36 36 36 36 36 36 36 36 37 38 38 38 39 38 38 40 41 41 41 41 40 40 41 43 44 41 37 35 35

ECMWFNIL_500_spd_060.txt.gz
Wind_Speed
21 21 22 22 21 20 19 19 18 17 16 16 15 13 11 9 8 8 8 8 8 8 8 8 9 9 10 10 10 9 8 8 7 7 8 7 7 6 5 5 5 5
21 21 21 22 22 22 21 21 19 18 18 18 17 14 12 10 9 10 9 9 9 9 9 9 10 10 10 11 11 9 8 8 7 7 8 8 7 6 5 5 6 6
21 21 21 21 22 22 22 21 20 19 19 19 18 16 14 12 12 12 11 10 11 11 10 10 11 11 11 11 11 10 8 8 7 8 8 7 7 5 4 6 7 7
21 21 21 22 22 22 22 21 20 20 20 20 20 19 16 14 14 13 12 12 12 12 12 12 12 12 12 12 12 10 9 8 8 8 9 8 7 6 5 7 9 9
21 21 21 21 22 22 22 21 21 22 21 21 21 20 18 16 15 15 14 14 14 14 13 13 13 13 13 13 12 11 10 9 8 9 9 9 8 7 7 8 9 10
20 20 20 20 21 21 21 21 22 22 22 22 21 20 19 18 16 16 16 15 15 16 15 15 15 14 14 14 13 13 12 10 9 9 10 10 9 9 9 10 9 9
20 20 20 20 20 21 20 21 22 22 22 22 21 20 20 19 18 18 17 17 17 17 17 16 16 16 15 15 14 14 14 12 10 10 10 10 10 9 9 9 8 9
21 20 20 20 20 20 20 21 21 21 22 22 21 20 19 19 19 19 19 18 18 19 18 18 17 17 17 16 15 15 15 14 12 10 10 9 9 9 8 7 7 9
21 21 20 20 20 20 21 22 22 22 23 23 22 21 20 19 19 19 19 19 19 20 20 19 18 19 18 17 17 17 16 15 13 11 10 9 9 9 9 8 7 9
21 21 21 21 21 21 22 23 24 24 24 24 24 23 21 20 21 21 21 21 21 21 21 20 20 20 20 19 19 18 18 17 15 13 11 10 10 10 11 10 8 8
21 21 21 20 21 22 23 24 25 25 25 25 25 24 23 22 22 22 22 22 22 22 22 21 21 22 21 21 20 19 19 19 17 15 13 12 11 12 13 13 10 9
20 20 19 20 21 22 23 25 25 25 25 25 25 25 25 24 23 23 22 22 23 23 22 22 22 23 23 22 21 20 20 20 19 18 16 14 13 13 14 14 12 11
19 19 19 20 21 22 23 24 24 24 24 24 24 24 24 23 23 23 22 22 23 22 21 22 23 23 23 23 22 20 20 21 21 20 19 17 15 15 15 15 14 13
20 20 20 21 21 21 21 21 21 21 21 21 22 21 21 21 21 21 21 21 21 21 21 22 23 23 23 23 22 21 20 21 22 22 22 20 18 16 16 16 16 15
22 21 21 21 20 19 18 18 17 17 18 18 18 18 18 18 18 18 18 18 19 19 20 21 21 22 22 22 22 21 21 22 23 24 24 23 20 18 17 17 17 16
23 22 21 20 19 17 16 15 14 14 13 13 13 14 13 13 14 14 14 15 16 17 19 20 20 20 21 22 22 22 22 23 24 25 25 25 23 21 19 18 19 18
22 21 21 19 18 16 15 14 13 11 10 10 10 9 7 7 8 9 10 12 14 16 18 19 18 19 20 22 23 23 24 25 25 25 26 26 25 23 21 20 20 20
22 21 20 19 18 17 16 15 14 13 11 10 9 7 6 6 6 6 7 9 11 13 15 17 18 18 20 22 23 24 25 26 27 27 27 27 26 24 24 22 21 21
21 21 20 20 19 18 18 18 16 14 12 10 9 8 8 7 7 7 7 7 8 10 12 13 15 16 18 21 24 26 27 28 28 28 28 28 27 26 26 25 24 23
21 21 20 20 20 20 20 18 16 14 13 12 11 11 10 10 10 10 10 10 10 11 11 12 13 13 15 18 21 24 26 28 28 28 28 28 27 27 27 26 26 26
22 21 21 21 21 21 20 18 17 15 14 14 14 14 14 14 15 15 15 14 14 14 14 14 14 15 16 17 19 21 23 25 26 27 28 28 28 28 28 28 28 28
23 22 23 22 22 22 21 20 19 18 18 18 19 19 19 20 20 20 20 20 20 20 19 19 19 19 20 21 23 24 25 26 26 26 26 26 26 27 27 28 30 30
24 24 24 24 23 23 23 23 23 22 23 23 23 24 24 24 24 25 26 26 26 26 26 26 25 25 25 25 27 29 30 30 30 30 29 27 27 26 26 27 29 30
26 27 27 26 26 26 26 26 27 26 26 27 28 29 28 28 29 30 31 31 30 31 31 31 31 31 30 30 31 33 35 35 34 34 33 32 31 30 28 28 30 31
29 29 29 29 28 28 29 29 29 29 30 31 32 33 33 34 34 33 33 34 34 35 35 36 36 36 35 35 36 37 38 40 40 39 38 37 36 35 33 33 34 35
30 30 31 30 29 30 30 31 31 32 34 36 36 36 37 37 37 36 35 36 37 37 38 38 39 40 39 38 38 40 41 43 45 45 43 41 40 39 38 39 40 40

ECMWFNIL_500_spd_063.txt.gz
Wind_Speed
20 21 22 22 21 20 19 18 18 17 16 15 14 13 11 9 8 7 6 6 6 8 9 9 8 8 8 8 8 8 8 8 7 7 6 6 7 7 7 7 8 8
21 21 22 22 21 20 19 19 18 17 16 16 15 14 13 11 10 10 9 8 7 8 9 10 10 9 9 8 8 8 8 8 7 7 6 5 5 5 5 6 8 8
21 21 22 22 21 20 19 18 17 17 17 16 16 15 14 13 12 12 11 10 9 9 10 11 11 11 10 10 9 8 8 8 8 8 6 5 4 4 4 5 7 8
22 22 22 22 22 21 19 17 17 17 17 17 17 16 15 14 13 14 14 13 11 10 11 12 12 12 11 11 10 9 8 8 8 9 7 5 4 4 4 5 6 6
22 22 22 23 22 21 20 19 19 19 18 18 19 18 17 15 15 15 15 15 14 13 12 13 13 14 13 12 12 11 9 9 9 10 9 7 5 5 5 6 6 6
22 21 22 22 22 22 21 21 21 21 20 20 20 19 18 18 17 17 17 17 17 15 14 14 14 15 15 14 14 13 11 10 9 10 11 9 7 5 5 6 6 6
22 21 21 21 21 21 21 21 22 21 21 21 21 20 19 19 19 19 19 19 19 18 16 16 16 16 16 16 15 15 13 11 11 11 12 11 9 7 5 5 5 6
22 21 21 20 20 20 20 21 21 21 21 21 21 21 20 20 21 21 20 20 20 20 18 18 18 18 18 17 16 16 15 13 12 12 13 12 11 9 6 5 5 7
22 21 21 20 19 19 19 20 20 20 21 21 21 21 21 21 21 22 21 21 22 21 20 19 19 19 20 19 18 18 17 15 14 13 14 14 13 11 9 7 7 8
22 21 21 21 20 20 20 20 21 21 22 23 23 23 22 22 22 22 22 22 22 21 20 20 20 20 21 20 19 19 18 17 15 14 14 15 15 14 12 11 10 10
22 22 22 22 22 22 22 22 23 23 23 23 24 24 24 24 23 23 22 22 22 22 21 21 21 22 23 22 21 20 19 18 17 16 15 16 17 17 15 13 12 12
22 22 22 22 23 23 23 24 23 23 23 23 23 24 24 24 24 24 24 24 24 23 23 23 23 23 24 24 22 21 20 19 18 17 17 17 18 18 18 16 15 14
22 22 22 23 23 23 24 24 23 22 22 23 23 23 24 24 24 25 25 25 25 25 24 24 24 25 25 24 23 21 20 20 19 17 17 18 18 19 19 18 17 16
23 23 23 23 23 24 23 23 22 21 22 22 22 22 22 23 23 24 25 25 26 26 26 26 25 25 24 23 22 21 20 19 19 18 18 19 19 20 20 20 19 19
24 25 25 24 23 23 22 22 21 21 21 21 21 21 21 21 22 23 24 24 25 25 25 25 24 23 22 21 21 20 19 19 20 19 19 19 20 20 21 22 21 21
26 27 27 25 23 22 21 21 21 21 21 20 20 20 20 20 21 21 21 21 22 22 22 21 20 18 18 19 20 20 20 19 20 20 20 20 20 21 22 22 23 23
28 28 27 26 23 21 21 21 21 20 19 19 18 18 18 18 17 16 17 17 17 17 17 17 15 15 16 17 19 20 20 20 20 21 21 21 21 22 22 23 23 24
28 28 27 25 23 22 21 21 21 20 18 17 16 15 15 14 13 12 12 12 12 13 13 13 13 14 15 17 19 20 21 22 21 22 22 23 23 23 23 24 24 24
27 27 26 25 24 22 22 21 20 19 17 16 15 15 14 13 11 11 10 9 9 9 9 10 11 11 13 15 17 19 21 22 22 22 23 24 24 25 25 25 25 25
27 27 26 26 25 23 22 21 20 18 17 16 16 16 15 13 12 12 11 10 11 10 10 10 10 9 10 12 14 16 18 20 21 21 21 21 22 23 24 25 25 25
26 26 26 26 25 23 22 21 20 19 18 18 18 17 16 15 15 14 13 13 13 14 14 13 12 12 12 13 15 17 18 21 22 23 22 21 21 21 22 23 23 23
26 26 26 25 24 23 22 22 22 21 21 21 21 20 19 18 17 16 16 16 16 17 17 17 16 17 17 18 19 21 23 25 25 26 26 25 25 24 23 24 23 23
26 26 26 25 25 24 23 23 23 23 23 23 24 23 22 21 19 19 20 20 20 21 21 21 21 22 22 21 23 25 28 29 30 31 32 31 31 30 29 29 28 28
26 26 26 26 25 24 24 24 24 25 25 26 26 26 25 24 23 23 23 23 24 24 25 26 26 26 26 26 27 29 31 33 34 35 36 35 35 35 34 34 33 34
25 25 25 26 25 25 25 26 26 26 27 27 28 28 28 27 27 26 26 27 28 28 29 30 31 31 31 31 31 32 33 35 38 39 39 38 39 40 40 39 39 39
25 25 25 25 25 26 26 27 27 28 28 29 29 30 30 30 30 30 30 31 31 32 33 34 35 35 36 36 35 35 35 37 40 42 42 42 42 43 43 44 45 44

ECMWFNIL_500_spd_066.txt.gz
Wind_Speed
16 16 17 17 16 15 14 13 12 11 10 10 9 7 6 5 4 5 4 3 3 4 5 6 7 7 6 6 5 6 6 7 7 6 7 7 7 6 5 6 7 8
16 16 17 16 16 14 14 13 12 11 10 10 9 8 7 6 6 7 7 6 5 5 5 6 7 7 7 7 6 6 6 6 7 6 6 6 7 6 4 4 6 7
16 16 16 16 15 14 13 12 11 10 10 10 10 10 10 9 9 9 9 9 8 7 7 8 8 8 8 8 7 7 7 7 7 7 7 7 6 6 5 5 5 6
16 16 16 16 15 13 12 11 11 11 11 11 11 12 12 11 11 11 11 11 11 10 9 10 9 9 9 9 8 7 8 8 8 8 8 7 7 7 6 6 6 7
16 16 16 15 14 13 12 12 13 13 13 13 13 13 13 13 13 13 14 14 14 13 12 11 12 11 11 11 10 9 8 9 9 9 9 9 8 8 7 7 7 8
16 16 16 16 15 15 14 15 15 14 14 15 15 15 15 15 14 15 16 16 17 16 14 13 13 14 13 13 12 11 10 10 10 11 11 10 10 9 9 8 8 8
16 16 16 17 16 16 16 17 17 17 16 17 16 16 16 16 16 17 18 18 19 19 18 16 15 16 15 15 14 14 12 10 11 12 12 12 11 11 10 10 9 8
17 17 16 17 17 16 17 17 18 18 18 18 18 18 18 18 18 18 19 19 20 21 21 19 17 17 17 16 16 16 14 12 11 12 13 13 12 13 12 11 11 10
18 17 17 17 16 16 17 17 17 18 18 18 18 19 19 19 19 19 19 20 20 21 22 21 20 19 19 18 17 17 17 15 13 13 14 14 13 14 13 13 12 11
18 17 17 17 16 17 17 17 18 18 19 19 18 19 19 20 20 20 21 21 21 21 22 22 22 21 20 20 18 18 19 18 15 14 15 15 14 14 14 15 15 14
18 17 17 17 17 17 18 19 20 20 20 20 20 20 20 21 21 21 21 22 21 22 22 22 22 22 21 21 19 19 20 21 18 15 15 16 15 14 14 15 16 16
17 17 17 17 18 18 19 20 21 21 21 21 21 21 20 21 21 21 22 22 23 23 23 22 23 23 22 22 21 20 21 23 21 17 16 17 16 15 14 15 16 17
17 17 18 18 19 20 21 21 22 21 21 21 21 20 19 19 20 21 22 22 23 24 24 23 23 23 23 22 22 22 22 23 22 18 16 17 17 16 15 15 16 17
18 19 19 19 20 21 21 22 22 21 20 20 20 19 19 19 19 20 21 21 22 23 24 24 23 23 23 23 24 24 24 23 21 19 17 17 17 17 17 17 16 17
20 21 21 21 21 21 22 22 22 21 20 19 19 18 19 19 18 19 20 20 20 21 22 22 22 22 23 23 24 24 24 21 19 18 18 18 19 19 19 18 18 18
21 22 22 23 23 23 23 23 22 22 20 19 19 19 19 18 17 17 18 19 19 19 19 19 19 19 20 21 21 22 21 18 16 17 18 19 19 20 20 20 20 20
22 22 23 24 24 24 24 23 23 22 21 20 19 19 18 17 16 16 16 16 17 17 16 16 16 17 17 17 18 18 18 17 15 16 18 19 20 20 21 22 22 22
22 23 24 24 24 24 24 24 23 22 21 20 19 18 18 17 16 15 15 15 14 14 14 14 14 14 14 14 15 15 16 16 16 16 17 19 20 21 21 22 23 24
21 23 23 23 24 25 25 24 23 22 21 19 19 18 18 17 15 15 14 13 13 12 12 12 11 11 11 11 12 13 14 15 16 16 16 17 18 20 21 21 21 22
21 22 23 23 24 25 24 24 23 21 20 20 19 19 17 16 15 15 14 13 12 12 11 11 10 10 10 10 11 12 13 14 15 15 15 15 16 17 18 18 19 19
20 21 23 24 24 24 24 23 22 22 21 20 19 18 17 16 16 15 15 14 13 13 12 11 11 11 10 11 12 13 14 16 17 18 18 17 17 18 19 20 21 22
20 21 22 23 23 23 23 22 22 22 21 20 19 18 18 17 17 16 15 15 15 15 15 14 13 13 13 13 14 16 18 19 20 22 22 22 22 23 24 24 25 26
21 20 21 21 22 22 22 22 22 22 21 20 19 18 18 18 17 17 18 18 19 18 18 17 16 17 17 16 17 18 21 23 25 26 27 27 26 27 28 29 29 30
21 21 20 20 20 21 22 22 22 21 21 20 19 19 19 19 20 21 21 22 22 21 20 20 19 20 20 20 21 22 24 26 28 30 32 32 31 32 32 32 32 32
21 20 19 19 19 21 22 21 21 21 21 20 20 19 20 20 21 22 23 24 24 24 23 22 22 23 23 23 24 25 26 28 30 33 35 35 35 36 36 36 35 35
21 20 18 19 19 21 22 21 21 21 20 20 20 20 21 21 22 22 22 23 25 25 26 25 25 26 26 26 26 28 29 30 32 33 34 35 37 38 38 37 37 37

ECMWFNIL_500_spd_069.txt.gz
Wind_Speed
11 10 12 13 13 11 10 10 9 9 8 7 6 5 5 4 2 1 1 2 4 5 6 7 8 8 7 7 7 7 7 7 6 5 4 5 6 7 7 6 7 8
11 11 12 14 13 10 9 10 9 8 7 6 6 4 4 3 2 2 1 2 3 5 6 7 8 8 9 9 9 8 8 8 8 6 5 4 5 6 6 6 6 6
12 11 13 14 13 10 9 9 9 8 7 6 6 5 4 4 4 3 3 3 4 5 7 8 8 9 9 9 10 10 9 9 9 8 7 5 5 5 6 7 7 7
12 12 13 14 12 10 8 9 9 9 8 7 6 6 5 5 5 5 6 5 5 6 7 9 9 9 10 10 11 11 11 11 10 9 8 7 6 5 6 6 7 7
12 13 13 14 12 9 9 9 10 10 9 8 8 7 7 7 7 8 9 9 9 8 9 10 10 11 11 12 12 12 12 12 12 11 10 9 8 7 6 6 7 7
12 13 13 14 12 11 10 10 10 10 9 9 9 9 9 9 10 11 11 12 12 12 11 11 12 12 12 13 13 13 13 13 13 13 12 11 10 9 8 7 7 7
12 13 13 13 13 12 12 12 11 11 11 11 10 11 11 12 12 13 13 13 14 15 14 14 14 14 14 14 14 14 14 15 14 14 14 13 11 10 10 9 8 8
12 12 13 13 13 13 13 13 12 12 12 12 12 12 12 13 13 13 14 13 14 15 16 16 15 15 15 15 16 16 16 16 16 15 15 14 13 11 10 10 10 9
13 14 14 14 14 13 13 13 14 14 13 13 13 13 13 12 13 13 13 13 13 13 14 16 16 16 16 16 16 17 17 17 17 16 15 14 14 13 11 10 11 11
14 14 14 14 13 13 13 14 14 14 13 13 14 14 13 13 13 13 13 14 14 14 13 14 16 17 17 16 16 17 17 17 17 17 17 15 14 14 13 11 11 11
13 13 13 13 13 13 14 13 13 13 13 14 14 14 14 15 14 14 14 14 15 15 15 14 14 16 17 17 16 16 17 18 17 17 18 17 15 14 14 13 11 12
13 13 13 14 14 14 13 13 13 13 13 14 15 15 15 15 15 15 15 15 15 16 16 16 15 15 16 17 17 16 17 18 18 18 18 18 16 15 15 14 13 13
14 14 14 14 14 14 14 13 13 13 14 14 15 15 15 15 15 15 15 16 16 15 15 16 16 15 15 16 17 16 16 17 18 19 19 18 16 16 16 15 14 14
15 15 15 15 14 14 14 14 14 14 14 15 15 14 14 14 15 15 15 16 16 15 14 14 15 15 14 15 15 16 16 17 18 19 19 16 14 15 17 16 15 15
16 16 16 15 15 14 14 15 15 15 15 15 14 14 14 14 14 15 15 16 15 14 14 13 13 14 14 13 13 14 14 16 16 17 16 14 12 13 15 16 16 15
16 16 16 16 15 15 16 17 17 16 15 14 14 15 14 14 14 14 15 15 14 13 13 13 13 13 12 12 11 11 12 13 13 13 13 11 10 10 12 14 15 16
16 17 17 17 17 18 18 18 18 17 16 15 15 15 15 14 14 13 14 14 14 13 12 12 12 11 10 10 10 10 10 10 9 8 9 9 9 9 10 12 13 15
16 17 18 18 19 19 20 20 19 18 17 16 16 16 15 15 14 13 13 13 13 12 11 10 10 9 9 9 9 8 8 8 7 6 7 8 9 9 9 10 11 12
15 17 18 19 20 20 21 21 20 18 17 16 16 16 15 15 14 13 12 11 11 11 9 9 8 8 8 8 8 7 7 7 7 7 7 7 8 8 9 9 9 10
15 16 17 19 20 21 22 21 20 18 16 16 16 15 14 14 13 13 11 9 9 9 8 8 7 7 8 8 8 8 8 8 8 8 8 8 8 9 10 11 12 13
15 16 17 18 19 20 20 19 18 17 15 15 15 15 14 13 12 11 10 9 9 8 8 7 7 7 8 8 9 10 10 10 11 11 11 12 12 13 14 15 17 18
14 16 18 19 19 19 18 17 17 16 15 15 15 15 14 12 11 11 10 9 9 8 7 7 8 8 9 10 11 12 13 13 14 14 14 15 16 18 19 20 21 22
16 16 17 19 20 19 17 17 17 17 17 16 15 14 13 12 12 11 10 9 8 8 7 8 9 9 10 11 12 14 16 17 18 19 19 19 20 22 23 23 24 25
19 17 16 17 19 20 18 17 17 17 17 16 14 13 13 12 12 11 10 9 8 9 9 10 11 12 13 13 15 17 18 19 21 23 23 24 24 25 27 27 27 27
21 19 17 16 18 20 20 19 18 17 17 16 14 13 12 13 12 10 9 9 9 10 11 12 13 15 16 17 18 20 21 22 23 24 24 24 26 27 29 30 30 30
21 21 19 18 17 19 21 20 19 18 16 15 14 13 13 13 11 10 9 10 11 12 13 14 15 17 18 20 22 23 24 25 26 26 25 26 28 30 31 31 32 32

ECMWFNIL_500_spd_075.txt.gz
Wind_Speed
17 18 18 19 18 17 16 16 15 14 13 14 14 13 13 13 12 12 11 10 10 9 9 9 9 10 11 11 11 11 11 10 10 8 7 5 4 4 3 3 3 4
18 19 20 20 19 17 17 17 16 14 14 15 15 14 13 13 11 10 8 7 6 6 6 6 6 7 7 8 9 10 10 11 11 10 9 8 6 4 3 2 2 2
20 21 21 21 20 19 19 18 17 15 15 14 14 14 14 12 11 9 7 5 3 3 2 3 4 4 5 6 7 8 8 9 10 10 11 10 9 7 5 4 3 3
21 21 22 22 22 20 20 19 18 16 15 15 15 14 13 12 10 8 6 4 2 1 1 2 3 4 5 6 7 8 8 9 9 9 10 11 11 10 8 6 5 4
22 23 23 23 22 21 19 19 18 17 17 17 16 14 13 12 10 8 7 5 4 4 4 5 5 6 6 7 8 9 9 10 10 9 9 10 12 12 11 8 7 5
23 24 24 23 22 21 20 20 19 19 18 18 16 15 13 12 10 9 8 7 6 6 6 7 7 8 8 8 9 9 10 11 11 11 10 10 11 12 13 11 8 7
22 23 23 23 22 21 21 21 21 20 19 18 17 15 14 12 11 10 9 8 8 8 8 8 9 10 10 10 9 10 11 11 11 12 11 10 10 11 12 12 9 7
23 23 23 23 22 22 22 22 21 20 19 18 18 16 15 13 12 11 10 10 9 9 9 9 10 11 11 11 11 10 10 11 11 11 11 11 10 10 11 11 11 8
23 24 24 23 22 22 22 22 22 21 19 18 18 17 16 14 14 13 12 11 11 11 10 10 11 11 11 12 12 10 10 10 10 11 10 10 10 10 10 11 11 9
23 24 24 23 22 22 22 22 22 21 20 19 18 17 16 16 15 14 13 12 12 12 12 12 12 11 11 11 11 11 10 9 9 9 10 9 9 10 10 11 11 9
22 23 23 23 23 23 23 22 22 21 20 19 19 18 17 17 16 15 14 13 13 13 12 12 12 11 12 12 11 11 10 9 9 9 9 9 9 9 10 10 11 11
22 22 23 24 24 24 24 23 22 21 21 20 20 19 18 17 16 15 15 14 14 13 12 12 11 11 12 12 12 11 11 10 10 10 9 9 10 10 10 10 11 11
23 24 25 25 25 25 25 24 23 22 22 22 21 20 19 17 17 16 16 16 15 13 12 12 12 12 12 13 13 13 12 11 11 11 11 10 10 11 10 11 11 10
25 26 27 26 26 25 24 23 23 23 23 22 21 20 19 18 17 17 17 16 15 14 13 13 12 12 13 13 14 14 13 12 11 12 12 11 11 11 11 11 11 8
26 27 27 26 25 24 24 23 23 23 23 22 21 20 19 18 17 17 16 16 15 14 13 12 12 12 13 13 14 14 13 12 12 12 12 12 11 11 11 10 9 6
26 26 26 25 24 24 24 24 24 24 23 22 21 20 19 18 17 16 16 16 15 14 13 12 12 13 13 13 13 13 13 12 12 13 13 12 11 10 10 9 7 5
25 25 25 25 25 25 25 25 25 25 24 23 22 20 19 18 17 16 15 16 16 15 13 12 13 13 12 12 12 12 12 12 11 12 12 12 11 10 9 7 5 4
24 24 24 24 25 25 26 26 26 25 24 23 22 21 19 18 16 16 16 16 16 15 14 13 14 13 12 12 12 11 11 11 10 11 11 11 10 9 8 7 5 4
24 23 23 23 23 24 25 26 25 24 23 22 21 20 19 17 16 16 16 16 15 15 15 15 15 14 12 12 12 11 10 10 10 10 10 9 8 8 8 7 5 4
22 22 22 22 22 23 24 23 22 22 22 22 20 19 18 17 17 16 17 17 17 17 16 15 15 14 13 13 12 11 10 9 9 9 8 8 7 7 7 5 4 3
19 19 20 20 21 21 21 20 20 21 21 20 20 19 18 18 18 18 18 19 18 18 17 16 15 15 15 14 13 12 11 10 9 9 8 8 7 6 6 4 4 5
15 16 16 17 17 17 17 17 18 19 20 20 20 20 19 19 20 19 19 19 19 19 19 17 17 17 17 16 15 14 12 11 10 10 9 8 8 7 6 5 6 8
14 14 14 14 14 14 14 15 16 18 19 20 20 21 21 21 22 22 21 21 22 21 20 20 19 19 19 18 17 16 14 13 13 12 11 10 9 9 7 7 9 11
16 16 15 14 13 13 14 15 16 18 19 20 20 21 22 23 24 24 24 23 23 22 21 22 21 21 20 19 18 18 17 16 15 13 12 11 11 10 10 10 12 15
19 18 17 16 15 14 15 15 17 18 20 20 21 22 23 25 26 26 25 25 24 23 23 23 22 21 20 19 19 19 18 17 16 15 13 13 12 12 13 14 16 19
22 21 20 20 18 17 17 17 17 18 20 21 21 22 24 26 27 26 26 26 26 25 25 24 22 21 21 21 21 21 19 18 16 14 14 14 14 15 16 17 19 22

ECMWFNIL_500_spd_078.txt.gz
Wind_Speed
17 17 18 20 20 19 17 15 15 15 14 13 13 13 14 16 17 17 17 17 16 15 15 14 14 13 13 14 14 14 14 14 14 12 11 9 7 7 7 7 7 6
19 19 20 21 20 19 18 17 16 15 14 13 13 14 15 16 17 17 16 16 15 13 12 11 10 10 10 10 10 11 11 12 13 14 13 12 9 7 5 5 5 5
20 21 21 21 21 20 20 19 18 16 14 14 15 16 16 16 15 14 14 13 11 10 9 8 6 6 6 6 7 7 8 9 10 11 12 13 12 9 6 4 4 4
22 22 23 23 22 22 21 20 19 17 15 15 17 17 17 16 14 12 11 9 8 7 6 4 3 3 3 3 4 5 5 6 7 8 9 10 12 11 9 6 4 3
24 25 25 25 23 22 21 21 20 17 16 17 18 18 17 16 14 11 9 7 6 5 4 3 2 1 0 1 2 3 4 5 5 5 6 7 9 10 10 7 5 3
26 27 27 26 24 23 22 22 21 19 17 18 18 18 17 16 13 11 8 7 6 5 4 4 4 3 3 2 3 3 4 4 4 5 5 5 5 6 8 8 6 4
27 28 27 26 24 23 23 23 22 19 19 19 19 18 17 15 13 11 10 8 7 7 6 6 5 5 4 4 4 4 4 4 4 4 4 3 3 3 4 6 6 4
28 28 27 26 25 25 25 24 22 21 20 20 19 18 17 15 14 13 11 10 9 9 9 8 7 6 6 5 5 5 5 5 5 4 4 3 3 2 2 3 5 4
28 28 27 26 26 26 26 25 24 23 21 21 21 19 18 17 15 14 13 12 11 11 10 10 9 9 8 7 6 5 5 5 5 5 4 4 4 3 2 2 3 4
28 28 27 26 27 27 27 27 26 25 23 22 22 20 19 18 17 15 14 13 13 13 12 12 11 10 9 8 7 5 5 5 5 6 5 5 6 5 4 4 3 4
27 27 27 27 27 28 28 27 27 26 24 24 23 21 20 19 18 17 16 15 15 15 14 14 13 11 10 9 8 6 5 5 6 7 7 7 7 7 6 6 6 5
27 27 27 27 28 28 28 28 27 26 25 25 24 23 22 20 19 19 18 17 17 17 16 15 13 12 11 10 9 8 7 7 8 9 9 9 9 8 8 7 7 7
26 26 27 28 28 28 29 28 27 27 26 25 25 24 23 22 21 21 20 19 19 18 16 15 13 12 11 11 10 10 10 10 10 11 11 11 11 10 9 8 9 8
26 27 28 29 29 29 29 29 28 27 27 26 26 25 24 23 23 22 21 20 19 18 16 14 12 11 12 12 13 13 13 12 12 12 13 13 12 11 10 10 10 9
28 29 29 30 30 30 29 29 28 28 28 27 26 26 25 25 24 23 21 20 19 17 15 14 12 12 13 15 15 15 15 14 13 13 13 14 13 12 11 11 11 9
30 30 30 30 30 30 30 30 30 29 28 27 27 27 27 26 24 22 20 19 18 17 16 15 14 15 16 17 16 16 16 15 15 14 14 14 13 13 13 12 11 9
31 31 31 31 30 30 31 31 31 30 29 28 28 28 27 25 23 21 20 19 18 18 17 16 16 17 18 17 16 16 16 16 16 15 15 14 14 14 14 12 10 9
31 31 31 30 30 31 31 32 31 31 30 29 29 28 27 25 22 21 20 19 19 18 18 17 17 19 18 17 16 16 16 16 16 16 15 15 14 14 13 12 10 10
30 30 30 30 30 30 31 31 30 30 29 29 29 28 26 24 22 21 20 20 19 19 18 18 19 19 18 16 16 16 16 16 16 16 16 15 14 13 12 11 11 11
29 29 29 29 29 30 30 29 29 29 28 28 28 26 25 23 22 22 21 20 19 19 19 19 20 19 17 16 16 16 16 16 16 15 15 14 12 12 12 12 12 11
28 28 28 28 28 28 28 27 27 27 27 27 26 25 24 23 22 21 21 20 20 20 20 20 20 20 18 17 17 17 17 16 15 15 14 13 12 13 13 12 11 10
27 27 26 26 26 26 26 26 26 26 26 26 25 24 23 22 21 20 21 21 21 21 20 20 21 20 19 18 18 18 16 16 15 15 14 13 13 14 13 12 11 10
25 25 25 25 24 24 23 23 23 24 24 24 23 23 22 22 21 22 22 22 22 22 22 22 23 22 20 20 20 18 16 16 16 15 14 14 15 15 14 13 12 11
22 22 22 22 21 21 20 20 21 21 22 22 22 22 22 23 24 24 24 23 23 23 23 24 24 24 21 20 20 18 17 17 16 15 15 15 16 16 15 14 13 12
20 19 19 18 18 18 18 18 18 19 20 20 21 22 23 24 25 25 25 24 24 25 25 25 26 25 22 21 20 19 17 17 17 16 16 17 17 17 16 15 14 13
21 20 18 18 18 18 18 18 18 18 19 19 20 21 23 24 25 25 25 25 25 26 27 27 27 26 24 22 22 20 19 19 19 18 19 19 20 19 18 16 15 15

ECMWFNIL_500_spd_081.txt.gz
Wind_Speed
18 19 20 21 20 20 18 17 16 15 14 13 13 13 12 13 14 15 16 17 17 17 18 17 18 18 17 17 17 15 14 12 11 10 10 11 11 12 12 11 11 9
20 20 21 21 21 20 18 18 17 16 14 13 13 12 12 14 16 18 18 19 18 17 16 15 14 14 14 15 15 15 15 14 13 11 10 10 11 11 11 11 10 9
22 22 22 22 22 21 20 19 18 17 15 13 12 13 15 17 19 19 19 18 17 15 13 12 10 10 10 10 11 12 12 13 13 12 10 9 9 10 11 10 10 10
24 24 24 24 24 23 22 20 19 18 16 14 15 16 18 20 20 20 19 17 15 13 11 9 8 7 6 6 7 7 8 9 10 10 10 9 8 8 9 10 10 10
26 26 26 26 25 24 23 21 20 19 17 17 18 19 20 21 21 20 18 16 14 12 9 7 6 5 4 3 3 4 4 5 6 7 7 7 7 6 7 8 9 9
28 27 27 27 27 25 24 23 22 21 19 19 20 21 22 22 21 19 17 15 13 10 8 6 5 3 2 1 1 1 1 2 3 4 5 5 5 5 5 5 7 8
28 28 28 28 27 26 25 25 24 22 20 20 21 22 22 22 21 19 17 15 12 10 8 6 4 3 2 1 1 1 1 1 0 1 2 3 3 3 3 3 5 7
29 29 29 29 28 27 27 27 25 24 22 22 23 23 23 23 21 19 17 14 12 9 7 6 5 5 4 4 3 3 2 3 2 2 2 2 3 2 1 1 2 4
31 31 30 29 28 28 28 28 27 26 24 24 25 25 25 24 22 20 17 14 11 9 8 8 7 7 7 6 5 4 4 4 4 4 3 3 4 3 3 3 2 2
31 31 31 29 28 28 29 29 28 27 25 26 26 26 26 25 23 20 17 14 12 11 10 10 10 9 9 8 7 6 5 5 5 5 5 5 5 5 5 5 5 4
31 31 31 30 29 29 30 30 29 28 26 27 27 27 27 26 23 21 18 15 14 13 12 12 11 10 10 9 7 6 6 6 7 7 7 7 7 7 7 7 7 7
29 30 31 30 30 30 31 31 30 29 28 28 28 28 28 26 24 21 19 17 16 15 14 14 12 11 10 9 8 7 7 8 9 10 10 9 9 9 9 9 9 8
28 30 31 31 32 31 32 32 31 30 29 28 28 29 28 27 24 22 20 19 18 17 16 15 13 12 11 10 9 9 9 10 11 12 12 11 11 11 10 10 10 9
28 30 32 33 33 33 32 32 32 31 30 29 29 29 28 27 26 24 22 21 20 19 18 16 14 12 11 11 11 11 11 11 12 12 13 13 13 12 12 11 11 10
29 30 32 34 34 33 33 32 33 32 31 30 29 29 29 28 27 25 23 22 21 20 18 16 14 13 13 13 13 12 12 12 12 12 13 14 14 14 13 13 13 12
30 31 32 34 34 33 33 32 33 33 32 31 30 30 30 29 27 25 24 23 22 21 19 17 15 14 15 15 15 14 13 12 12 13 13 14 15 15 15 15 15 14
31 31 32 33 34 34 34 33 33 34 33 32 32 31 31 29 28 26 25 25 24 22 20 18 16 16 16 17 16 15 14 14 14 14 14 15 15 15 16 16 16 15
31 31 32 34 34 34 34 34 34 34 34 33 33 32 31 30 29 28 27 27 24 22 20 18 18 18 18 18 18 17 16 15 15 15 15 16 15 15 16 16 16 15
33 33 33 34 35 35 35 35 34 34 34 34 34 33 32 31 30 29 28 27 24 22 20 19 19 19 19 19 18 18 17 17 16 16 16 16 16 15 16 16 16 16
34 34 34 34 35 35 35 34 34 34 35 34 34 33 32 31 30 30 28 26 24 22 21 20 20 20 20 19 19 19 18 17 17 17 17 17 16 15 15 16 16 16
34 34 34 35 35 35 34 33 33 34 35 35 34 33 32 32 31 30 27 25 24 23 22 21 21 21 20 20 19 19 19 18 17 17 17 17 16 16 16 16 16 16
33 34 34 34 34 33 32 32 32 33 34 34 34 33 32 31 30 28 26 26 24 23 21 21 22 22 21 20 20 19 19 18 18 18 18 17 16 16 16 16 16 17
33 33 33 33 32 31 30 30 31 31 32 32 32 32 31 29 28 27 27 26 24 22 22 23 24 23 22 22 21 20 19 18 18 19 19 17 17 16 17 17 16 17
33 33 32 32 30 30 29 30 30 30 30 30 30 30 29 28 27 27 26 25 24 23 23 24 25 25 23 23 22 20 20 19 19 19 19 18 17 17 17 17 17 17
33 32 32 31 30 29 29 29 29 29 29 29 29 28 28 27 27 26 25 24 24 24 25 25 26 26 25 23 22 21 21 21 20 20 19 19 19 19 18 18 18 18
33 32 31 30 29 29 29 29 29 28 28 27 27 27 27 26 26 25 25 25 25 25 26 26 27 27 26 25 24 23 22 21 21 20 20 20 20 20 19 19 19 19

ECMWFNIL_500_spd_084.txt.gz
Wind_Speed
24 24 24 24 23 22 21 19 18 17 16 15 14 14 13 13 14 14 14 14 14 13 13 13 13 12 12 11 10 9 9 9 9 9 10 10 11 11 11 11 10 10
25 25 26 25 24 23 22 21 19 17 16 15 14 13 13 13 14 15 15 15 16 16 16 15 15 14 13 12 10 9 8 8 9 9 10 10 10 11 11 11 10 10
26 27 27 26 25 24 23 22 20 18 17 15 13 13 13 14 15 16 17 18 19 19 18 17 16 15 14 13 11 10 8 7 7 7 8 9 10 10 11 10 10 9
27 27 28 28 27 26 24 23 21 20 17 16 15 15 15 16 17 19 20 21 21 19 18 16 14 13 12 11 10 9 7 6 5 5 5 6 8 10 10 11 10 10
28 29 30 29 28 27 25 24 23 21 19 18 17 17 17 18 20 22 23 22 21 19 17 15 13 11 10 9 8 7 6 5 4 3 3 3 3 6 9 10 11 10
30 30 31 30 29 27 26 25 24 23 21 19 19 19 19 21 23 24 24 23 21 19 16 14 12 10 9 8 7 6 5 4 3 2 1 1 1 1 4 7 10 10
31 31 31 30 29 28 27 27 26 24 22 21 20 20 21 23 25 26 25 23 21 18 16 14 12 10 9 8 7 6 5 4 3 3 3 2 2 1 1 2 6 9
31 31 31 30 29 28 28 27 27 26 24 22 22 22 23 25 27 26 25 23 21 18 16 13 11 9 8 7 7 6 6 5 4 4 4 4 4 3 3 2 3 5
32 32 32 31 29 28 28 28 28 27 25 24 24 24 25 26 27 27 26 24 21 19 16 13 11 9 8 7 7 6 6 6 5 5 5 6 5 5 6 5 4 3
33 32 32 31 30 29 28 29 29 28 26 26 26 26 26 28 28 27 26 24 21 19 16 14 12 10 9 8 7 7 7 7 6 6 7 7 7 7 7 7 6 4
32 32 32 31 30 29 29 29 30 29 28 27 27 27 28 29 29 28 27 25 22 20 17 15 13 11 10 9 8 7 7 8 8 8 8 8 8 8 8 9 8 7
31 31 32 31 31 30 29 30 30 30 29 28 28 28 29 30 30 30 28 26 23 21 19 16 14 12 11 10 9 8 9 9 10 10 10 10 9 9 9 9 9 8
31 30 31 32 32 31 31 30 30 31 30 29 29 29 29 30 31 31 30 28 25 22 20 17 15 13 11 10 10 10 10 11 11 11 11 11 10 10 10 10 10 9
30 30 31 32 33 33 32 31 31 31 32 31 30 29 29 30 31 32 31 29 26 23 21 18 15 13 12 11 11 12 12 13 12 12 12 11 11 11 10 10 11 11
31 31 31 32 33 33 33 32 31 32 33 32 31 30 30 31 32 32 32 30 27 24 21 18 15 14 12 12 13 13 14 13 12 12 12 12 12 11 11 11 12 12
32 31 31 32 33 33 33 33 32 32 33 33 32 31 31 31 31 32 31 30 28 25 21 19 16 15 14 14 14 14 14 13 12 12 12 12 12 12 12 13 13 13
33 32 31 31 32 33 34 34 33 33 33 33 33 32 31 31 31 31 31 30 28 25 22 20 18 16 15 15 16 15 15 14 13 13 12 12 13 13 14 14 14 14
34 33 31 31 32 34 34 35 34 33 33 33 33 33 32 31 31 31 31 30 29 26 23 21 20 18 16 16 17 16 16 15 14 14 13 13 13 14 14 15 15 15
35 33 32 32 33 34 35 35 35 34 33 33 34 34 33 32 31 31 31 30 29 26 25 24 22 19 17 17 18 17 16 16 15 15 14 13 14 14 14 15 16 16
35 34 33 33 33 35 35 35 35 34 33 33 34 35 34 32 32 31 30 30 29 28 27 26 23 20 19 19 19 18 17 17 16 16 15 15 15 15 15 15 16 17
35 34 34 33 34 35 36 36 35 35 34 34 34 34 34 34 33 32 31 30 30 29 28 27 25 23 22 21 20 19 18 18 17 16 17 17 17 16 16 16 17 17
34 35 35 34 35 35 36 36 35 35 35 34 34 34 34 34 34 33 32 32 31 31 30 29 27 25 24 23 21 20 19 19 18 18 18 18 18 18 17 17 17 17
34 35 35 35 35 35 35 35 35 35 35 34 33 34 34 35 35 34 34 34 33 32 31 30 28 26 25 24 23 21 21 20 19 19 19 19 19 19 18 18 18 18
33 34 35 35 35 34 34 35 35 35 34 34 33 34 35 35 35 35 35 35 34 33 31 30 29 27 25 25 24 23 22 21 20 20 20 20 21 20 18 18 18 19
32 33 34 35 34 34 35 35 35 34 34 33 33 34 35 36 36 35 35 34 34 32 31 30 29 27 26 26 26 25 23 22 21 21 20 21 22 20 19 19 19 20
32 33 34 34 34 34 35 35 34 34 33 32 32 33 34 35 35 35 34 33 33 32 31 30 29 27 27 27 27 26 25 23 22 21 21 22 23 21 20 20 20 20

ECMWFNIL_500_spd_087.txt.gz
Wind_Speed
23 20 20 20 20 19 18 17 16 15 14 14 13 12 12 12 12 12 11 11 11 10 10 10 10 9 9 9 8 8 7 7 7 7 6 7 7 7 7 6 6 5
25 23 22 22 21 20 19 18 17 16 15 14 13 12 12 13 13 13 13 12 12 12 11 11 11 10 10 9 9 8 8 8 8 7 7 7 7 7 7 6 6 5
27 25 24 24 23 22 21 19 18 17 16 14 13 13 13 14 14 14 14 13 13 13 12 12 11 11 10 9 8 8 8 7 7 7 7 8 8 8 7 7 7 6
29 27 26 26 25 24 22 20 19 18 17 15 14 14 14 14 15 15 15 14 14 14 14 13 13 12 11 10 9 8 7 6 6 5 6 7 8 8 8 8 8 8
30 28 28 28 27 25 23 22 21 20 18 17 16 16 15 15 15 16 16 16 16 16 16 15 14 12 11 10 9 8 7 6 5 4 4 3 4 5 7 8 9 9
31 30 30 30 29 27 25 23 23 22 20 19 18 17 16 16 16 16 17 18 18 17 17 15 13 12 10 9 7 6 5 5 4 3 3 3 3 2 2 4 6 8
31 30 30 31 30 28 26 25 24 24 23 21 20 18 18 17 17 18 19 20 19 18 17 15 13 11 10 8 7 5 4 3 2 2 2 2 3 3 3 2 1 4
31 31 31 31 30 29 27 27 26 25 24 22 21 20 20 19 19 20 21 21 21 19 17 15 14 12 10 9 7 6 5 3 2 1 0 0 1 2 2 3 3 1
31 31 31 31 30 29 28 27 27 26 25 23 22 22 21 20 20 21 23 23 22 20 18 17 15 13 12 10 9 7 6 4 4 3 2 2 2 1 1 2 2 2
31 30 31 31 30 30 29 28 27 27 26 25 24 24 22 22 22 23 24 25 24 22 20 19 17 15 13 11 10 8 7 6 5 5 5 4 4 3 3 2 2 2
30 30 30 30 30 30 29 29 27 27 27 27 26 25 24 23 23 24 26 26 25 24 22 21 18 16 14 12 11 9 8 7 7 7 7 6 6 5 5 4 4 3
31 30 29 29 30 30 30 29 28 27 28 28 27 26 25 24 24 25 27 28 28 26 24 22 20 18 15 13 11 10 9 9 9 9 8 8 7 6 6 6 5 5
30 30 29 29 30 30 30 30 28 27 28 29 28 27 26 25 25 26 28 29 30 28 26 24 21 18 16 14 12 11 10 10 10 10 10 9 8 8 7 7 6 6
30 30 30 30 30 31 31 31 29 28 28 29 29 28 28 27 26 27 29 31 31 30 27 25 21 19 16 14 12 12 11 11 11 11 11 10 9 9 8 8 7 7
30 31 31 31 31 32 31 31 30 29 28 29 29 29 29 28 27 27 29 30 31 30 28 25 22 19 16 14 13 13 12 12 12 12 12 11 10 9 9 9 9 9
31 31 31 31 31 31 31 31 31 30 30 29 29 30 30 30 29 28 29 30 30 30 29 26 23 20 18 16 14 14 14 13 13 13 13 12 11 10 10 10 10 10
30 32 32 31 31 31 31 31 31 31 31 30 30 30 31 31 30 29 28 29 30 30 30 27 24 22 19 17 15 14 14 14 14 14 14 13 12 12 12 12 11 11
28 31 32 32 31 30 31 32 32 32 32 31 30 30 31 31 31 30 29 29 30 31 30 28 26 24 21 18 16 15 15 14 14 15 14 14 14 14 14 14 13 13
26 30 31 31 31 31 31 32 32 32 32 31 30 31 31 32 32 31 30 29 29 30 30 29 27 25 22 20 17 16 15 15 15 15 15 15 14 15 15 16 15 15
25 28 30 30 31 31 31 32 32 32 32 32 32 32 32 31 32 32 31 29 29 29 30 30 29 26 24 22 19 17 16 16 16 16 16 15 15 15 16 17 17 16
25 27 29 29 30 30 31 31 32 32 32 32 33 33 32 31 32 32 32 30 29 29 30 31 30 28 26 24 21 18 17 17 17 17 16 16 16 16 17 18 18 17
26 27 28 28 28 29 30 31 31 31 32 32 33 33 32 32 32 32 32 31 30 29 30 31 31 29 28 26 24 20 19 18 17 17 17 17 17 18 18 18 18 18
28 28 27 27 28 28 30 31 30 30 31 33 33 33 32 32 32 32 32 32 31 30 30 31 32 31 30 28 26 22 20 18 18 18 18 18 18 19 19 19 18 19
29 28 26 26 27 28 29 30 30 30 31 32 33 32 32 32 32 32 32 33 32 31 31 32 32 32 31 30 27 24 21 20 20 20 20 19 19 20 19 19 19 20
31 29 26 26 27 28 29 30 31 31 31 31 32 32 31 31 32 32 32 33 33 33 32 32 32 32 31 30 27 25 23 22 22 22 21 21 21 21 21 20 20 20
31 29 27 26 27 28 29 30 31 32 31 31 31 31 31 30 31 31 32 32 34 34 33 32 32 32 30 29 28 27 25 24 24 24 23 22 22 22 22 21 21 21

ECMWFNIL_500_spd_090.txt.gz
Wind_Speed
17 15 15 15 15 14 14 13 13 12 12 11 10 10 9 9 8 8 8 7 7 7 6 6 6 5 5 4 4 3 3 2 2 2 1 1 1 1 1 2 2 2
20 17 16 16 16 15 15 14 14 13 12 12 11 10 10 10 9 9 8 8 8 7 8 7 7 6 6 5 5 4 4 3 3 3 3 2 2 2 3 3 4 3
23 20 17 17 17 17 16 15 15 14 13 12 11 11 11 11 10 10 9 9 9 9 9 9 8 8 7 6 6 5 5 4 4 4 4 4 4 4 4 5 5 4
25 23 20 19 19 18 17 16 15 15 14 13 12 12 12 11 11 11 11 10 10 10 10 9 9 8 7 6 6 5 4 3 3 3 3 4 4 4 5 5 5 5
26 25 23 21 20 19 18 17 17 16 15 14 14 13 13 13 13 13 12 12 11 11 10 10 9 8 7 7 6 5 4 3 1 1 0 1 2 3 4 5 6 6
26 26 25 23 22 21 20 19 18 17 16 16 15 15 14 14 15 14 14 13 12 11 11 10 9 9 9 8 7 6 6 5 4 3 3 2 1 0 1 3 4 5
26 25 26 25 24 23 22 21 19 18 17 17 17 16 16 16 16 15 15 14 13 13 12 12 12 12 11 9 8 7 7 5 5 4 4 4 4 3 3 2 0 3
25 25 25 26 25 24 24 23 20 18 18 18 18 18 17 17 17 16 16 15 14 14 15 14 14 13 11 10 9 8 7 6 5 5 4 4 3 3 4 4 3 1
25 25 24 25 24 24 25 24 22 20 18 18 19 19 18 18 18 17 16 15 15 16 16 16 15 14 12 11 10 8 7 6 5 4 3 3 3 2 3 3 3 2
25 24 24 23 23 23 24 25 24 22 20 19 20 20 20 19 18 17 17 15 16 17 18 17 16 15 14 12 10 9 7 6 5 4 3 2 2 2 2 2 2 2
24 24 24 23 22 21 23 24 25 23 21 20 21 21 21 20 19 18 18 17 17 19 19 19 18 16 15 13 11 10 8 6 5 4 3 1 0 1 1 2 2 2
22 23 23 23 22 21 22 24 24 23 22 21 21 21 21 21 20 19 19 18 19 20 20 20 19 17 16 14 12 11 9 8 6 5 4 3 2 1 1 2 2 2
21 22 23 23 23 23 23 24 24 23 22 21 21 22 22 22 22 21 20 20 21 21 21 21 20 18 16 14 13 12 11 9 7 6 5 4 3 2 2 2 2 2
21 22 22 23 23 24 24 24 24 23 22 22 21 21 21 22 23 22 22 21 22 22 22 22 21 19 17 15 14 13 12 10 8 7 6 5 5 4 4 4 4 4
19 22 23 23 23 23 23 24 24 24 23 23 22 21 21 22 23 24 23 22 22 23 23 23 21 20 18 17 16 15 13 11 9 8 8 7 6 6 6 6 5 5
16 19 22 23 23 22 22 23 24 25 24 23 22 22 22 22 23 24 24 23 22 23 24 24 23 21 20 20 18 16 15 13 11 10 9 8 8 8 7 7 7 7
15 17 20 22 22 23 22 22 23 24 24 23 23 24 23 23 24 25 25 25 23 23 24 24 24 24 23 22 20 18 16 14 12 10 10 9 10 10 9 9 9 9
16 17 18 20 21 22 23 22 22 23 24 23 22 24 25 25 25 25 25 26 25 24 23 24 25 26 25 24 22 19 17 15 12 11 11 11 11 11 11 11 10 10
17 17 18 18 20 22 23 23 23 22 23 23 22 24 26 26 26 25 26 27 27 25 23 24 26 27 27 26 24 21 18 16 14 12 11 12 12 12 12 12 12 12
18 18 18 18 19 20 22 23 23 22 23 23 23 23 25 26 26 26 27 28 28 27 25 24 25 27 28 28 27 24 21 18 16 13 11 12 13 14 14 14 14 14
19 20 20 19 19 19 20 22 23 23 23 23 23 23 24 26 27 27 27 28 29 29 27 25 25 27 29 30 29 27 24 20 17 14 12 12 13 15 15 15 15 16
21 21 21 21 20 19 18 19 21 23 23 23 24 24 23 25 26 27 27 28 29 30 28 27 25 26 28 30 31 31 28 24 19 16 13 13 14 16 16 16 16 16
22 22 23 22 21 19 17 18 20 22 24 24 24 24 23 24 25 27 27 28 29 30 29 28 27 26 28 30 32 33 31 26 22 18 15 14 16 17 18 18 17 16
23 24 24 23 22 20 18 18 20 22 23 24 24 24 24 24 24 26 27 27 29 30 30 29 29 28 28 30 32 34 33 29 25 21 17 17 18 19 19 19 19 18
25 25 25 25 24 22 21 20 20 21 23 24 25 25 25 24 24 24 25 26 28 29 30 30 30 29 28 29 31 33 33 30 27 23 20 20 21 21 21 21 20 19
27 26 26 26 25 24 24 22 21 22 23 23 24 25 25 25 24 23 23 24 26 29 30 30 31 30 29 29 30 32 32 31 28 25 23 23 24 23 23 22 22 21

ECMWFNIL_500_spd_093.txt.gz
Wind_Speed
12 10 10 10 10 9 8 8 8 7 6 5 5 4 4 4 4 3 3 3 2 2 1 0 1 2 2 2 2 2 2 2 3 4 5 5 5 5 4 4 3 3
15 13 11 11 11 10 10 10 9 8 7 6 5 5 5 5 4 4 4 3 3 3 2 2 2 1 0 1 1 1 1 2 2 3 3 4 4 4 3 2 1 1
17 15 13 12 12 12 12 11 10 9 8 7 6 6 6 6 6 6 5 4 4 3 3 3 3 3 2 1 1 0 1 1 2 2 2 2 2 2 2 2 1 0
17 17 16 15 14 13 12 11 10 10 9 8 8 7 7 7 7 7 6 6 4 4 4 4 4 4 3 2 1 0 1 1 2 2 2 2 2 2 2 2 2 2
18 18 17 16 15 14 12 12 11 11 10 9 9 8 8 9 9 8 8 7 5 4 4 4 4 4 3 3 2 2 3 3 3 3 3 3 3 2 2 2 2 2
18 18 18 17 17 15 14 13 13 11 10 10 10 10 10 10 10 10 9 8 7 6 5 5 5 5 4 4 3 4 4 4 5 5 5 5 5 4 3 2 2 1
17 17 17 17 17 16 15 15 14 13 11 11 11 11 11 11 11 11 10 9 8 7 7 7 6 6 6 6 6 5 5 5 5 6 6 6 6 6 5 4 3 2
17 17 17 17 16 16 16 15 15 15 13 12 11 12 12 13 12 12 12 10 9 8 8 8 8 8 8 8 7 6 6 5 5 6 6 6 6 6 6 5 4 4
16 16 16 16 15 15 15 16 16 16 14 13 12 13 13 14 13 12 12 11 10 9 9 10 10 10 10 9 8 7 7 6 5 6 6 6 6 6 6 5 4 4
14 15 15 15 15 15 15 16 17 17 16 14 13 13 14 15 15 14 13 12 11 10 11 11 11 11 11 10 9 8 7 6 6 6 6 6 6 6 6 5 4 4
12 13 14 14 15 15 15 16 16 16 16 15 13 13 14 16 16 15 14 13 12 11 12 12 13 12 12 11 10 9 8 7 6 5 6 5 5 5 5 4 4 3
11 12 13 14 15 15 15 16 16 16 16 15 14 13 13 15 16 16 16 15 13 12 12 13 14 13 13 12 11 10 9 8 7 6 5 5 5 4 4 3 3 2
11 13 14 14 14 15 15 15 15 16 16 15 14 13 12 13 15 16 17 17 15 12 12 13 15 15 14 12 11 11 10 9 7 6 6 5 5 4 3 2 1 1
9 12 14 14 14 14 15 15 15 15 15 15 15 14 13 13 14 16 17 18 16 13 12 13 15 16 15 14 13 12 11 10 8 7 6 5 5 4 3 2 2 2
7 9 12 14 15 14 14 14 15 15 15 15 15 14 13 13 14 16 17 18 17 15 13 12 14 17 17 16 15 14 12 11 9 8 7 6 5 4 3 3 3 4
7 7 9 12 15 15 15 15 15 15 15 15 15 15 14 14 15 16 16 17 18 17 14 12 13 16 18 18 17 15 14 12 11 10 9 8 7 6 5 5 5 5
9 8 8 10 13 15 16 16 15 15 14 15 15 15 15 15 16 16 17 18 19 18 16 14 14 16 19 20 19 17 15 14 13 12 11 10 9 8 7 6 6 7
12 10 9 9 11 13 15 17 17 16 14 14 15 15 16 16 16 17 18 19 19 19 18 16 16 17 18 19 20 19 18 17 15 14 13 12 10 10 9 8 8 8
15 13 11 10 10 12 14 16 17 17 16 15 15 16 16 16 16 17 19 20 20 20 19 19 18 18 18 19 20 21 20 19 18 16 14 13 12 11 10 10 10 10
18 16 13 12 12 12 13 13 15 17 17 17 17 17 17 16 17 17 18 20 21 20 21 21 20 20 19 19 21 22 23 22 20 18 16 14 12 11 11 12 12 12
20 18 16 14 13 13 13 12 13 15 17 18 18 17 17 17 18 18 18 20 21 22 22 22 22 21 21 21 21 23 24 24 23 21 18 15 13 12 13 13 13 13
21 20 18 17 16 15 14 12 12 13 15 17 18 18 18 18 18 18 18 19 21 22 22 22 23 23 23 23 22 23 24 25 25 24 21 18 15 14 14 14 14 14
22 22 21 19 18 17 15 14 13 13 14 16 17 19 19 20 20 19 19 19 20 21 23 23 23 24 24 24 24 24 25 25 25 26 25 22 18 16 15 15 15 15
22 22 22 22 21 19 17 16 15 15 15 15 16 18 19 20 21 21 20 20 19 20 22 24 24 24 25 26 26 26 26 26 26 27 27 25 22 19 17 17 17 16
23 23 23 23 22 21 19 18 17 16 16 16 16 17 18 20 21 22 21 20 19 19 20 23 25 25 25 26 27 27 27 26 26 26 27 27 25 22 20 20 19 18
23 23 23 23 24 23 22 21 19 18 18 17 17 18 18 19 21 22 22 21 20 20 20 21 23 25 26 27 28 28 28 28 27 26 26 27 27 26 24 23 22 20

ECMWFNIL_500_spd_096.txt.gz
Wind_Speed
12 12 12 10 9 8 7 6 6 6 6 5 5 5 5 5 4 3 3 3 4 4 4 4 4 4 5 4 5 6 7 6 6 7 8 9 9 9 9 9 9 9
14 13 12 11 10 9 8 7 7 6 5 5 4 4 4 4 4 3 2 1 1 2 2 3 3 3 4 4 4 5 6 6 6 7 7 8 8 8 7 7 8 8
16 14 13 13 12 10 9 8 7 6 6 5 5 4 4 3 3 3 2 1 1 1 1 2 2 2 2 3 3 4 5 5 5 6 6 7 7 7 6 5 6 6
18 17 16 15 13 11 9 8 7 7 7 6 5 5 4 4 4 3 2 2 2 2 1 1 1 1 2 2 3 3 4 4 5 5 6 6 6 6 6 5 4 5
20 19 18 16 15 13 11 9 9 8 8 7 6 6 6 5 5 4 3 3 3 3 3 1 0 1 1 2 3 3 4 4 4 5 5 6 6 6 6 5 4 4
20 20 19 18 16 14 13 11 10 9 9 8 8 7 7 6 6 5 4 3 3 4 3 3 1 1 2 3 4 4 4 4 4 5 6 6 7 6 6 6 5 5
20 20 19 19 18 16 15 13 12 10 10 9 8 8 8 8 7 6 4 3 3 3 4 3 2 1 3 4 5 5 4 4 4 5 6 6 7 7 7 6 6 6
20 20 19 19 18 18 17 15 14 13 11 10 10 9 9 9 8 7 5 4 3 3 4 4 3 2 4 5 5 5 5 4 4 4 6 6 6 7 7 7 7 6
21 20 19 19 18 18 18 17 16 15 13 12 11 11 10 10 9 9 7 5 3 3 4 4 4 4 5 6 6 6 5 5 4 4 5 6 6 6 7 7 7 7
20 20 20 19 19 19 19 19 18 17 15 14 13 12 11 11 10 10 9 7 5 4 4 5 5 6 7 7 7 7 6 6 5 5 5 5 5 5 6 7 7 7
18 19 19 19 19 19 19 19 19 18 17 16 15 14 13 12 11 11 10 9 7 6 5 5 7 8 9 9 9 8 8 7 7 6 6 6 6 6 5 6 6 6
17 18 19 19 19 19 19 19 19 19 19 18 16 16 15 14 13 12 12 11 9 7 6 6 7 9 10 11 10 10 10 9 8 8 7 7 6 6 6 6 6 6
17 18 18 19 19 19 19 19 19 19 19 19 18 18 17 16 15 14 14 14 12 10 8 7 8 10 11 12 12 12 11 11 10 9 9 8 7 7 6 6 5 6
17 18 18 18 19 18 18 18 18 18 19 19 19 18 18 17 17 16 16 15 14 12 10 9 8 10 12 13 13 13 13 12 11 10 10 9 9 7 6 6 5 5
15 17 18 18 18 17 17 17 18 18 19 19 18 18 18 18 18 18 17 16 15 14 13 11 10 11 13 15 15 15 15 14 13 12 12 11 10 9 8 7 6 5
14 15 16 18 18 18 18 18 18 18 19 18 18 18 19 19 18 18 17 17 17 16 15 13 13 13 14 16 17 17 17 16 14 13 13 13 12 12 10 8 7 7
15 14 14 16 18 18 18 18 18 18 19 18 19 19 19 19 19 18 18 18 17 17 16 16 15 15 16 17 19 19 19 18 16 15 14 14 13 13 12 11 9 8
17 15 14 14 16 17 18 19 19 18 18 19 19 19 19 19 19 19 19 19 18 17 17 17 18 18 17 18 19 21 21 20 19 18 16 15 15 15 14 13 11 10
20 18 16 14 14 16 18 19 20 19 18 19 19 20 20 19 19 20 20 20 19 18 18 18 19 20 18 18 19 21 22 22 22 20 19 18 17 16 16 15 13 12
23 21 19 17 16 15 16 17 19 20 20 20 20 20 19 19 20 20 20 20 20 20 20 20 20 21 20 19 19 20 22 24 24 23 22 20 19 18 18 17 16 14
26 24 22 20 19 17 16 15 16 19 20 21 21 20 20 20 20 21 21 21 21 21 22 21 21 21 22 21 21 21 22 24 25 26 25 22 21 20 19 19 17 16
27 27 26 24 22 20 17 15 15 16 18 20 21 21 21 21 20 20 21 21 22 22 22 21 21 22 22 22 22 23 23 24 25 27 27 25 23 22 21 20 19 17
28 29 29 27 25 23 20 17 16 16 17 19 20 20 21 21 20 21 21 22 23 22 21 22 22 23 23 23 23 24 24 24 25 27 28 28 27 25 24 22 19 18
30 31 31 30 28 25 23 21 19 19 18 18 19 19 20 21 22 22 22 22 22 22 22 22 23 24 25 24 24 25 25 25 25 27 29 30 30 29 26 23 20 19
32 33 31 30 29 27 26 24 22 22 21 20 19 19 20 21 22 22 22 22 22 22 23 23 23 24 25 25 26 26 25 26 26 26 27 29 32 32 29 26 23 22
34 34 32 30 29 29 29 28 26 25 24 22 21 19 19 20 20 21 21 22 23 23 23 23 24 24 24 25 26 27 26 26 27 27 27 28 31 33 32 30 27 25

ECMWFNIL_500_spd_099.txt.gz
Wind_Speed
14 14 13 14 14 13 13 12 12 12 11 10 10 9 9 9 9 9 9 9 9 9 8 8 8 7 7 8 8 9 9 9 10 11 12 12 12 11 11 10 9 10
16 14 13 13 13 13 13 13 12 12 11 11 10 10 9 9 9 9 9 8 8 8 8 8 8 8 8 8 8 9 9 10 10 10 11 11 11 11 10 10 9 9
17 16 14 14 14 14 14 14 13 12 12 11 11 10 9 8 8 8 8 8 7 8 8 8 8 8 8 8 8 9 10 10 10 10 10 11 11 11 10 9 8 8
20 18 17 16 15 14 13 13 14 13 13 12 12 11 10 9 8 8 8 7 7 7 7 7 7 8 8 8 8 8 9 10 10 10 10 10 10 11 11 9 8 7
22 21 20 18 16 14 13 13 14 14 14 13 12 11 11 10 9 7 7 7 7 6 6 6 6 7 8 8 8 8 9 9 10 11 11 10 10 10 10 10 8 7
22 22 21 20 18 16 16 15 15 15 14 14 13 12 11 10 9 8 7 7 7 6 5 5 6 7 7 8 8 8 8 8 9 10 10 11 10 9 9 9 9 8
21 22 22 21 20 18 18 17 16 16 15 15 14 12 11 10 9 8 7 6 6 6 6 6 6 7 8 8 8 8 7 7 8 9 9 10 10 9 9 8 8 8
22 23 23 23 22 21 19 18 17 17 16 15 14 14 13 11 10 9 8 7 6 6 6 6 7 8 9 9 8 7 7 6 7 8 9 9 9 9 9 8 8 8
23 23 23 23 23 22 21 19 18 18 17 16 16 15 14 13 11 10 9 8 7 6 6 7 7 9 10 10 9 8 7 6 7 8 9 9 9 9 9 9 9 8
23 23 23 22 22 23 22 21 20 19 17 17 16 15 15 14 13 11 11 10 9 8 8 7 8 9 11 11 10 9 8 7 7 7 8 9 9 9 9 9 9 9
22 23 23 23 23 23 23 23 22 20 19 18 17 16 16 15 14 13 12 12 11 10 9 9 9 10 11 12 11 11 10 8 8 7 8 8 8 9 9 9 9 9
21 22 23 23 24 24 25 25 24 23 22 20 19 18 17 17 15 15 14 14 13 12 11 10 10 11 12 13 12 12 11 10 9 8 8 8 8 9 9 9 9 9
19 22 23 24 25 26 26 26 25 25 24 23 22 21 19 18 17 16 16 15 15 14 13 12 12 12 13 14 14 13 13 12 11 10 10 10 10 9 9 9 9 9
19 22 24 25 26 26 26 26 25 25 25 24 24 22 21 20 19 19 18 17 16 16 15 14 13 13 14 15 16 15 15 14 13 12 12 11 11 11 10 10 10 9
18 21 23 25 26 25 25 24 24 24 25 25 24 23 22 22 22 22 20 18 17 17 16 15 14 14 15 16 17 18 17 17 16 15 14 13 13 12 11 11 10 10
17 20 22 24 24 24 24 23 24 24 25 24 23 23 23 23 23 23 22 20 18 18 17 16 15 15 16 18 19 20 20 19 18 17 16 15 14 13 12 12 11 10
17 18 20 23 24 24 24 24 25 25 25 24 23 23 24 24 23 23 22 21 20 19 18 18 18 18 18 19 20 22 22 21 20 19 18 17 16 15 14 13 12 11
19 19 19 21 23 25 25 25 25 25 25 24 24 24 24 24 23 22 22 22 21 20 19 20 20 21 20 20 21 22 23 23 22 21 20 19 18 17 16 15 14 12
21 20 19 20 22 24 26 26 25 25 25 25 25 25 25 25 23 23 23 23 22 21 20 21 22 23 23 21 22 23 24 24 24 23 22 21 20 19 18 17 16 15
25 23 22 21 21 23 25 26 26 25 25 25 26 27 26 25 24 24 24 24 23 22 22 22 23 24 25 24 23 24 25 26 26 25 24 23 22 21 20 19 18 17
29 27 26 24 23 23 23 25 26 26 26 27 27 27 26 26 26 25 25 25 25 24 24 23 24 25 26 26 26 26 26 27 28 28 27 25 24 22 21 20 19 19
31 30 29 27 26 25 23 22 23 25 27 28 28 27 26 26 27 26 26 27 26 26 25 24 25 26 27 27 27 27 27 27 28 29 29 28 26 25 23 22 22 21
33 32 31 30 29 27 25 23 22 23 25 27 28 28 27 27 27 27 28 28 28 27 26 26 26 27 27 27 27 28 28 28 28 29 30 30 29 28 27 26 24 23
35 33 32 32 31 29 27 25 24 23 24 25 26 28 28 28 28 28 28 28 28 28 27 27 28 29 29 28 28 28 28 27 27 28 29 31 32 32 30 29 28 26
37 34 33 33 32 31 30 28 27 25 25 24 24 25 27 29 30 29 29 28 27 27 27 28 29 30 30 29 29 29 28 27 27 27 28 29 31 33 34 33 31 30
41 38 36 34 33 33 32 32 30 28 27 26 25 25 25 26 28 29 29 28 28 27 27 27 28 29 30 29 29 29 28 27 27 27 27 28 30 33 35 35 34 33

ECMWFNIL_500_spd_102.txt.gz
Wind_Speed
12 12 12 13 13 14 14 13 13 13 13 14 14 14 15 15 15 14 13 13 12 12 13 13 13 13 14 13 13 13 12 13 13 13 13 12 12 11 10 9 9 9
13 13 13 13 13 14 14 14 13 13 12 13 13 14 14 14 14 14 14 13 13 12 12 13 13 13 14 13 13 12 12 12 13 13 13 13 12 11 10 10 9 8
15 14 13 14 14 15 15 14 14 13 13 13 13 13 14 14 14 14 14 13 13 13 12 13 13 12 13 13 13 12 12 13 13 14 14 13 13 12 11 11 10 9
16 15 15 15 15 15 15 14 14 14 14 14 13 13 13 13 13 13 13 13 13 13 12 12 13 12 12 13 13 13 13 14 14 14 14 14 14 13 12 12 12 11
19 18 17 17 16 15 15 15 15 15 15 14 13 13 13 12 12 12 12 12 12 12 12 12 12 13 13 13 14 14 14 14 14 14 15 15 15 14 13 12 12 11
21 20 19 18 16 15 15 15 16 15 15 14 13 13 12 11 11 11 11 11 11 11 11 11 12 12 13 13 14 14 14 14 14 14 15 16 16 15 14 13 12 11
24 23 21 19 17 16 16 16 15 15 15 14 13 13 12 12 11 11 11 11 11 11 11 11 11 12 13 14 14 14 15 15 15 16 16 16 16 16 15 14 13 12
25 25 24 21 19 18 17 17 16 16 15 14 14 14 13 13 12 12 11 11 11 11 11 11 12 12 13 14 15 15 15 15 16 17 17 17 17 17 16 15 15 14
26 26 25 24 22 21 20 19 18 17 16 15 15 15 14 13 13 12 12 12 11 11 11 11 12 13 14 15 15 15 15 15 15 16 17 17 17 16 16 15 15 14
26 26 26 25 24 23 23 22 20 19 17 17 17 16 15 15 14 13 13 12 12 13 13 13 13 14 15 16 16 16 16 15 15 15 16 16 15 15 15 14 14 13
27 26 26 25 26 26 26 24 23 21 20 19 19 18 17 16 15 14 14 14 14 14 14 14 14 15 16 17 17 16 16 15 14 14 15 14 14 13 13 14 13 12
27 27 27 26 27 27 28 28 26 24 23 22 21 20 19 18 17 16 16 16 16 16 15 15 15 16 17 17 17 17 16 15 15 14 14 14 13 13 12 12 12 12
26 27 28 28 28 29 30 30 29 27 26 25 24 23 21 20 19 19 19 19 18 17 16 16 16 17 18 18 18 17 16 16 15 15 15 14 14 13 12 12 12 11
25 28 29 30 30 31 31 31 30 30 29 28 27 26 24 22 21 21 21 21 20 19 18 17 16 17 18 19 19 19 18 17 17 16 16 15 14 14 13 12 12 11
25 27 29 31 32 32 31 31 31 31 31 31 30 28 27 26 25 24 23 22 21 20 20 18 17 17 18 20 21 21 20 20 19 17 17 16 15 14 13 13 12 12
25 26 28 30 32 32 32 32 31 31 31 31 31 30 29 29 28 26 25 24 23 22 21 20 18 18 19 20 22 22 22 21 20 19 18 17 16 15 15 14 14 13
25 25 27 28 30 32 32 32 31 31 31 31 31 31 30 30 29 28 26 25 25 24 22 21 21 21 21 21 22 23 24 23 22 21 20 18 17 17 16 16 15 14
25 25 26 27 28 30 31 32 32 31 31 31 31 30 31 31 30 29 28 27 27 26 24 22 23 23 23 23 23 24 25 25 24 23 21 20 19 19 18 18 17 16
27 26 26 26 27 28 30 31 31 31 31 31 32 32 32 31 30 29 29 28 28 27 25 24 24 26 26 25 24 24 25 26 26 25 24 23 22 21 20 19 18 17
29 28 27 27 27 28 28 29 29 30 31 32 32 32 32 31 31 30 29 29 28 27 26 25 25 26 28 27 26 26 26 26 27 27 26 25 24 22 22 21 20 19
30 29 28 28 27 27 27 28 29 30 31 31 31 32 32 31 31 31 30 30 29 28 27 26 25 26 28 28 28 28 27 27 27 27 27 26 25 24 23 22 22 21
32 31 29 29 28 27 26 26 28 29 30 31 31 31 32 32 31 31 31 31 30 29 28 26 26 27 27 27 28 29 29 28 27 27 28 28 27 26 25 24 24 23
35 33 31 30 29 28 26 25 26 28 29 30 31 31 31 31 31 31 31 31 31 30 29 28 28 28 28 27 27 28 29 28 28 27 27 28 29 29 29 27 26 25
38 35 33 31 30 28 26 26 25 26 27 28 29 30 31 31 31 31 31 31 31 30 29 29 29 30 30 28 28 28 28 27 27 27 27 27 29 31 31 31 29 28
40 38 35 33 31 30 28 27 27 26 26 26 27 28 30 31 31 31 31 31 31 30 30 29 30 30 30 29 29 29 28 27 27 27 27 27 28 30 32 33 32 31
43 41 38 36 33 32 31 30 30 29 28 26 25 25 26 28 29 30 30 30 30 30 29 29 29 30 30 30 30 30 29 28 27 26 26 26 27 29 31 33 34 34

ECMWFNIL_500_spd_105.txt.gz
Wind_Speed
13 13 14 14 14 15 15 16 15 14 13 13 12 12 12 12 12 12 12 12 13 13 14 14 14 14 14 14 13 12 11 11 10 10 9 9 9 9 9 10 10 10
15 14 14 14 15 15 16 16 15 15 14 14 14 14 13 13 13 12 12 13 14 14 15 15 15 15 15 15 14 13 13 12 11 10 10 10 9 9 9 9 10 10
16 16 16 16 17 17 17 17 16 16 16 16 15 15 14 14 13 13 13 13 14 14 15 16 16 16 16 16 15 14 14 13 13 12 12 11 10 10 10 10 10 10
17 18 18 18 18 18 18 17 17 17 17 17 16 15 15 15 14 14 14 13 14 14 15 16 17 17 17 16 16 15 14 14 14 14 13 12 12 11 10 10 11 11
19 19 20 20 19 19 19 18 18 18 17 17 16 15 15 15 14 14 14 14 14 14 15 15 16 16 17 17 16 16 15 15 15 15 14 14 13 12 11 11 11 11
21 20 20 20 20 20 20 20 19 19 18 17 17 16 16 15 15 15 15 14 14 14 14 14 15 15 16 16 17 16 16 15 15 15 14 14 14 14 13 12 11 11
23 22 22 21 21 20 21 21 20 20 19 18 17 17 16 16 16 15 15 15 14 14 14 14 14 14 15 15 16 16 16 15 15 15 14 15 15 15 14 13 12 11
25 24 22 22 22 22 21 21 21 21 20 19 18 18 17 17 17 16 16 16 15 14 14 14 14 14 15 15 15 16 16 15 15 15 15 15 15 15 15 14 13 12
26 26 24 23 22 23 23 22 22 22 21 20 20 19 18 18 17 17 17 16 16 15 14 14 14 14 15 15 15 16 15 15 15 15 15 15 15 15 15 14 13 12
27 27 26 24 23 24 24 24 24 23 22 21 21 20 20 19 18 17 17 17 17 16 15 15 15 15 15 15 15 16 15 15 15 15 16 16 15 15 15 14 13 13
28 27 27 26 26 25 26 25 25 24 23 23 23 22 21 21 19 18 18 18 17 17 16 16 16 15 15 15 15 16 15 15 15 15 16 16 16 16 15 14 13 13
30 28 28 28 28 28 28 27 26 26 25 25 24 23 23 22 20 19 19 19 18 18 17 17 16 16 15 15 16 16 16 16 16 15 16 16 17 17 16 15 14 13
31 30 29 29 29 30 30 30 28 27 26 26 25 25 24 22 21 21 21 21 20 19 18 17 17 16 16 15 16 17 17 16 16 16 16 16 17 17 17 17 15 14
32 32 32 31 31 31 32 32 31 29 28 27 26 26 24 24 23 23 23 22 21 20 19 18 17 17 16 16 17 18 18 18 17 17 16 16 16 17 17 17 17 16
32 33 33 33 33 33 33 32 32 32 31 29 28 27 26 25 25 24 24 23 22 22 21 19 18 17 17 17 18 19 19 19 19 18 17 17 17 17 17 17 16 16
32 33 34 34 34 34 34 34 33 33 32 31 30 29 28 27 26 25 24 23 23 23 22 20 19 19 19 19 19 20 20 20 20 19 19 18 17 17 17 17 16 16
31 32 33 34 35 35 35 35 35 34 34 33 33 32 31 30 28 27 25 24 24 24 23 21 21 21 21 20 20 20 21 22 21 21 20 19 18 18 18 17 17 16
31 31 32 32 34 35 36 36 36 35 34 34 33 33 33 32 31 29 28 27 26 25 24 22 22 23 24 23 22 21 22 23 23 23 22 21 20 20 19 19 18 17
32 32 31 31 32 33 35 36 36 35 34 34 34 34 34 33 32 31 31 29 28 27 25 24 23 24 25 25 24 23 23 24 24 25 25 24 23 22 21 20 19 18
34 33 32 31 31 32 32 33 34 34 34 34 34 33 33 32 32 32 31 31 30 29 28 27 26 26 26 26 26 26 25 25 25 26 27 26 25 24 23 22 21 20
36 34 33 32 31 31 30 31 31 32 33 33 33 33 33 32 33 32 32 31 30 30 30 28 28 27 28 27 28 28 28 27 27 27 28 28 28 27 26 25 24 23
39 36 34 33 32 30 29 29 30 31 32 33 33 33 33 33 33 32 32 31 31 30 30 29 29 29 29 29 29 30 30 30 28 28 28 28 30 30 29 28 27 26
41 39 37 35 33 31 29 29 29 30 31 31 32 32 32 32 32 32 32 31 30 30 29 28 29 30 30 30 30 31 31 30 29 29 29 28 29 31 31 31 30 28
44 41 40 38 36 33 30 29 29 29 30 30 30 30 31 31 31 31 30 30 29 29 28 28 29 30 30 30 31 31 31 30 29 29 29 28 29 29 30 31 32 31
46 44 42 41 39 36 33 31 29 29 29 29 29 29 29 29 29 29 28 28 28 28 28 28 29 30 30 30 31 31 30 30 29 27 27 27 28 29 29 29 30 32
49 47 45 44 42 39 36 34 32 31 30 28 28 28 28 28 28 28 27 27 27 28 28 28 28 30 30 30 30 30 29 29 28 26 25 26 27 28 28 28 29 30

ECMWFNIL_500_spd_108.txt.gz
Wind_Speed
14 14 14 15 16 17 16 15 14 13 12 11 10 10 10 10 10 10 10 10 10 11 10 10 9 8 8 8 9 9 9 9 9 8 8 8 8 9 9 9 10 10
16 15 14 14 16 17 17 16 15 14 13 13 12 11 11 11 10 10 10 10 11 11 11 11 10 9 9 9 9 9 9 9 9 9 9 9 8 8 8 9 10 10
17 16 15 16 16 17 18 17 16 15 14 14 14 13 12 12 11 11 10 10 10 11 12 12 11 11 10 10 9 9 9 9 9 9 9 9 9 8 8 9 10 10
17 17 17 18 17 18 18 18 17 17 17 16 16 14 13 13 12 12 11 11 10 11 11 12 12 12 12 12 11 10 10 10 10 10 10 9 9 9 9 9 10 10
19 18 19 19 19 18 18 18 18 19 18 18 17 16 14 14 13 13 12 12 11 11 12 12 13 13 13 13 13 12 11 11 11 11 10 10 10 9 9 9 10 10
21 20 19 19 19 19 19 19 19 19 19 19 18 17 16 15 14 14 13 12 12 12 12 13 13 13 14 14 14 14 13 12 12 12 11 11 11 10 10 10 10 10
23 22 21 20 20 20 20 20 19 20 20 19 19 18 17 16 15 14 14 13 12 12 12 13 13 14 14 14 15 15 14 14 13 12 12 12 12 11 11 10 10 11
25 23 22 22 21 21 21 21 20 20 20 20 20 20 19 18 17 16 15 14 13 13 13 13 14 14 14 14 15 15 15 14 14 13 13 13 12 12 11 11 11 11
27 25 24 23 23 22 22 22 22 22 21 21 21 21 20 20 19 17 16 16 15 15 15 15 15 15 15 15 15 15 15 15 15 14 14 14 13 13 12 12 11 11
28 27 26 25 24 24 24 24 24 23 23 23 23 22 22 21 20 19 18 17 17 17 16 16 16 16 16 15 15 15 15 15 16 15 15 15 14 14 13 12 12 11
29 28 27 26 26 26 26 26 25 25 24 24 24 24 23 23 22 21 20 20 19 18 18 17 17 17 16 16 15 15 15 16 16 16 16 15 15 15 14 13 13 12
30 29 29 28 28 28 28 28 27 26 26 26 25 25 25 24 23 22 22 22 21 20 19 19 18 18 17 16 16 16 16 16 16 17 16 16 16 16 15 15 14 13
30 30 30 30 30 31 30 29 28 27 27 27 27 26 26 25 24 24 24 23 22 21 20 19 19 18 18 16 16 16 16 16 16 17 17 16 16 17 17 16 16 15
32 32 32 32 32 32 32 31 30 29 28 28 27 27 26 26 26 25 25 24 23 22 21 20 19 18 18 17 16 16 16 17 17 17 17 17 17 17 18 18 18 17
33 34 34 33 33 33 33 33 32 31 30 29 28 28 27 27 27 26 26 25 24 23 22 21 20 19 18 18 17 17 17 17 17 18 18 18 18 17 18 19 19 19
33 34 34 34 34 34 34 34 34 33 32 31 30 29 28 28 27 27 26 26 25 25 23 22 21 20 20 19 18 18 18 18 18 18 18 18 18 18 17 18 19 19
32 33 33 34 35 35 35 35 35 34 34 33 32 31 30 28 28 27 27 26 26 25 24 23 21 21 22 21 19 19 18 18 19 19 19 19 19 18 18 18 18 18
32 32 32 33 34 36 36 36 36 35 35 34 33 32 31 30 29 28 27 26 26 25 24 23 22 23 23 22 21 20 20 20 20 20 21 20 20 20 19 19 18 17
32 31 31 32 34 35 36 37 36 36 35 35 34 34 33 32 30 29 28 27 26 25 24 23 23 23 23 23 22 22 22 22 21 21 21 21 21 21 20 20 19 19
33 32 31 32 33 34 35 36 36 36 36 35 35 35 34 33 32 31 31 30 28 27 26 25 24 24 24 24 24 24 24 24 23 23 22 22 22 22 22 22 21 20
36 34 33 33 33 33 34 34 35 35 35 36 36 35 34 34 34 33 33 32 31 30 29 28 27 26 26 26 26 26 26 26 25 24 23 22 22 23 23 23 23 22
39 37 36 35 34 33 33 33 33 33 34 34 35 35 35 34 34 34 33 32 32 32 31 30 29 29 29 29 29 29 28 28 26 25 24 24 23 23 24 24 25 24
42 40 39 38 37 36 34 33 33 33 33 33 33 33 33 34 35 34 33 33 33 32 31 29 30 30 31 31 32 31 30 29 27 27 26 25 24 24 24 25 25 25
45 44 42 42 41 39 37 36 35 34 33 33 32 32 32 33 34 34 33 32 32 31 29 28 29 30 30 31 32 32 30 29 28 27 26 25 25 25 25 24 24 25
45 46 46 45 44 43 41 40 39 38 37 35 34 32 32 32 32 32 32 31 30 30 29 28 29 29 30 30 31 30 29 29 28 27 26 25 24 24 24 24 24 24
46 46 47 47 48 48 47 46 44 42 41 39 37 35 34 33 32 32 31 31 30 30 30 29 29 30 30 30 30 29 28 27 26 25 25 24 24 24 24 23 23 24

ECMWFNIL_500_spd_111.txt.gz
Wind_Speed
16 16 16 16 15 15 14 13 11 11 10 10 10 9 10 10 9 9 8 7 5 5 4 4 4 4 4 4 4 5 5 4 4 4 5 5 5 5 5 6 6 7
16 16 15 16 16 16 15 14 13 12 12 11 11 10 10 10 9 9 9 8 7 6 5 5 5 5 5 5 5 5 5 5 5 6 6 6 5 5 5 6 7 6
16 16 16 16 17 16 16 15 14 14 14 13 12 11 11 10 10 9 9 9 8 7 7 6 6 6 6 6 6 6 6 6 6 6 7 6 6 6 6 7 7 7
17 17 17 18 17 17 17 16 16 16 15 15 14 12 12 11 10 10 10 9 9 8 8 7 7 7 7 7 7 7 7 7 7 7 7 7 7 7 7 7 7 7
19 18 18 18 18 18 18 18 17 17 17 16 15 14 13 12 12 11 11 10 10 9 9 8 8 8 7 7 7 8 8 8 8 8 8 8 8 7 7 7 7 7
20 20 19 19 19 19 20 20 19 18 18 17 16 15 14 13 13 12 12 11 11 10 9 9 9 8 8 8 8 8 8 9 9 9 9 9 9 8 8 7 7 8
21 21 20 20 20 20 20 20 20 19 19 18 17 16 16 15 14 13 13 12 12 11 10 10 10 9 9 9 9 9 9 9 10 10 10 10 10 10 9 9 8 9
22 21 21 21 20 21 21 21 21 21 20 19 19 18 16 16 15 14 14 13 12 12 11 11 10 10 10 10 9 10 10 10 11 11 11 11 11 11 11 10 10 10
23 22 21 21 21 21 21 21 22 21 21 21 20 19 17 17 16 15 14 14 13 13 12 12 11 11 11 10 10 10 10 11 11 12 12 12 12 12 12 11 11 10
25 23 22 21 21 22 22 22 22 22 22 22 22 20 19 18 17 16 16 15 14 14 13 12 11 11 11 11 11 11 11 11 12 13 13 13 13 13 12 12 11 10
27 26 24 23 22 22 22 23 23 22 23 23 23 22 21 20 19 18 17 17 16 15 13 12 11 11 11 11 11 11 11 12 13 13 14 14 14 14 13 13 12 11
28 27 27 26 25 24 24 23 22 23 23 23 23 23 22 21 20 20 19 19 18 16 14 13 12 12 11 11 11 11 12 13 13 14 14 14 15 15 14 14 13 12
28 28 28 28 27 27 26 24 23 23 23 24 24 24 23 23 22 21 21 20 19 18 16 15 14 13 13 12 12 12 12 13 13 14 15 15 15 15 16 16 15 14
29 28 29 29 29 29 27 26 25 24 24 24 24 24 24 23 23 23 23 22 20 19 18 16 15 15 15 14 13 13 13 13 13 14 15 16 16 16 16 17 17 16
29 28 29 29 29 29 28 28 27 26 26 25 24 24 24 25 24 24 24 23 22 21 19 18 17 17 17 16 16 15 15 14 14 14 15 16 16 16 17 17 18 18
29 28 28 28 29 29 29 29 29 28 28 26 25 25 25 25 25 25 24 23 23 22 21 20 19 18 19 19 18 17 17 16 15 15 15 15 16 16 17 17 18 18
27 27 27 28 28 29 29 29 29 29 29 28 27 26 26 26 26 25 25 24 24 23 22 21 20 20 20 21 20 20 19 18 17 17 16 16 16 16 16 17 17 17
27 26 26 26 28 28 29 29 29 29 29 29 28 28 27 27 27 26 26 25 25 24 23 22 21 21 22 23 22 22 21 20 19 18 18 17 16 16 16 17 17 17
29 27 25 25 26 27 28 29 30 30 29 29 30 30 30 29 28 28 27 27 26 25 24 24 23 23 23 24 24 24 23 22 21 20 19 18 17 17 17 17 17 17
32 30 28 26 26 26 27 28 29 30 30 31 31 32 31 31 30 30 30 29 28 27 26 26 25 24 24 25 26 26 25 24 23 21 20 19 18 17 17 17 17 17
34 32 30 29 28 28 28 28 29 29 31 32 33 34 33 32 32 32 32 31 31 30 29 28 28 27 26 26 27 28 27 26 25 23 21 20 19 19 18 18 18 18
36 35 33 31 31 31 31 32 32 32 32 33 35 36 34 34 33 34 34 33 33 33 32 31 31 31 29 29 30 31 30 29 27 24 22 21 21 20 20 19 19 18
38 37 36 35 34 34 35 35 34 33 33 34 35 35 35 34 35 36 36 35 34 35 34 33 33 34 33 32 33 34 34 32 29 27 25 23 23 23 22 21 20 20
38 39 39 39 38 38 38 37 35 34 34 34 34 34 33 32 32 34 35 35 35 36 35 35 35 35 35 35 35 36 36 34 32 30 28 25 24 24 24 24 23 22
39 39 41 42 42 42 41 38 36 36 36 36 36 34 32 31 31 32 33 33 34 35 35 35 36 37 36 35 35 35 36 36 35 32 29 27 25 25 25 25 25 24
41 40 41 42 43 45 44 42 40 40 39 38 37 35 32 31 32 32 32 33 34 35 35 35 36 38 37 36 36 36 36 36 36 34 30 27 26 26 26 26 26 26

ECMWFNIL_500_spd_114.txt.gz
Wind_Speed
15 14 14 13 12 12 11 10 9 9 9 8 7 7 6 5 5 5 6 6 6 6 6 5 4 4 3 3 3 3 3 3 2 2 1 1 2 3 3 3 3 3
16 15 15 15 14 12 12 11 10 10 10 9 8 7 6 5 5 5 5 5 5 6 6 6 4 4 3 2 2 3 2 2 2 2 1 1 1 2 3 3 3 3
15 16 16 16 15 14 13 12 12 12 11 10 9 7 6 5 5 5 5 5 4 4 5 6 5 4 4 3 2 2 2 2 2 2 2 2 2 2 2 2 3 3
15 16 17 17 16 15 15 15 14 13 12 11 10 9 8 7 6 6 5 5 5 5 5 5 6 6 5 4 4 3 3 3 3 3 2 2 2 2 2 2 2 3
15 16 16 17 17 17 17 17 16 15 14 13 12 11 10 9 8 7 7 6 6 6 6 6 6 6 7 6 6 5 4 4 4 4 4 3 3 2 2 2 2 3
15 15 16 16 17 17 18 18 17 16 15 14 13 12 12 11 10 9 8 8 7 7 7 6 6 7 7 7 8 7 6 6 5 5 5 5 4 3 3 3 4 4
16 15 15 16 16 17 18 18 17 17 16 15 14 14 13 12 11 10 9 9 9 8 8 7 7 7 7 8 8 8 8 8 7 7 7 6 6 5 5 5 5 5
18 16 15 15 16 16 17 17 18 18 17 17 16 15 14 13 12 11 10 10 10 10 9 9 8 7 7 7 8 8 8 8 8 8 8 8 8 7 7 7 7 6
20 18 16 16 15 16 16 17 18 18 18 18 17 16 15 14 14 13 12 11 11 11 10 10 9 8 7 7 7 8 8 8 8 9 8 9 8 8 8 9 8 7
23 20 18 17 16 16 16 16 17 17 18 19 18 17 16 16 15 14 13 13 12 12 12 11 10 8 8 8 7 8 8 8 8 8 8 9 9 9 10 10 10 9
25 24 21 19 18 17 17 17 17 16 17 18 19 19 18 17 16 16 15 14 14 13 12 12 11 10 9 8 8 8 8 8 8 8 8 9 10 10 11 11 11 10
25 25 24 22 21 20 19 18 17 17 17 18 18 19 19 18 17 17 17 16 15 14 13 13 12 11 10 9 9 8 8 7 8 8 8 9 10 11 11 12 12 11
26 26 26 25 25 24 22 20 19 18 18 18 18 18 19 19 19 18 18 18 17 16 15 14 13 12 11 10 10 9 8 8 8 8 9 9 10 11 11 12 12 13
28 29 28 27 27 26 25 23 21 20 19 18 18 18 18 19 19 19 19 19 18 17 16 15 14 13 13 12 11 11 10 9 9 8 9 10 10 11 12 12 13 13
32 32 28 27 27 26 26 26 24 22 21 20 19 18 18 18 18 19 19 19 19 18 18 17 16 15 15 15 14 13 12 11 10 9 9 10 11 11 12 13 13 13
33 33 30 28 28 27 27 26 25 24 23 22 21 20 19 18 18 18 19 19 19 19 19 18 17 17 17 17 16 15 14 13 12 11 10 10 11 11 12 13 13 14
30 31 31 30 29 28 27 28 27 26 25 24 23 22 21 21 20 19 19 19 19 20 19 19 18 18 18 19 18 17 16 15 13 12 12 11 11 12 12 13 14 14
29 29 30 31 30 28 28 31 32 30 28 26 25 24 24 23 22 22 21 21 20 20 20 19 19 19 19 20 20 20 19 17 16 14 13 13 12 12 12 13 14 14
31 29 29 31 30 28 29 33 34 33 32 30 28 27 25 25 25 24 24 23 23 22 22 21 21 21 20 21 22 22 21 20 18 17 16 15 14 13 13 13 14 15
32 31 30 31 31 30 30 31 33 34 33 31 30 28 26 25 24 24 24 25 24 24 24 23 23 23 23 23 23 24 25 23 21 19 18 17 16 15 15 15 15 15
34 33 32 33 32 31 30 31 32 32 32 30 29 28 27 26 25 24 26 25 23 23 24 24 24 24 24 24 25 26 27 27 25 22 20 19 18 18 18 17 17 17
36 35 34 34 34 33 31 30 31 31 30 29 28 28 29 30 27 26 27 26 24 24 25 25 25 26 26 26 26 28 29 29 28 25 23 21 21 21 20 20 20 19
37 37 36 36 36 35 32 31 30 29 28 27 28 28 29 29 27 26 25 24 23 24 26 26 27 28 29 29 28 28 29 30 30 29 26 24 23 22 22 22 22 21
35 35 36 37 38 37 35 33 32 31 29 28 29 29 28 27 27 26 24 23 23 23 24 26 27 29 30 31 31 30 30 31 31 31 29 27 25 25 25 25 25 24
35 34 34 35 38 39 38 36 35 34 32 30 30 30 30 28 28 27 26 24 24 24 25 26 28 29 29 30 32 32 32 33 34 33 31 29 28 28 28 28 28 28
39 37 35 35 36 39 40 40 38 37 35 33 30 30 30 28 28 28 27 25 24 24 26 27 27 27 28 30 31 33 33 34 35 35 34 33 31 31 30 29 29 29

ECMWFNIL_500_spd_117.txt.gz
Wind_Speed
13 12 12 12 12 12 11 11 11 11 11 11 11 10 9 9 8 7 7 7 8 8 8 9 9 8 8 8 8 7 7 6 6 6 6 5 5 5 5 5 6 6
13 13 13 13 13 13 12 12 12 12 12 11 11 10 10 9 9 8 7 6 6 7 7 8 8 8 8 8 7 7 6 6 5 5 6 6 5 5 5 5 6 6
13 13 14 14 14 14 13 13 13 13 12 11 11 10 10 10 9 8 7 6 6 6 6 6 7 7 8 7 7 7 6 5 4 4 5 5 5 5 5 5 5 5
13 13 14 15 15 15 14 14 13 13 13 12 11 10 10 10 9 9 8 7 6 6 6 6 6 6 7 7 7 7 6 5 4 3 3 4 4 5 5 5 5 5
13 13 14 15 16 16 16 16 15 14 13 13 12 11 11 11 10 10 9 8 8 7 7 7 6 6 6 7 7 7 6 5 5 3 2 2 3 4 4 4 4 5
13 13 13 15 16 17 17 17 17 16 15 15 14 13 12 12 11 10 10 9 9 8 8 8 7 7 7 7 7 7 7 6 6 5 4 3 2 2 3 3 4 4
14 13 13 14 15 16 17 18 18 17 17 16 15 15 14 13 12 11 11 10 9 9 8 8 8 7 7 8 8 7 7 7 7 7 6 5 4 3 3 2 3 4
16 15 14 14 15 16 17 18 18 18 18 17 17 16 15 14 13 12 12 11 10 10 9 9 8 8 8 8 8 8 9 9 8 8 8 7 6 5 5 4 3 4
17 16 15 15 15 17 17 18 18 18 18 18 18 17 16 15 14 14 13 13 12 12 11 10 9 9 8 8 9 9 10 10 10 10 9 8 8 7 7 6 5 5
19 18 17 16 16 17 18 19 19 19 19 19 18 18 17 16 15 15 14 14 14 13 13 12 11 10 9 9 9 9 9 10 10 11 11 10 10 9 9 8 7 7
20 19 18 18 17 18 19 20 20 19 19 20 19 18 18 17 16 16 15 15 15 15 14 13 12 11 10 9 9 9 9 9 10 10 11 11 11 11 11 10 9 8
21 20 19 19 20 20 21 20 20 20 20 20 20 20 19 18 17 17 17 17 16 15 14 14 13 12 11 10 10 10 10 9 10 10 11 11 11 12 12 12 11 10
23 22 21 21 22 22 22 21 21 20 20 20 20 20 20 19 19 18 18 17 17 16 15 14 13 13 12 11 11 11 11 10 10 10 10 11 11 12 13 13 13 12
25 24 23 23 23 23 22 21 21 21 20 20 19 19 19 19 19 19 18 18 17 16 16 15 14 13 13 12 12 11 11 11 11 10 10 10 11 12 12 13 13 14
24 24 23 23 24 24 23 22 22 22 21 20 20 19 18 17 17 17 18 18 18 17 17 16 16 15 14 14 13 12 12 12 11 11 11 11 11 11 11 12 13 14
25 24 24 25 25 25 24 23 23 23 22 21 21 21 19 17 15 16 17 18 18 18 18 17 17 17 16 15 14 14 13 12 11 11 11 11 11 11 11 11 12 13
26 25 26 27 27 27 26 25 24 24 22 21 21 21 22 20 17 16 16 17 18 18 18 17 17 17 17 16 15 14 13 12 11 11 11 11 11 11 11 11 12 12
26 25 26 27 28 28 27 26 25 25 24 23 22 23 24 23 20 18 17 16 17 18 17 17 17 18 18 17 16 15 14 13 12 12 11 11 11 11 11 11 11 12
26 25 24 25 25 26 26 27 27 27 26 25 24 25 26 26 23 20 19 18 18 17 17 18 19 18 18 18 18 18 17 15 14 14 13 12 12 12 12 12 12 13
25 24 23 23 24 24 25 26 28 28 28 27 27 27 29 29 27 23 21 20 20 19 19 19 20 20 19 19 19 20 19 18 17 16 15 14 14 14 14 14 14 13
22 24 25 25 25 25 25 26 27 27 28 29 29 30 31 32 31 27 24 23 23 23 22 21 20 21 21 21 21 22 22 21 19 18 17 16 16 16 16 16 16 15
21 23 26 27 27 27 28 28 27 26 27 28 30 31 33 34 33 31 27 25 24 23 23 22 21 22 23 23 24 24 23 22 22 21 19 18 17 18 18 18 18 18
23 23 24 27 29 30 30 30 29 28 28 29 30 31 32 34 35 34 31 28 26 24 22 22 22 23 24 25 25 26 25 24 24 23 21 20 19 19 20 20 21 21
27 26 25 26 28 30 31 32 31 30 29 29 29 29 30 31 34 34 32 31 29 28 25 22 22 23 25 26 27 28 27 27 26 25 23 22 21 20 21 22 23 23
32 30 29 27 27 28 29 31 32 32 30 29 29 29 29 29 30 31 32 31 31 31 29 25 23 24 27 28 29 30 29 28 28 27 25 24 23 23 22 23 24 25
36 35 33 31 30 29 29 29 31 32 30 27 28 29 28 28 28 29 29 30 31 32 31 28 26 26 28 29 30 31 31 30 29 28 27 27 26 25 24 24 24 25

ECMWFNIL_500_spd_120.txt.gz
Wind_Speed
12 12 11 11 11 11 12 12 13 13 13 13 12 12 12 13 12 12 11 11 11 11 12 12 12 11 11 10 10 10 10 9 9 9 9 9 9 9 9 9 9 9
13 12 12 13 12 12 12 13 13 14 14 13 13 13 12 13 12 12 11 11 11 11 11 11 11 12 11 11 10 10 10 10 9 9 9 8 9 9 9 9 9 9
14 14 14 14 14 13 13 13 13 14 14 14 13 13 13 13 13 12 12 11 11 11 11 11 11 11 12 11 11 11 10 10 10 9 9 9 9 9 9 9 10 10
14 14 15 15 15 15 14 14 14 14 14 14 14 14 14 14 14 13 13 12 11 11 10 10 11 11 11 11 12 11 11 10 10 10 9 9 9 9 10 10 11 11
14 14 15 15 16 16 16 15 14 14 14 14 14 14 15 15 15 15 14 13 12 12 11 11 11 11 11 11 11 12 12 11 11 10 10 10 10 10 10 10 11 12
15 14 15 16 17 18 17 16 16 15 15 15 15 15 15 16 16 16 15 15 14 13 13 12 12 12 12 12 11 11 11 11 11 11 10 10 10 10 10 10 11 12
16 15 15 15 16 17 18 18 18 17 16 16 16 16 16 16 16 16 16 15 15 15 14 13 13 12 12 12 12 11 11 11 11 11 11 10 10 10 10 10 11 11
18 17 16 15 16 17 18 19 19 19 18 18 17 16 16 15 15 15 15 15 15 15 15 14 13 13 13 13 13 12 12 11 11 11 11 11 10 10 10 10 10 10
20 19 17 16 16 17 17 18 19 19 19 19 18 16 15 15 15 15 15 15 15 15 15 15 14 14 13 13 13 13 13 13 12 12 12 11 11 11 10 10 10 10
23 22 20 18 18 17 17 17 16 17 18 19 18 17 16 16 16 16 15 15 15 15 14 14 14 14 14 14 14 14 14 14 14 13 13 13 12 12 12 11 10 10
25 24 22 20 19 17 16 15 14 15 15 16 17 17 17 16 16 17 17 16 15 15 14 13 14 14 14 14 14 14 14 14 14 14 14 14 14 13 13 12 11 11
24 24 23 22 20 18 17 16 15 15 15 15 15 15 16 16 17 17 17 17 16 15 14 14 14 14 14 14 14 14 15 15 14 14 14 14 14 14 14 13 12 12
22 22 22 22 21 20 19 18 18 17 17 17 16 16 15 15 15 16 17 17 16 16 15 15 14 14 14 14 14 14 14 14 13 13 13 13 14 14 14 14 14 13
23 21 20 20 21 20 20 20 20 19 19 19 18 17 17 16 15 15 16 16 16 16 16 15 15 15 15 15 15 14 14 13 13 12 12 13 13 14 14 15 15 14
24 22 20 20 21 21 22 22 21 21 21 21 20 19 18 18 17 16 16 16 17 17 16 16 16 15 15 15 16 15 15 14 13 13 13 13 13 13 14 14 15 15
27 26 24 23 24 24 24 23 23 23 23 23 23 21 20 19 19 18 17 17 18 19 18 17 16 16 16 16 16 16 16 15 14 13 13 13 13 13 13 14 14 15
28 29 28 27 27 26 26 26 26 25 25 24 24 23 21 20 19 19 19 18 18 19 20 19 18 18 17 17 17 17 16 15 14 14 13 13 13 13 13 13 14 14
27 28 29 28 28 27 27 28 28 28 26 25 24 24 23 21 21 21 21 20 19 19 20 21 21 21 19 18 18 18 18 17 15 15 14 14 14 14 14 14 14 14
26 27 28 28 28 28 28 28 28 29 28 26 25 25 24 23 23 23 23 23 21 20 20 21 22 23 23 22 21 20 20 19 18 17 16 16 15 15 15 15 15 15
21 23 25 27 27 28 28 28 29 30 29 27 26 26 24 24 24 25 25 24 22 22 22 22 23 23 23 24 23 23 22 21 20 19 18 18 18 17 17 17 16 16
16 18 21 24 26 27 26 26 28 30 29 28 27 26 24 24 25 26 26 25 24 23 24 25 25 24 24 24 24 24 24 22 21 20 19 19 19 19 19 18 19 18
17 18 19 20 22 25 25 24 25 26 27 27 26 25 25 26 26 27 27 26 25 25 25 26 27 27 26 26 26 26 26 25 24 23 22 21 21 20 20 20 20 19
22 21 21 20 19 21 23 25 25 25 25 24 24 24 25 26 27 28 29 28 28 29 29 28 28 28 29 29 29 29 28 27 26 25 24 23 23 23 22 22 22 21
26 24 24 23 22 20 21 23 25 25 25 25 25 25 25 26 27 28 30 30 31 31 32 32 31 30 30 30 31 32 31 30 29 27 25 24 24 24 24 24 24 24
30 27 26 26 26 23 22 21 22 23 25 27 28 28 28 28 28 28 29 30 31 32 34 34 34 34 32 31 31 31 32 32 30 28 26 25 25 26 26 26 25 25
32 31 30 29 29 27 25 24 23 22 24 26 28 30 31 31 30 30 29 30 31 32 34 35 36 36 35 33 32 32 33 33 33 31 29 29 28 28 28 27 27 27

ECMWFNIL_500_spd_123.txt.gz
Wind_Speed
13 12 12 12 12 14 15 15 15 15 15 15 15 15 15 15 15 15 14 14 14 14 14 13 13 13 13 13 13 13 13 13 13 12 12 11 11 12 11 11 11 11
14 13 12 12 12 13 14 15 15 15 15 14 14 14 14 15 15 14 14 14 14 13 13 13 13 12 12 12 12 12 12 12 12 11 11 11 11 11 11 11 11 11
14 14 13 13 12 12 12 13 14 15 15 14 14 14 14 14 14 14 14 13 13 13 12 12 12 12 11 11 11 11 11 11 11 11 11 11 11 11 11 11 11 11
14 14 14 13 13 12 12 12 13 14 15 14 14 13 13 13 12 12 12 12 12 12 12 12 11 11 11 11 11 10 10 10 10 10 10 10 11 11 11 11 11 11
14 14 14 14 14 13 13 12 12 13 13 14 14 14 13 12 12 12 12 11 11 11 11 11 11 11 11 11 10 10 10 10 9 9 10 10 10 11 11 11 11 12
15 15 15 15 15 15 15 14 13 13 13 13 14 14 14 13 13 12 12 11 10 10 10 10 10 11 11 11 10 10 10 10 10 9 9 10 10 11 11 12 12 13
15 16 16 16 16 16 16 15 14 14 13 13 13 14 14 14 14 13 13 12 11 10 10 9 9 10 10 11 11 11 10 10 10 10 10 10 10 10 11 11 12 12
15 15 15 16 17 17 17 16 16 15 14 14 13 14 14 14 14 13 13 13 12 11 11 10 10 10 10 11 11 11 11 11 11 11 10 10 10 10 10 10 11 11
17 15 14 15 16 17 17 17 17 17 16 15 14 13 13 13 13 13 13 12 12 12 11 11 11 11 11 12 12 12 12 12 12 12 11 11 10 9 9 9 10 10
19 17 16 16 17 17 17 17 17 17 17 17 16 14 14 13 13 13 13 12 12 12 12 11 11 11 12 12 13 13 13 14 14 13 13 12 12 11 11 10 10 10
21 20 19 19 18 18 17 17 16 16 16 16 16 16 15 15 14 14 13 13 13 13 12 12 12 11 12 12 13 13 14 15 15 15 15 14 14 13 13 13 12 11
23 22 21 21 20 19 18 18 17 17 17 17 17 17 16 16 16 16 15 15 14 14 13 13 13 13 12 13 13 14 15 15 16 16 16 16 15 15 15 15 14 13
25 25 24 23 22 22 21 20 20 20 20 19 19 19 18 18 18 17 17 16 16 15 15 15 15 14 14 14 14 15 16 16 16 16 16 16 16 16 16 16 16 16
27 26 26 25 25 25 24 24 23 23 23 23 22 21 21 21 21 21 20 18 18 17 17 16 16 16 16 16 16 16 16 16 16 16 16 16 16 17 17 17 17 17
27 27 26 26 27 27 27 27 26 25 24 24 24 23 23 23 23 23 23 22 21 20 19 19 18 18 18 18 17 17 16 16 16 16 17 17 17 17 17 17 18 18
28 27 26 26 26 27 27 27 25 24 23 23 23 24 24 24 24 23 23 23 23 23 22 21 21 21 21 20 19 18 17 16 16 16 17 17 18 18 18 18 18 18
29 28 28 27 26 26 25 24 23 24 24 24 24 24 25 25 25 24 23 22 22 23 22 22 22 22 22 22 21 20 19 18 17 17 17 17 18 19 19 18 18 18
30 30 29 29 27 26 25 25 26 27 27 26 27 27 27 27 27 26 25 23 22 22 22 23 23 23 23 22 23 22 22 21 20 18 18 18 18 19 19 19 19 19
30 30 30 29 28 28 28 28 29 29 29 28 29 28 27 27 28 28 27 25 24 23 23 24 24 24 23 22 23 23 24 23 22 21 20 20 19 20 20 20 20 20
30 30 31 31 30 30 31 31 32 31 29 28 29 30 28 26 27 29 29 28 26 25 24 24 24 25 24 23 23 23 24 24 24 24 23 22 22 21 21 21 21 21
30 30 31 32 31 31 31 32 32 32 30 29 30 32 30 27 27 28 30 30 29 27 26 24 24 25 25 25 24 24 23 23 23 24 24 24 23 23 22 22 22 22
25 26 28 28 28 28 29 31 31 31 30 29 30 31 31 29 28 29 30 31 30 29 27 25 25 25 25 26 25 24 23 23 23 24 24 25 25 24 24 23 23 22
22 22 21 19 18 18 20 23 25 28 29 28 27 29 29 28 29 30 30 30 30 29 28 27 26 26 26 27 26 25 24 23 23 24 25 26 26 26 26 25 25 25
26 26 23 19 17 15 16 16 18 21 25 26 27 27 26 26 27 29 30 30 30 29 28 27 28 27 27 28 27 27 26 25 24 24 25 26 28 28 28 27 26 26
26 28 28 26 23 21 19 18 18 19 21 23 24 25 25 25 25 27 28 28 29 29 27 27 29 29 29 29 30 30 29 28 27 26 26 28 28 29 29 29 28 28
25 26 27 27 27 26 25 24 23 22 21 21 21 23 24 24 24 27 28 27 28 28 27 28 29 30 31 32 32 33 33 32 30 29 29 29 29 30 30 30 30 30

ECMWFNIL_500_spd_126.txt.gz
Wind_Speed
8 8 8 8 9 11 12 12 12 13 13 14 14 14 14 13 13 12 12 12 11 11 11 10 10 10 10 10 10 10 10 10 10 9 9 8 8 9 9 9 10 10
10 9 9 9 9 10 11 12 12 12 12 12 13 13 14 14 13 13 13 13 12 12 12 11 11 11 10 10 9 9 9 9 9 9 8 9 9 10 10 11 12 12
12 11 11 11 10 9 10 11 11 12 12 12 12 12 12 13 13 13 13 13 13 12 12 12 11 11 10 10 9 9 8 8 8 8 9 9 10 10 10 11 12 12
14 13 12 11 10 9 10 11 12 12 11 11 11 12 12 12 12 12 12 13 13 13 12 12 11 11 10 10 10 9 9 9 9 9 9 9 10 10 10 11 11 11
15 14 13 12 11 11 11 11 12 12 12 11 12 12 12 11 12 12 12 12 12 12 12 12 12 11 11 10 10 10 9 9 9 9 9 9 10 11 11 12 12 12
16 16 15 14 13 13 12 12 11 11 12 12 12 12 12 12 12 12 12 12 12 12 12 12 12 12 12 11 11 11 10 10 10 10 10 10 10 11 11 12 12 12
16 16 16 15 15 14 14 13 13 12 12 12 13 13 13 13 13 13 13 13 12 12 12 12 12 12 12 12 12 12 11 11 11 10 10 10 10 10 11 11 12 12
16 16 15 15 15 15 15 15 15 14 13 13 13 13 13 13 13 14 14 13 13 12 13 13 13 13 13 13 12 12 12 12 12 12 11 11 10 10 10 11 11 12
18 17 16 16 16 16 17 17 16 15 15 14 13 12 13 13 13 14 14 14 13 13 13 13 13 13 13 13 13 13 13 13 13 13 13 12 11 10 10 11 11 11
20 19 19 19 19 19 19 19 18 17 16 15 14 13 13 13 13 13 14 14 14 14 13 13 13 13 13 13 13 13 14 14 14 14 13 13 12 12 12 12 11 11
22 21 21 22 22 22 22 22 20 19 18 17 16 15 15 14 14 15 15 15 14 14 14 14 14 13 13 13 13 13 14 14 14 14 14 14 14 13 13 13 13 12
25 24 24 24 24 23 22 22 21 21 20 20 19 18 18 17 17 17 17 17 16 16 15 15 15 15 14 14 14 14 14 14 14 15 15 15 15 15 15 15 15 14
27 28 27 26 24 23 22 21 20 21 21 21 21 21 20 20 20 20 20 20 19 18 18 17 17 16 16 15 15 15 14 14 14 15 15 15 16 16 17 17 16 16
28 28 28 27 25 23 22 21 21 21 22 23 23 23 22 22 22 22 22 22 21 21 20 19 19 19 19 18 18 17 16 15 15 15 15 15 16 16 17 18 18 17
29 27 27 27 26 25 24 24 23 23 24 24 23 23 23 23 23 24 24 24 24 23 23 22 22 22 22 21 20 19 18 17 16 15 15 15 16 16 17 18 18 18
31 29 27 27 27 27 27 26 25 25 25 25 24 23 24 24 24 24 23 24 24 24 25 24 24 25 24 23 22 21 20 19 18 17 16 16 16 16 17 17 17 17
33 31 30 30 30 30 29 28 28 28 28 27 26 25 25 25 24 23 23 23 24 24 24 24 25 26 26 24 23 22 21 20 19 18 18 17 17 17 17 17 18 18
34 34 32 32 32 31 30 29 29 29 29 29 28 27 26 25 24 23 23 24 24 24 24 24 25 26 26 26 25 24 23 22 21 20 20 19 19 19 19 19 19 19
33 35 34 33 33 32 31 30 30 29 29 29 29 28 27 26 25 25 25 25 25 25 25 26 26 26 26 26 26 26 25 24 23 22 22 22 21 21 22 21 21 21
29 32 33 33 33 32 31 30 30 29 29 30 30 29 29 28 28 28 27 27 27 27 27 26 27 27 27 27 27 28 27 26 24 24 23 23 23 24 24 24 23 22
24 27 29 30 31 32 32 32 31 30 29 30 30 29 29 30 30 29 29 29 29 29 28 28 28 28 28 28 28 28 28 28 27 25 24 24 25 25 25 25 24 23
20 23 25 28 30 31 31 32 32 31 31 31 31 30 31 32 32 31 30 30 30 30 30 30 30 30 29 29 28 29 29 29 28 27 26 25 25 25 25 25 25 25
18 19 21 25 28 30 31 32 33 33 33 34 33 33 34 35 35 33 31 31 31 30 30 31 31 31 31 31 30 29 29 29 27 26 25 25 25 25 25 25 26 26
22 21 20 21 23 24 25 29 33 34 35 36 36 34 34 35 35 34 33 33 34 34 33 33 33 32 33 34 33 30 29 29 28 26 25 24 24 24 24 25 26 27
24 24 23 23 22 20 19 21 24 26 27 29 31 32 33 34 34 33 33 34 36 36 35 35 35 34 33 35 35 32 28 28 29 28 26 25 25 25 25 25 26 27
24 23 22 24 25 24 23 22 21 19 18 20 23 24 26 28 29 31 31 32 33 35 36 36 35 34 33 33 34 32 29 29 31 30 27 27 27 27 27 27 27 28